[[{"header":{"parameterUnit":"m.s-1","parameterCategory":1,"la1":30.6,"la2":28.766,"lo1":-90.7593,"lo2":-88.6598,"dx":0.0162,"dy":0.0183,"nx":116,"ny":114,"refTime":"2023-02-01T06:00:00:Z","depth":0,"parameterNumber":2,"parameterNumberName":"U-component_of_WINDS"},"data":[0.0,0.0,0.0,0.0,0.0,0.0,0.0,0.0,0.0,0.0,0.0,0.0,0.0,0.0,0.0,0.0,0.0,0.0,0.0,0.0,0.0,0.0,0.0,0.0,0.0,0.0,0.0,0.0,0.0,0.0,0.0,0.0,0.0,0.0,0.0,0.0,0.0,0.0,0.0,0.0,0.0,0.0,0.0,0.0,0.0,0.0,0.0,0.0,0.0,0.0,0.0,0.0,0.0,0.0,0.0,0.0,0.0,0.0,0.0,0.0,0.0,0.0,0.0,0.0,0.0,0.0,0.0,0.0,0.0,0.0,0.0,0.0,0.0,0.0,0.0,0.0,0.0,0.0,0.0,0.0,0.0,0.0,0.0,0.0,0.0,0.0,0.0,0.0,0.0,0.0,0.0,0.0,0.0,0.0,0.0,0.0,0.0,0.0,0.0,0.0,0.0,0.0,0.0,0.0,0.0,0.0,0.0,0.0,0.0,0.0,0.0,0.0,0.0,0.0,0.0,0.0,0.0,0.0,0.0,0.0,0.0,0.0,0.0,0.0,0.0,0.0,0.0,0.0,0.0,0.0,0.0,0.0,0.0,0.0,0.0,0.0,0.0,0.0,0.0,0.0,0.0,0.0,0.0,0.0,0.0,0.0,0.0,0.0,0.0,0.0,0.0,0.0,0.0,0.0,0.0,0.0,0.0,0.0,0.0,0.0,0.0,0.0,0.0,0.0,0.0,0.0,0.0,0.0,0.0,0.0,0.0,0.0,0.0,0.0,0.0,0.0,0.0,0.0,0.0,0.0,0.0,0.0,0.0,0.0,0.0,0.0,0.0,0.0,0.0,0.0,0.0,0.0,0.0,0.0,0.0,0.0,0.0,0.0,0.0,0.0,0.0,0.0,0.0,0.0,0.0,0.0,0.0,0.0,0.0,0.0,0.0,0.0,0.0,0.0,0.0,0.0,0.0,0.0,0.0,0.0,0.0,0.0,0.0,0.0,0.0,0.0,0.0,0.0,0.0,0.0,0.0,0.0,0.0,0.0,0.0,0.0,0.0,0.0,0.0,0.0,0.0,0.0,0.0,0.0,0.0,0.0,0.0,0.0,0.0,0.0,0.0,0.0,0.0,0.0,0.0,0.0,0.0,0.0,0.0,0.0,0.0,0.0,0.0,0.0,0.0,0.0,0.0,0.0,0.0,0.0,0.0,0.0,0.0,0.0,0.0,0.0,0.0,0.0,0.0,0.0,0.0,0.0,0.0,0.0,0.0,0.0,0.0,0.0,0.0,0.0,0.0,0.0,0.0,0.0,0.0,0.0,0.0,0.0,0.0,0.0,0.0,0.0,0.0,0.0,0.0,0.0,0.0,0.0,0.0,0.0,0.0,0.0,0.0,0.0,0.0,0.0,0.0,0.0,0.0,0.0,0.0,0.0,0.0,0.0,0.0,0.0,0.0,0.0,0.0,0.0,0.0,0.0,0.0,0.0,0.0,0.0,0.0,0.0,0.0,0.0,0.0,0.0,0.0,0.0,0.0,0.0,0.0,0.0,0.0,0.0,0.0,0.0,0.0,0.0,0.0,0.0,0.0,0.0,0.0,0.0,0.0,0.0,0.0,0.0,0.0,0.0,0.0,0.0,0.0,0.0,0.0,0.0,0.0,0.0,0.0,0.0,0.0,0.0,0.0,0.0,0.0,0.0,0.0,0.0,0.0,0.0,0.0,0.0,0.0,0.0,0.0,0.0,0.0,0.0,0.0,0.0,0.0,0.0,0.0,0.0,0.0,0.0,0.0,0.0,0.0,0.0,0.0,0.0,0.0,0.0,0.0,0.0,0.0,0.0,0.0,0.0,0.0,0.0,0.0,0.0,0.0,0.0,0.0,0.0,0.0,0.0,0.0,0.0,0.0,0.0,0.0,0.0,0.0,0.0,0.0,0.0,0.0,0.0,0.0,0.0,0.0,0.0,0.0,0.0,0.0,0.0,0.0,0.0,0.0,0.0,0.0,0.0,0.0,0.0,0.0,0.0,0.0,0.0,0.0,0.0,0.0,0.0,0.0,0.0,0.0,0.0,0.0,0.0,0.0,0.0,0.0,0.0,0.0,0.0,0.0,0.0,0.0,0.0,0.0,0.0,0.0,0.0,0.0,0.0,0.0,0.0,0.0,0.0,0.0,0.0,0.0,0.0,0.0,0.0,0.0,0.0,0.0,0.0,0.0,0.0,0.0,0.0,0.0,0.0,0.0,0.0,0.0,0.0,0.0,0.0,0.0,0.0,0.0,0.0,0.0,0.0,0.0,0.0,0.0,0.0,0.0,0.0,0.0,0.0,0.0,0.0,0.0,0.0,0.0,0.0,0.0,0.0,0.0,0.0,0.0,0.0,0.0,0.0,0.0,0.0,0.0,0.0,0.0,0.0,0.0,0.0,0.0,0.0,0.0,0.0,0.0,0.0,0.0,0.0,0.0,0.0,0.0,0.0,0.0,0.0,0.0,0.0,0.0,0.0,0.0,0.0,0.0,0.0,0.0,0.0,0.0,0.0,0.0,0.0,0.0,0.0,0.0,0.0,0.0,0.0,0.0,0.0,0.0,0.0,0.0,0.0,0.0,0.0,0.0,0.0,0.0,0.0,0.0,0.0,0.0,0.0,0.0,0.0,0.0,0.0,0.0,0.0,0.0,0.0,0.0,0.0,0.0,0.0,0.0,0.0,0.0,0.0,0.0,0.0,0.0,0.0,0.0,0.0,0.0,0.0,0.0,0.0,0.0,0.0,0.0,0.0,0.0,0.0,0.0,0.0,0.0,0.0,0.0,0.0,0.0,0.0,0.0,0.0,0.0,0.0,0.0,0.0,0.0,0.0,0.0,0.0,0.0,0.0,0.0,0.0,0.0,0.0,0.0,0.0,0.0,0.0,0.0,0.0,0.0,0.0,0.0,0.0,0.0,0.0,0.0,0.0,0.0,0.0,0.0,0.0,0.0,0.0,0.0,0.0,0.0,0.0,0.0,0.0,0.0,0.0,0.0,0.0,0.0,0.0,0.0,0.0,0.0,0.0,0.0,0.0,0.0,0.0,0.0,0.0,0.0,0.0,0.0,0.0,0.0,0.0,0.0,0.0,0.0,0.0,0.0,0.0,0.0,0.0,0.0,0.0,0.0,0.0,0.0,0.0,0.0,0.0,0.0,0.0,0.0,0.0,0.0,0.0,0.0,0.0,0.0,0.0,0.0,0.0,0.0,0.0,0.0,0.0,0.0,0.0,0.0,0.0,0.0,0.0,0.0,0.0,0.0,0.0,0.0,0.0,0.0,0.0,0.0,0.0,0.0,0.0,0.0,0.0,0.0,0.0,0.0,0.0,0.0,0.0,0.0,0.0,0.0,0.0,0.0,0.0,0.0,0.0,0.0,0.0,0.0,0.0,0.0,0.0,0.0,0.0,0.0,0.0,0.0,0.0,0.0,0.0,0.0,0.0,0.0,0.0,0.0,0.0,0.0,0.0,0.0,0.0,0.0,0.0,0.0,0.0,0.0,0.0,0.0,0.0,0.0,0.0,0.0,0.0,0.0,0.0,0.0,0.0,0.0,0.0,0.0,0.0,0.0,0.0,0.0,0.0,0.0,0.0,0.0,0.0,0.0,0.0,0.0,0.0,0.0,0.0,0.0,0.0,0.0,0.0,0.0,0.0,0.0,0.0,0.0,0.0,0.0,0.0,0.0,0.0,0.0,0.0,0.0,0.0,0.0,0.0,0.0,0.0,0.0,0.0,0.0,0.0,0.0,0.0,0.0,0.0,0.0,0.0,0.0,0.0,0.0,0.0,0.0,0.0,0.0,0.0,0.0,0.0,0.0,0.0,0.0,0.0,0.0,0.0,0.0,0.0,0.0,0.0,0.0,0.0,0.0,0.0,0.0,0.0,0.0,0.0,0.0,0.0,0.0,0.0,0.0,0.0,0.0,0.0,0.0,0.0,0.0,0.0,0.0,0.0,0.0,0.0,0.0,0.0,0.0,0.0,0.0,0.0,0.0,0.0,0.0,0.0,0.0,0.0,0.0,0.0,0.0,0.0,0.0,0.0,0.0,0.0,0.0,0.0,0.0,0.0,0.0,0.0,0.0,0.0,0.0,0.0,0.0,0.0,0.0,0.0,0.0,0.0,0.0,0.0,0.0,0.0,0.0,0.0,0.0,0.0,0.0,0.0,0.0,0.0,0.0,0.0,0.0,0.0,0.0,0.0,0.0,0.0,0.0,0.0,0.0,0.0,0.0,0.0,0.0,0.0,0.0,0.0,0.0,0.0,0.0,0.0,0.0,0.0,0.0,0.0,0.0,0.0,0.0,0.0,0.0,0.0,0.0,0.0,0.0,0.0,0.0,0.0,0.0,0.0,0.0,0.0,0.0,0.0,0.0,0.0,0.0,0.0,0.0,0.0,0.0,0.0,0.0,0.0,0.0,0.0,0.0,0.0,0.0,0.0,0.0,0.0,0.0,0.0,0.0,0.0,0.0,0.0,0.0,0.0,0.0,0.0,0.0,0.0,0.0,0.0,0.0,0.0,0.0,0.0,0.0,0.0,0.0,0.0,0.0,0.0,0.0,0.0,0.0,0.0,0.0,0.0,0.0,0.0,0.0,0.0,0.0,0.0,0.0,0.0,0.0,0.0,0.0,0.0,0.0,0.0,0.0,0.0,0.0,0.0,0.0,0.0,0.0,0.0,0.0,0.0,0.0,0.0,0.0,0.0,0.0,0.0,0.0,0.0,0.0,0.0,0.0,0.0,0.0,0.0,0.0,0.0,0.0,0.0,0.0,0.0,0.0,0.0,0.0,0.0,0.0,0.0,0.0,0.0,0.0,0.0,0.0,0.0,0.0,0.0,0.0,0.0,0.0,0.0,0.0,0.0,0.0,0.0,0.0,0.0,0.0,0.0,0.0,0.0,0.0,0.0,0.0,0.0,0.0,0.0,0.0,0.0,0.0,0.0,0.0,0.0,0.0,0.0,0.0,0.0,0.0,0.0,0.0,0.0,0.0,0.0,0.0,0.0,0.0,0.0,0.0,0.0,0.0,0.0,0.0,0.0,0.0,0.0,0.0,0.0,0.0,0.0,0.0,0.0,0.0,0.0,0.0,0.0,0.0,0.0,0.0,0.0,0.0,0.0,0.0,0.0,0.0,0.0,0.0,0.0,0.0,0.0,0.0,0.0,0.0,0.0,0.0,0.0,0.0,0.0,0.0,0.0,0.0,0.0,0.0,0.0,0.0,0.0,0.0,0.0,0.0,0.0,0.0,0.0,0.0,0.0,0.0,0.0,0.0,0.0,0.0,0.0,0.0,0.0,0.0,0.0,0.0,0.0,0.0,0.0,0.0,0.0,0.0,0.0,0.0,0.0,0.0,0.0,0.0,0.0,0.0,0.0,0.0,0.0,0.0,0.0,0.0,0.0,0.0,0.0,0.0,0.0,0.0,0.0,0.0,0.0,0.0,0.0,0.0,0.0,0.0,0.0,0.0,0.0,0.0,0.0,0.0,0.0,0.0,0.0,0.0,0.0,0.0,0.0,0.0,0.0,0.0,0.0,0.0,0.0,0.0,0.0,0.0,0.0,0.0,0.0,0.0,0.0,0.0,0.0,0.0,0.0,0.0,0.0,0.0,0.0,0.0,0.0,0.0,0.0,0.0,0.0,0.0,0.0,0.0,0.0,0.0,0.0,0.0,0.0,0.0,0.0,0.0,0.0,0.0,0.0,0.0,0.0,0.0,0.0,0.0,0.0,0.0,0.0,0.0,0.0,0.0,0.0,0.0,0.0,0.0,0.0,0.0,0.0,0.0,0.0,0.0,0.0,0.0,0.0,0.0,0.0,0.0,0.0,0.0,0.0,0.0,0.0,0.0,0.0,0.0,0.0,0.0,0.0,0.0,0.0,0.0,0.0,0.0,0.0,0.0,0.0,0.0,0.0,0.0,0.0,0.0,0.0,0.0,0.0,0.0,0.0,0.0,0.0,0.0,0.0,0.0,0.0,0.0,0.0,0.0,0.0,0.0,0.0,0.0,0.0,0.0,0.0,0.0,0.0,0.0,0.0,0.0,0.0,0.0,0.0,0.0,0.0,0.0,0.0,0.0,0.0,3.4318,0.0,0.0,0.0,0.0,0.0,0.0,0.0,0.0,0.0,0.0,0.0,0.0,0.0,0.0,0.0,0.0,0.0,0.0,0.0,0.0,0.0,0.0,0.0,0.0,0.0,0.0,0.0,0.0,0.0,0.0,0.0,0.0,0.0,0.0,0.0,0.0,0.0,0.0,0.0,0.0,0.0,0.0,0.0,0.0,0.0,0.0,0.0,0.0,0.0,0.0,0.0,0.0,0.0,0.0,0.0,0.0,0.0,0.0,0.0,0.0,0.0,0.0,0.0,0.0,0.0,0.0,0.0,0.0,0.0,0.0,0.0,0.0,0.0,0.0,0.0,0.0,0.0,0.0,0.0,0.0,0.0,0.0,0.0,0.0,0.0,0.0,0.0,0.0,0.0,0.0,0.0,0.0,0.0,0.0,0.0,0.0,0.0,0.0,0.0,0.0,0.0,0.0,0.0,0.0,0.0,0.0,0.0,0.0,0.0,0.0,0.0,0.0,0.0,0.0,0.0,0.0,3.5199,0.0,0.0,0.0,0.0,0.0,0.0,0.0,0.0,0.0,0.0,0.0,0.0,0.0,0.0,0.0,0.0,0.0,0.0,0.0,0.0,0.0,0.0,0.0,0.0,0.0,0.0,0.0,0.0,0.0,0.0,0.0,0.0,0.0,0.0,0.0,0.0,0.0,0.0,0.0,0.0,0.0,0.0,0.0,0.0,0.0,0.0,0.0,0.0,0.0,0.0,0.0,0.0,0.0,0.0,0.0,0.0,0.0,0.0,0.0,0.0,0.0,0.0,0.0,0.0,0.0,0.0,0.0,0.0,0.0,0.0,0.0,0.0,0.0,0.0,0.0,0.0,0.0,0.0,0.0,0.0,0.0,0.0,0.0,0.0,0.0,0.0,0.0,0.0,0.0,0.0,0.0,0.0,0.0,0.0,0.0,0.0,0.0,0.0,0.0,0.0,0.0,0.0,0.0,0.0,0.0,0.0,0.0,0.0,0.0,0.0,4.2412,4.1835,4.1354,4.0819,3.8565,3.6642,3.5164,0.0,0.0,0.0,0.0,0.0,0.0,0.0,0.0,0.0,0.0,0.0,0.0,0.0,0.0,0.0,0.0,0.0,0.0,0.0,0.0,0.0,0.0,0.0,0.0,0.0,0.0,0.0,0.0,0.0,0.0,0.0,0.0,0.0,0.0,0.0,0.0,0.0,0.0,0.0,4.0012,4.1008,4.1696,4.2008,4.0012,0.0,0.0,0.0,0.0,0.0,0.0,0.0,0.0,0.0,0.0,0.0,0.0,0.0,0.0,0.0,0.0,0.0,0.0,0.0,0.0,0.0,0.0,0.0,0.0,0.0,0.0,0.0,0.0,0.0,0.0,0.0,0.0,0.0,0.0,0.0,0.0,0.0,0.0,0.0,0.0,0.0,0.0,0.0,3.3239,3.4095,0.0,0.0,0.0,0.0,0.0,0.0,0.0,0.0,0.0,0.0,0.0,0.0,0.0,0.0,3.9669,4.1393,4.1258,3.9319,4.0873,4.0989,3.9819,4.0416,4.1435,4.2701,4.16,0.0,3.8473,3.6484,0.0,0.0,0.0,0.0,0.0,0.0,0.0,0.0,0.0,0.0,0.0,0.0,0.0,0.0,0.0,0.0,0.0,0.0,0.0,0.0,0.0,0.0,0.0,0.0,0.0,0.0,0.0,0.0,0.0,0.0,0.0,0.0,0.0,0.0,0.0,0.0,3.9392,4.0961,4.1993,4.3319,4.4145,4.4455,4.3339,4.2935,4.2874,3.9562,0.0,0.0,0.0,0.0,0.0,0.0,0.0,0.0,0.0,0.0,0.0,0.0,0.0,0.0,0.0,0.0,0.0,0.0,0.0,0.0,0.0,0.0,0.0,0.0,0.0,0.0,0.0,0.0,0.0,0.0,0.0,0.0,0.0,0.0,0.0,0.0,0.0,0.0,0.0,3.4686,3.538,3.4319,3.5793,3.6709,0.0,0.0,0.0,0.0,0.0,0.0,0.0,0.0,0.0,3.9388,4.0585,4.0993,4.0496,4.2224,4.3008,4.2863,4.4085,4.4524,4.4259,4.4605,4.5182,4.5855,4.5024,4.397,4.2608,3.9569,3.818,3.7834,0.0,0.0,0.0,0.0,0.0,0.0,0.0,0.0,0.0,0.0,0.0,0.0,0.0,0.0,0.0,0.0,0.0,0.0,0.0,0.0,0.0,4.0168,0.0,0.0,0.0,0.0,0.0,0.0,0.0,0.0,0.0,0.0,0.0,0.0,4.2646,4.4447,4.5084,4.6538,4.7327,4.7523,4.7302,4.6163,4.4182,4.12,3.9565,0.0,0.0,0.0,0.0,0.0,0.0,0.0,0.0,0.0,0.0,0.0,0.0,0.0,0.0,0.0,0.0,0.0,0.0,0.0,0.0,0.0,0.0,0.0,0.0,0.0,0.0,0.0,0.0,0.0,0.0,0.0,0.0,0.0,0.0,0.0,0.0,0.0,0.0,3.5736,3.6493,3.4152,3.6305,3.7482,0.0,0.0,0.0,0.0,0.0,0.0,3.9492,4.0608,4.1262,4.1474,4.2527,4.2889,4.2455,4.372,4.5009,4.6244,4.6894,4.7524,4.8101,4.8101,4.8216,4.8394,4.7562,4.6836,4.5956,4.2339,4.0053,3.8741,3.764,3.774,0.0,3.8511,3.8977,3.9781,0.0,0.0,0.0,0.0,0.0,0.0,0.0,0.0,0.0,0.0,0.0,0.0,0.0,0.0,4.0004,4.166,4.2025,4.1721,0.0,0.0,0.0,0.0,0.0,0.0,0.0,0.0,0.0,4.2955,4.5479,4.7945,5.035,5.1193,5.2025,5.279,5.1957,5.0197,4.7582,4.3427,4.1658,4.1312,0.0,0.0,0.0,0.0,0.0,0.0,0.0,0.0,0.0,0.0,0.0,0.0,0.0,0.0,0.0,0.0,0.0,0.0,0.0,0.0,0.0,0.0,0.0,0.0,0.0,0.0,0.0,0.0,0.0,0.0,0.0,0.0,0.0,0.0,0.0,0.0,0.0,0.0,0.0,3.3177,3.5945,0.0,0.0,0.0,0.0,3.7816,3.8639,3.9508,4.0396,4.2051,4.3316,4.4085,4.5754,4.6985,4.7716,4.7793,4.7889,4.7966,4.8024,4.8062,4.8101,4.8101,4.8548,4.9279,4.8413,4.8005,4.7639,4.3466,4.1504,4.0963,3.9261,3.9128,3.99,3.99,4.013,4.0458,0.0,0.0,0.0,0.0,0.0,0.0,0.0,0.0,0.0,0.0,0.0,0.0,0.0,4.1998,4.4363,4.6656,4.7323,4.6553,4.4021,0.0,0.0,0.0,0.0,0.0,0.0,0.0,4.2563,4.5644,4.8125,5.0356,5.2324,5.2591,5.2894,5.3183,5.2885,5.1918,5.0274,4.6047,4.3297,4.1504,3.8081,3.633,0.0,0.0,0.0,0.0,0.0,0.0,0.0,0.0,0.0,0.0,0.0,0.0,0.0,0.0,0.0,0.0,0.0,0.0,0.0,0.0,0.0,0.0,0.0,0.0,0.0,0.0,0.0,0.0,0.0,0.0,0.0,0.0,0.0,0.0,0.0,0.0,0.0,3.7859,4.0308,0.0,0.0,3.8323,3.8723,3.955,3.9896,4.0908,4.2839,4.407,4.534,4.6701,4.7351,4.8355,4.9764,4.9764,5.0317,5.137,5.137,5.137,5.137,5.137,5.1255,5.0966,5.0125,4.9315,4.8389,4.6327,4.4454,4.2765,4.1268,4.1079,4.164,4.1895,4.2398,4.3032,0.0,0.0,0.0,0.0,0.0,0.0,0.0,0.0,0.0,0.0,0.0,3.7213,4.157,4.4716,4.7449,4.9769,5.0149,4.8937,4.5806,0.0,0.0,0.0,0.0,0.0,0.0,4.2249,4.4998,4.7813,5.0615,5.2558,5.3629,5.3916,5.4031,5.4038,5.4038,5.3577,5.2563,4.9471,4.6201,4.2816,3.9677,3.86,3.8581,0.0,0.0,0.0,0.0,0.0,0.0,0.0,0.0,0.0,0.0,0.0,0.0,0.0,0.0,0.0,0.0,0.0,0.0,0.0,0.0,0.0,0.0,0.0,0.0,0.0,0.0,0.0,0.0,0.0,0.0,0.0,0.0,0.0,0.0,0.0,4.1262,4.0973,4.3191,4.3842,4.1605,4.1147,4.1219,4.1749,4.2327,4.3393,4.5086,4.6263,4.7398,4.8509,4.9082,4.9947,5.1087,5.1399,5.2106,5.3197,5.3197,5.3197,5.3197,5.3197,5.2717,5.1865,5.1337,5.0237,4.8759,4.8181,4.649,4.4195,4.3446,4.3165,4.3294,4.3943,4.4592,4.5259,0.0,0.0,0.0,0.0,0.0,0.0,0.0,0.0,0.0,0.0,3.5104,3.7919,4.3925,4.6765,4.8913,5.0668,4.9957,4.8341,4.584,4.1684,0.0,0.0,0.0,0.0,3.9565,4.4479,4.7835,4.9476,5.284,5.4517,5.4556,5.5332,5.5708,5.5708,5.5708,5.5266,5.4472,5.3606,5.0394,4.5648,4.2989,4.2408,4.2681,0.0,0.0,0.0,0.0,0.0,0.0,0.0,0.0,0.0,0.0,0.0,0.0,0.0,0.0,0.0,0.0,0.0,0.0,0.0,0.0,0.0,0.0,0.0,0.0,0.0,0.0,0.0,0.0,0.0,0.0,0.0,0.0,0.0,3.7166,4.0615,4.2854,4.2119,4.422,4.5071,4.3412,4.3951,4.4412,4.4412,4.5985,4.6947,4.6985,4.8529,4.9413,4.9471,5.1043,5.1923,5.1981,5.2813,5.3255,5.3274,5.3274,5.3274,5.3274,5.3274,5.2808,5.1971,5.1971,5.0771,4.8843,4.8843,4.7435,4.5309,4.5684,4.5333,4.477,4.5898,4.6565,4.6876,0.0,0.0,0.0,0.0,0.0,0.0,0.0,0.0,0.0,0.0,3.6614,4.0315,4.572,4.9029,5.1563,5.3299,5.0971,4.8836,4.7509,0.0,0.0,0.0,0.0,0.0,4.3977,4.6515,4.8913,5.1207,5.342,5.4797,5.5371,5.5607,5.5708,5.5708,5.5708,5.5574,5.5324,5.4491,5.3337,5.1611,4.659,4.4321,4.3643,0.0,0.0,0.0,0.0,0.0,0.0,0.0,0.0,0.0,0.0,0.0,0.0,0.0,0.0,0.0,0.0,0.0,0.0,0.0,0.0,0.0,0.0,0.0,0.0,0.0,0.0,0.0,0.0,0.0,0.0,0.0,0.0,4.1812,4.3047,4.3643,4.4797,4.7048,4.7932,4.7932,4.6836,4.6932,4.7067,4.7067,4.7505,4.8043,4.8682,4.9144,4.9952,5.1178,5.1659,5.2505,5.378,5.403,5.4434,5.5011,5.5011,5.5011,5.5011,5.5011,5.4372,5.3282,5.3282,5.1942,4.9738,4.9738,4.8495,4.6576,4.6656,4.6008,4.517,4.6358,4.6662,4.6454,0.0,0.0,0.0,0.0,0.0,0.0,0.0,0.0,0.0,0.0,3.8284,4.231,4.7516,5.0369,5.2313,5.3313,5.0625,4.8048,4.6124,0.0,0.0,0.0,0.0,4.3375,4.6694,4.8692,5.0773,5.299,5.4339,5.5231,5.5708,5.6065,5.6244,5.6263,5.6639,5.6601,5.6244,5.6142,5.5887,5.5247,5.1765,4.9649,4.8182,4.4566,4.3628,4.3974,4.2089,4.1893,4.2393,4.1393,0.0,0.0,0.0,0.0,0.0,0.0,0.0,0.0,0.0,0.0,0.0,0.0,0.0,0.0,0.0,0.0,0.0,0.0,0.0,0.0,0.0,0.0,0.0,0.0,4.2331,4.5109,4.7855,4.7201,4.7432,5.0125,5.0779,5.0644,4.9774,4.9697,4.9409,4.8702,4.8971,4.924,4.9394,4.9745,5.0548,5.1865,5.2255,5.3101,5.4491,5.4818,5.5247,5.5703,5.5524,5.5441,5.5435,5.5262,5.4597,0.0,5.3559,5.2246,5.01,5.01,4.8898,0.0,0.0,0.0,0.0,0.0,4.7115,4.6594,0.0,0.0,0.0,0.0,0.0,0.0,0.0,0.0,0.0,0.0,0.0,4.3564,4.8596,5.0711,5.1755,5.1755,4.9447,4.6509,0.0,0.0,0.0,3.9806,4.2374,4.5246,4.8326,5.0884,5.2943,5.4498,5.5409,5.5848,5.5868,5.6736,5.7151,5.7178,5.7951,5.7868,5.7192,5.7967,5.7841,5.7151,5.7151,5.6074,5.3991,4.937,4.8413,4.9149,4.599,4.4105,4.3043,4.2754,0.0,0.0,0.0,0.0,0.0,0.0,0.0,0.0,0.0,0.0,0.0,0.0,0.0,0.0,0.0,0.0,0.0,0.0,0.0,0.0,0.0,0.0,0.0,0.0,4.5417,4.7552,5.1486,5.0856,5.0529,5.2024,5.2794,5.2851,5.1981,5.1904,5.1255,4.9663,5.0341,5.0495,0.0,0.0,0.0,0.0,0.0,5.376,5.4626,5.5343,5.5673,5.5635,5.5275,5.5087,5.5021,5.4655,5.4048,5.3268,5.3268,5.2084,5.0189,5.0189,4.902,4.727,4.7527,4.7216,4.6737,4.7822,4.7673,0.0,0.0,0.0,0.0,0.0,0.0,0.0,0.0,0.0,0.0,3.5295,3.8684,4.2181,4.5962,4.9106,5.0938,5.0938,4.8606,4.5468,0.0,0.0,4.0833,4.2554,4.4936,4.7472,5.0139,5.2683,5.4163,5.4498,5.6002,5.6755,5.678,5.7648,5.8039,5.8056,5.8216,5.8216,5.8062,5.8228,5.8201,5.805,5.805,5.6626,5.4318,5.2626,5.1337,5.0265,4.8899,4.9529,5.0678,4.8625,4.8283,4.8302,4.5932,0.0,0.0,0.0,0.0,0.0,0.0,0.0,0.0,0.0,0.0,0.0,0.0,0.0,0.0,0.0,0.0,0.0,0.0,0.0,0.0,4.4994,4.7802,5.0476,5.264,5.328,5.3626,5.3953,5.353,5.2851,5.1981,5.1904,5.1505,5.0515,5.1202,5.1582,5.1428,5.2236,0.0,5.3972,5.4164,5.4645,5.5458,5.5612,5.5549,5.5212,0.0,0.0,5.4602,5.4543,5.4194,5.3672,5.3672,5.2531,5.0666,5.0666,4.9632,4.8012,4.7436,4.7509,4.796,4.8191,4.7523,4.6525,0.0,0.0,0.0,0.0,0.0,0.0,0.0,0.0,0.0,0.0,3.8065,4.1031,4.4013,4.5879,4.6725,4.6278,4.4316,0.0,0.0,4.1667,4.3199,4.455,4.7396,5.0096,5.2553,5.4245,5.5533,5.6398,5.7241,5.764,5.7667,5.8503,5.889,5.8921,5.9356,5.9317,5.8921,5.9371,5.9292,5.894,5.9377,5.8531,5.6915,5.6069,5.4684,5.315,5.2708,5.2549,5.2351,5.1082,5.0933,5.0856,4.8293,4.6331,4.4197,0.0,0.0,0.0,0.0,0.0,0.0,0.0,0.0,0.0,0.0,0.0,0.0,0.0,0.0,4.0165,0.0,0.0,4.5186,4.7745,5.0284,5.2529,5.4222,5.4838,5.5112,5.5112,5.4722,5.4126,5.3274,5.3197,5.2856,5.201,5.2313,5.2544,5.2544,5.2967,5.3606,5.4472,5.4491,5.4895,5.5689,5.5708,5.5501,5.5107,5.4902,5.4579,5.4135,5.3943,5.372,5.3495,5.3495,5.2699,5.1334,5.0537,4.9711,4.8866,4.8021,4.7948,4.8296,4.8296,4.7399,4.6211,0.0,0.0,0.0,0.0,0.0,0.0,0.0,0.0,0.0,0.0,0.0,3.9588,4.1623,4.2297,4.2258,0.0,0.0,0.0,0.0,4.3388,4.5623,4.6754,4.9769,5.2464,5.4676,5.5525,5.6722,5.8294,5.846,5.8534,5.8544,5.9375,5.9752,5.9771,6.0487,6.041,5.979,6.0506,6.0383,5.9811,6.0517,6.0377,5.9665,5.8838,5.7453,5.5939,5.5766,5.4068,5.1923,5.2101,5.2038,5.1563,4.9683,4.8971,4.787,4.2938,4.2135,0.0,0.0,0.0,0.0,0.0,0.0,0.0,0.0,0.0,3.9238,4.0089,4.0916,4.2166,4.4393,4.5648,4.7398,5.0668,5.2587,5.4222,5.5747,5.5958,5.5958,5.5958,5.5805,5.5381,5.4587,5.4491,5.4145,5.3274,5.3351,5.3453,5.3453,5.3606,5.401,5.4703,5.4722,5.503,5.5689,5.5708,5.5472,5.4979,5.4648,5.4204,5.3663,5.3349,5.3196,5.3196,5.3031,5.2601,5.1895,5.0427,4.9729,4.9555,4.9003,4.86,4.8296,4.8296,4.7379,4.6232,0.0,0.0,0.0,0.0,0.0,0.0,0.0,0.0,0.0,0.0,0.0,0.0,0.0,0.0,0.0,0.0,0.0,0.0,4.3996,4.571,4.7774,5.0309,5.2041,5.3774,5.553,5.6401,5.7338,5.8302,5.9023,5.9377,5.9375,6.025,6.0646,6.0666,6.0762,6.0742,6.0666,6.0762,6.0748,6.0652,6.0768,6.0748,6.0556,5.9685,5.8319,5.6747,5.5978,5.4068,5.2019,5.2794,5.2544,5.1986,5.2472,5.2097,5.0625,4.6306,0.0,4.1177,3.7657,3.5815,3.5376,3.7353,3.735,3.8004,0.0,0.0,4.2758,4.3566,4.4436,4.5359,4.6408,4.7913,4.9837,5.2491,5.4337,5.5766,5.6709,5.6843,5.6843,5.6843,5.617,5.5381,5.4587,5.4491,5.4145,5.3274,5.3914,5.4357,5.4357,5.503,5.5478,5.5555,5.5574,5.5612,5.5708,5.5708,5.5319,5.4574,5.4527,5.4077,5.3272,5.3227,5.3196,5.3159,5.2435,5.2079,5.1932,5.1022,5.0243,4.9656,5.027,4.9609,4.8296,4.8296,4.7728,4.6984,0.0,0.0,0.0,0.0,0.0,0.0,0.0,0.0,0.0,0.0,0.0,0.0,0.0,0.0,0.0,0.0,0.0,0.0,4.3127,4.6994,4.9973,5.1672,5.4187,5.5816,5.6439,5.7767,5.8877,5.9756,6.0094,6.0262,6.0269,6.0627,6.0806,6.0806,6.0806,6.0806,6.0806,6.0806,6.0806,6.0806,6.0806,6.0498,5.9954,5.9127,5.7453,5.5439,5.4568,5.2933,0.0,0.0,5.1087,5.1279,5.1635,5.0855,4.9263,4.6525,4.4595,0.0,4.0346,3.9187,0.0,0.0,3.9604,4.085,4.2489,4.3335,4.4047,4.4878,4.6533,4.8072,4.8952,5.0471,5.2279,0.0,5.5665,5.6915,5.8261,5.7613,5.6997,5.6992,5.5818,5.5049,5.5189,5.5208,5.5049,5.4684,5.4991,5.5208,5.5208,5.5516,5.5939,5.6439,5.5958,5.5939,5.6439,5.5958,5.5524,5.5193,5.4729,5.4285,5.3875,5.3416,5.3196,5.3177,5.2829,5.2711,5.2637,5.183,5.1308,5.0977,5.0857,5.037,4.9701,4.9233,4.8233,4.7168,0.0,0.0,0.0,0.0,0.0,0.0,0.0,0.0,0.0,0.0,0.0,0.0,0.0,0.0,0.0,0.0,0.0,0.0,0.0,4.7298,5.1172,5.2606,5.5536,5.7316,5.769,5.8877,5.9935,6.0806,6.0806,6.0806,6.0806,6.0806,6.0806,6.0806,6.0806,6.0806,6.0806,6.0806,6.0806,6.0806,6.0806,6.0146,5.905,5.7992,5.5703,5.301,5.2375,5.076,0.0,0.0,4.7918,4.8673,4.8947,4.8548,4.7707,4.6244,4.4869,4.3427,4.1628,0.0,0.0,4.0292,4.1893,4.3682,4.3293,4.4316,4.5605,4.6475,4.8129,4.9721,5.0842,5.2222,0.0,5.5126,5.6492,5.7698,5.8665,5.7767,5.6824,5.6371,5.4813,5.401,5.4607,5.5088,5.5458,5.5689,5.5708,5.5805,5.6055,5.6055,5.6459,5.7324,5.6747,5.6728,5.7343,5.6728,5.6282,5.6015,5.5438,5.5014,5.4693,5.3904,5.3526,5.3526,5.3306,5.3196,5.3159,5.2564,5.2207,5.1969,5.161,5.1177,5.0765,5.039,4.9205,4.7838,0.0,0.0,0.0,0.0,0.0,0.0,0.0,0.0,0.0,0.0,0.0,0.0,0.0,0.0,0.0,0.0,0.0,0.0,0.0,4.6394,5.0812,5.3443,5.5766,5.7767,5.9396,5.9473,5.9935,6.0806,6.0806,6.0806,6.0806,6.0806,6.0806,6.0806,6.0806,6.0806,6.0806,6.0806,6.0806,6.0806,6.0806,5.98,5.814,5.6434,5.3188,4.9548,4.951,0.0,0.0,0.0,4.2714,4.359,4.4499,4.5903,0.0,4.6161,4.4082,0.0,0.0,0.0,4.1793,4.1735,4.3643,4.5744,4.6562,4.7389,4.824,4.9106,4.9356,4.9894,5.1563,5.2601,5.3491,5.4395,5.6626,5.7973,5.719,5.7036,5.6401,5.4761,5.3044,5.1981,0.0,5.3549,5.4857,5.5651,5.5708,5.6074,5.6926,5.6964,5.7363,5.8223,5.8236,5.8236,5.8256,5.8236,5.7755,5.6863,5.6853,5.6379,5.5548,5.473,5.4363,5.4326,5.3544,5.3196,5.3196,5.3177,5.2711,5.2079,5.2829,5.2168,5.0894,5.1657,5.0904,4.9399,0.0,0.0,0.0,0.0,0.0,0.0,0.0,0.0,0.0,0.0,0.0,0.0,0.0,0.0,0.0,0.0,0.0,0.0,0.0,4.6219,4.9769,5.1797,5.5253,5.7354,5.7824,5.8934,5.9935,6.0806,6.0806,6.0806,6.0806,6.0806,6.0806,6.0806,6.0806,6.0806,6.0806,6.0806,6.0806,6.071,5.9588,5.8467,5.714,5.4274,5.0581,4.6647,0.0,0.0,0.0,0.0,0.0,0.0,4.154,0.0,0.0,4.0961,0.0,0.0,0.0,0.0,4.3716,4.4192,4.5797,4.7336,4.762,4.8355,4.8875,4.8606,4.899,4.9394,4.937,5.0567,5.1991,5.3414,5.578,5.7536,5.7819,5.7857,5.703,5.4761,5.3472,0.0,0.0,0.0,0.0,5.5555,5.5708,5.6319,5.778,5.7857,5.8242,5.9069,5.8583,5.8569,5.9088,5.8569,5.8092,5.7695,5.7104,5.6124,5.4785,5.4528,5.4106,5.3581,5.3324,5.3196,5.3196,5.3196,5.3031,5.2821,5.3086,5.2865,5.2352,5.2087,5.1657,5.0996,0.0,0.0,0.0,0.0,0.0,0.0,0.0,0.0,0.0,0.0,0.0,0.0,0.0,0.0,0.0,0.0,0.0,0.0,0.0,0.0,4.7495,4.9481,5.2373,5.433,5.5164,5.5645,5.6607,5.8088,5.8401,5.8863,5.9459,5.9767,5.9915,5.9915,5.9915,5.9915,5.9896,5.9575,5.9094,5.8401,5.6703,5.497,5.3084,4.9961,4.6393,0.0,0.0,0.0,0.0,0.0,0.0,0.0,0.0,0.0,0.0,0.0,0.0,0.0,0.0,4.5147,4.6891,4.7658,4.8894,4.9832,4.9524,4.9663,4.9529,4.8332,4.8317,4.8336,4.7774,4.8586,4.9894,5.1568,5.3477,5.5151,5.6319,5.6486,5.5876,5.4222,5.3274,0.0,0.0,0.0,0.0,5.5107,5.5824,5.6786,5.8223,5.8563,5.9108,5.9935,5.9454,5.9435,5.9954,5.9284,5.874,5.8314,5.7585,5.6693,5.5666,5.5078,5.4546,5.4032,5.3453,5.3196,5.3196,5.3196,5.3196,5.3196,5.3196,5.3196,5.3141,5.2619,5.2262,5.1803,0.0,0.0,0.0,0.0,0.0,0.0,0.0,0.0,0.0,0.0,0.0,0.0,0.0,0.0,0.0,0.0,0.0,0.0,0.0,0.0,0.0,4.6509,4.749,4.912,5.1596,5.0164,5.0606,5.3063,5.3895,5.5112,5.6695,5.7511,5.7909,5.7909,5.7909,5.7909,5.7852,5.6978,5.567,5.401,5.2231,4.961,4.6537,4.3989,0.0,0.0,0.0,0.0,0.0,0.0,0.0,0.0,0.0,0.0,0.0,0.0,0.0,4.4997,4.6675,4.8909,5.0957,5.1755,5.2544,5.2909,5.2043,5.1183,5.0072,4.8336,4.7293,4.6697,0.0,0.0,4.737,4.9067,5.0207,5.1457,5.3106,5.3371,5.3351,0.0,0.0,0.0,0.0,0.0,0.0,5.4413,0.0,5.7379,5.8329,5.9123,5.9911,6.0738,6.0794,6.0806,6.0806,6.0317,5.9611,5.8694,5.8216,5.7978,5.7886,5.6356,5.5622,5.5456,5.3922,5.3232,5.3196,5.3196,5.3196,5.3196,5.3196,5.3196,5.3196,5.3196,5.2729,5.195,0.0,0.0,0.0,0.0,0.0,0.0,0.0,0.0,0.0,0.0,0.0,0.0,0.0,0.0,0.0,0.0,0.0,0.0,0.0,0.0,0.0,0.0,0.0,0.0,0.0,0.0,0.0,0.0,5.1553,5.188,5.2304,5.2534,5.265,5.265,5.265,5.265,5.2573,5.1707,5.0721,4.9519,0.0,4.5457,4.3902,0.0,0.0,0.0,0.0,0.0,0.0,0.0,0.0,0.0,0.0,0.0,4.1514,0.0,0.0,4.6718,4.8356,5.0154,5.1793,5.2659,5.2544,5.2024,5.1183,4.9837,4.8279,4.659,4.5086,4.387,0.0,0.0,0.0,4.8163,5.1298,0.0,5.4914,5.5612,0.0,0.0,0.0,5.4241,5.2986,5.4587,0.0,0.0,5.5868,5.741,5.9538,5.9843,6.0061,6.0271,6.0622,6.0806,6.0806,5.9996,5.9275,5.8694,5.8216,5.7685,5.7086,5.6675,5.5849,5.4675,5.4271,5.3746,5.3196,5.3196,5.3196,5.3196,5.3196,5.3196,5.3196,5.3196,5.3067,5.2847,0.0,0.0,0.0,0.0,0.0,0.0,0.0,0.0,0.0,0.0,0.0,0.0,0.0,0.0,0.0,0.0,0.0,0.0,0.0,0.0,0.0,0.0,0.0,0.0,0.0,0.0,0.0,0.0,0.0,0.0,4.7898,4.8283,4.8264,4.7898,4.7898,4.7706,4.7317,4.6477,0.0,0.0,0.0,0.0,0.0,0.0,0.0,0.0,0.0,0.0,0.0,0.0,0.0,3.8079,3.9588,4.1191,4.2832,4.4442,0.0,4.8986,5.062,5.2299,5.3683,5.4184,5.3664,5.2626,5.1053,4.9356,4.7413,4.4994,4.3451,0.0,0.0,0.0,0.0,0.0,0.0,0.0,5.376,5.478,5.5266,0.0,5.5766,0.0,5.4675,5.6395,5.7223,0.0,5.7001,5.7932,5.9154,5.9572,5.9789,5.9789,6.0047,6.0096,5.9878,5.9373,5.8855,5.8386,5.813,5.7758,5.7317,5.6957,5.6315,5.5409,0.0,5.4142,5.3691,5.3343,5.3196,5.3196,5.3196,5.3196,5.3196,5.3196,5.3196,5.3196,0.0,0.0,0.0,0.0,0.0,0.0,0.0,0.0,0.0,0.0,0.0,0.0,0.0,0.0,0.0,0.0,0.0,0.0,0.0,0.0,0.0,0.0,0.0,0.0,0.0,0.0,0.0,0.0,0.0,0.0,0.0,0.0,0.0,0.0,0.0,0.0,0.0,0.0,0.0,0.0,0.0,0.0,0.0,0.0,0.0,0.0,0.0,0.0,0.0,0.0,3.7851,3.8726,4.169,4.3288,4.4522,4.6908,4.923,5.138,5.2953,5.4511,5.5708,5.5708,5.4914,5.351,5.1072,4.9009,4.6721,4.3566,0.0,4.1639,4.1639,4.1908,4.297,4.5513,0.0,4.8697,5.1947,5.3063,5.4107,5.5689,5.6593,5.6922,5.6506,5.7723,5.8392,5.8028,5.8553,5.8672,5.82,5.8888,5.9347,5.9389,5.9389,5.9158,5.8705,5.8694,5.8453,5.7997,5.7997,5.7997,5.7978,5.7281,5.6902,5.6719,0.0,0.0,5.4491,5.3581,5.3269,5.3361,5.3361,5.3287,5.3232,5.3434,5.3453,5.3379,0.0,0.0,0.0,0.0,0.0,0.0,0.0,0.0,0.0,0.0,0.0,0.0,0.0,0.0,0.0,0.0,0.0,0.0,0.0,0.0,0.0,0.0,0.0,0.0,0.0,0.0,0.0,0.0,0.0,0.0,0.0,0.0,0.0,0.0,0.0,0.0,0.0,0.0,0.0,0.0,0.0,0.0,0.0,0.0,0.0,0.0,0.0,0.0,0.0,0.0,4.1247,4.357,4.4111,4.6217,4.8716,4.9898,5.1443,5.2991,5.3991,5.4972,5.5708,5.5708,5.401,5.187,5.0048,4.7201,0.0,0.0,0.0,4.0723,4.0723,4.2455,0.0,4.7259,0.0,0.0,0.0,0.0,5.5651,0.0,0.0,0.0,0.0,0.0,0.0,0.0,0.0,0.0,5.8611,5.8741,5.899,5.9399,5.9389,5.9158,5.8705,5.8694,5.8453,5.7997,5.7997,5.7997,5.7997,5.785,5.7428,5.6756,0.0,0.0,5.5273,5.3812,5.3581,5.4197,5.4197,5.3783,5.3361,5.4693,5.4748,5.4289,0.0,0.0,0.0,0.0,0.0,0.0,0.0,0.0,0.0,0.0,0.0,0.0,0.0,0.0,0.0,0.0,0.0,0.0,0.0,0.0,0.0,0.0,0.0,0.0,0.0,0.0,0.0,0.0,0.0,0.0,0.0,0.0,0.0,0.0,0.0,0.0,0.0,0.0,0.0,0.0,0.0,0.0,0.0,0.0,0.0,0.0,0.0,0.0,0.0,0.0,4.1758,4.5136,4.647,4.8224,5.0146,5.1812,5.3105,5.4154,5.4914,5.5747,5.6266,5.5805,5.3774,5.1351,4.9221,0.0,0.0,0.0,0.0,3.9996,4.0419,0.0,0.0,0.0,0.0,0.0,0.0,0.0,0.0,0.0,0.0,0.0,0.0,0.0,0.0,0.0,0.0,0.0,0.0,5.834,5.8439,5.8654,5.8664,5.8549,5.834,5.834,5.8216,5.7997,5.7997,5.7997,5.7997,5.7997,5.7795,5.7354,0.0,0.0,5.5475,5.3867,5.3434,5.382,5.4234,5.4161,5.3977,5.5163,5.5365,5.5089,0.0,0.0,0.0,0.0,0.0,0.0,0.0,0.0,0.0,0.0,0.0,0.0,0.0,0.0,0.0,0.0,0.0,0.0,0.0,0.0,0.0,0.0,0.0,0.0,0.0,0.0,0.0,0.0,0.0,0.0,0.0,0.0,0.0,0.0,0.0,0.0,0.0,0.0,0.0,0.0,0.0,0.0,0.0,0.0,0.0,0.0,0.0,0.0,0.0,0.0,4.0917,4.429,4.6934,4.889,5.0591,5.2526,5.3952,5.5091,5.5827,5.6646,5.7074,5.6209,5.3914,5.1231,4.8678,4.5351,0.0,0.0,3.9861,3.955,4.0342,0.0,0.0,0.0,0.0,0.0,0.0,0.0,0.0,0.0,0.0,0.0,0.0,0.0,0.0,0.0,0.0,0.0,0.0,5.7997,5.7997,5.7997,5.7997,5.7997,5.7997,5.7997,5.7997,5.7997,5.7997,5.7997,5.7997,5.7997,5.7997,5.7923,0.0,0.0,0.0,5.4381,5.371,5.3783,5.4601,5.4693,5.4546,5.5695,5.6007,5.5879,0.0,0.0,0.0,0.0,0.0,0.0,0.0,0.0,0.0,0.0,0.0,0.0,0.0,0.0,0.0,0.0,0.0,0.0,0.0,0.0,0.0,0.0,0.0,0.0,0.0,0.0,0.0,0.0,0.0,0.0,0.0,0.0,0.0,0.0,0.0,0.0,0.0,0.0,0.0,0.0,0.0,0.0,0.0,0.0,0.0,0.0,0.0,0.0,0.0,0.0,0.0,4.0555,4.3243,4.7236,5.0981,5.1324,0.0,0.0,5.6799,5.7599,5.7973,5.7093,5.4376,5.1231,4.8678,0.0,0.0,4.0704,3.9861,3.955,4.0342,0.0,0.0,0.0,0.0,4.8351,0.0,0.0,0.0,0.0,0.0,0.0,0.0,0.0,0.0,0.0,0.0,0.0,0.0,5.7997,5.7997,5.7997,5.7997,5.7997,5.7997,5.7997,5.7997,5.7997,5.7997,5.7997,5.7997,5.7997,5.7997,5.7941,0.0,0.0,0.0,5.6044,5.5383,5.5456,5.6271,5.5702,5.4675,5.6932,5.7317,5.6792,0.0,0.0,0.0,0.0,0.0,0.0,0.0,0.0,0.0,0.0,0.0,0.0,0.0,0.0,0.0,0.0,0.0,0.0,0.0,0.0,0.0,0.0,0.0,0.0,0.0,0.0,0.0,0.0,0.0,0.0,0.0,0.0,0.0,0.0,0.0,0.0,0.0,0.0,0.0,0.0,0.0,0.0,0.0,0.0,0.0,0.0,0.0,0.0,0.0,0.0,0.0,0.0,4.0072,4.3113,0.0,0.0,5.2647,5.4745,5.6678,5.8098,5.8704,5.7343,5.4073,5.0644,4.8562,0.0,4.0204,3.9858,3.9107,3.878,3.9627,0.0,0.0,0.0,0.0,0.0,0.0,0.0,0.0,0.0,0.0,0.0,0.0,0.0,0.0,0.0,0.0,0.0,0.0,0.0,5.7997,5.7997,5.7997,5.7997,5.7997,5.7997,5.7997,5.7997,5.7997,5.7997,5.7997,5.7997,5.7997,0.0,0.0,0.0,0.0,5.6062,5.5603,5.5677,5.6492,5.6407,5.6014,5.7464,5.7795,5.7574,0.0,0.0,0.0,0.0,0.0,0.0,0.0,0.0,0.0,0.0,0.0,0.0,0.0,0.0,0.0,0.0,0.0,0.0,0.0,0.0,0.0,0.0,0.0,0.0,0.0,0.0,0.0,0.0,0.0,0.0,0.0,0.0,0.0,0.0,0.0,0.0,0.0,0.0,0.0,0.0,0.0,0.0,0.0,0.0,0.0,0.0,0.0,0.0,0.0,0.0,0.0,0.0,0.0,0.0,0.0,0.0,5.1,5.3418,5.5503,5.7571,5.8742,5.7036,5.3631,5.0188,0.0,0.0,3.9377,3.9608,3.878,3.8334,3.9454,4.0835,4.2081,0.0,0.0,4.4547,0.0,0.0,0.0,0.0,0.0,0.0,0.0,0.0,0.0,0.0,0.0,0.0,0.0,0.0,5.8253,5.7997,5.7997,5.7997,5.7997,5.7997,5.7997,5.7997,5.7997,5.7997,5.7997,5.7997,5.7997,0.0,0.0,0.0,0.0,5.6539,5.6172,5.6033,5.684,5.7012,5.6902,5.7703,5.7997,5.7997,0.0,0.0,0.0,0.0,0.0,0.0,0.0,0.0,0.0,0.0,0.0,0.0,0.0,0.0,0.0,0.0,0.0,0.0,0.0,0.0,0.0,0.0,0.0,0.0,0.0,0.0,0.0,0.0,0.0,0.0,0.0,0.0,0.0,0.0,0.0,0.0,0.0,0.0,0.0,0.0,0.0,0.0,0.0,0.0,0.0,0.0,0.0,0.0,0.0,0.0,0.0,0.0,0.0,0.0,0.0,0.0,4.815,5.2145,5.3151,5.5815,5.7896,5.6145,5.3188,5.0034,0.0,0.0,3.9531,4.0323,3.9165,3.8507,4.0189,4.12,4.2081,0.0,0.0,0.0,0.0,0.0,0.0,0.0,0.0,0.0,0.0,0.0,0.0,0.0,0.0,0.0,0.0,0.0,5.8811,5.8033,5.7997,5.7997,5.7997,5.7997,5.7997,5.7997,5.7997,5.7997,5.7997,5.7997,0.0,0.0,0.0,0.0,0.0,5.7978,5.7501,5.6866,5.7666,5.7501,5.6902,5.7703,5.7997,5.7997,0.0,0.0,0.0,0.0,0.0,0.0,0.0,0.0,0.0,0.0,0.0,0.0,0.0,0.0,0.0,0.0,0.0,0.0,0.0,0.0,0.0,0.0,0.0,0.0,0.0,0.0,0.0,0.0,0.0,0.0,0.0,0.0,0.0,0.0,0.0,0.0,0.0,0.0,0.0,0.0,0.0,0.0,0.0,0.0,0.0,0.0,0.0,0.0,0.0,0.0,0.0,0.0,0.0,0.0,0.0,0.0,0.0,0.0,5.0216,5.1929,5.2823,5.1688,4.9283,4.6706,4.4759,0.0,3.8469,3.8742,3.8373,3.8334,3.9473,4.0358,4.157,0.0,0.0,0.0,0.0,0.0,0.0,0.0,0.0,0.0,0.0,0.0,0.0,0.0,0.0,0.0,0.0,0.0,0.0,5.8033,5.7997,5.7997,5.7997,5.7997,5.7997,5.7997,5.7997,5.7997,5.7997,0.0,0.0,0.0,0.0,0.0,0.0,5.7997,5.785,5.7648,5.7905,5.7831,5.7648,5.7905,5.7997,5.7997,0.0,0.0,0.0,0.0,0.0,0.0,0.0,0.0,0.0,0.0,0.0,0.0,0.0,0.0,0.0,0.0,0.0,0.0,0.0,0.0,0.0,0.0,0.0,0.0,0.0,0.0,0.0,0.0,0.0,0.0,0.0,0.0,0.0,0.0,0.0,0.0,0.0,0.0,0.0,0.0,0.0,0.0,0.0,0.0,0.0,0.0,0.0,0.0,0.0,0.0,0.0,0.0,0.0,0.0,0.0,0.0,0.0,0.0,0.0,4.8633,4.9514,4.8663,4.6759,0.0,0.0,0.0,3.818,3.8819,3.843,3.8331,3.9401,4.0256,4.143,0.0,0.0,0.0,0.0,0.0,0.0,0.0,0.0,0.0,0.0,0.0,0.0,0.0,0.0,0.0,0.0,0.0,0.0,5.8033,5.7997,5.7997,5.7997,5.7997,5.7997,5.7997,5.7997,5.7997,5.7997,0.0,0.0,0.0,0.0,0.0,0.0,5.7997,5.7997,5.7997,5.7997,5.7997,5.7997,5.7997,5.7997,5.7997,0.0,0.0,0.0,0.0,0.0,0.0,0.0,0.0,0.0,0.0,0.0,0.0,0.0,0.0,0.0,0.0,0.0,0.0,0.0,0.0,0.0,0.0,0.0,0.0,0.0,0.0,0.0,0.0,4.0746,4.1685,4.3278,0.0,0.0,0.0,0.0,0.0,0.0,0.0,0.0,0.0,0.0,0.0,0.0,0.0,0.0,0.0,0.0,0.0,0.0,0.0,0.0,0.0,0.0,0.0,0.0,0.0,0.0,0.0,0.0,0.0,0.0,0.0,0.0,0.0,0.0,0.0,0.0,3.9992,3.9088,3.8447,3.9957,4.0802,4.1627,0.0,0.0,0.0,0.0,0.0,0.0,0.0,0.0,0.0,0.0,0.0,0.0,0.0,0.0,0.0,0.0,0.0,0.0,0.0,5.7997,5.7997,5.7997,5.7997,5.7997,5.7997,5.7997,5.7997,5.7997,0.0,0.0,0.0,0.0,0.0,0.0,5.7997,5.7997,5.7997,5.7997,5.7997,5.7997,5.7997,5.7997,5.7997,0.0,0.0,0.0,0.0,0.0,0.0,0.0,0.0,0.0,0.0,0.0,0.0,0.0,0.0,0.0,0.0,0.0,0.0,0.0,0.0,0.0,0.0,0.0,0.0,0.0,0.0,0.0,4.0496,4.3113,4.4609,4.4994,4.434,0.0,0.0,0.0,0.0,0.0,0.0,0.0,0.0,0.0,0.0,0.0,0.0,0.0,0.0,0.0,0.0,0.0,0.0,0.0,0.0,0.0,0.0,0.0,0.0,3.7988,0.0,0.0,0.0,0.0,0.0,0.0,0.0,0.0,0.0,0.0,0.0,0.0,3.8704,4.0978,4.1346,4.2086,0.0,0.0,0.0,0.0,0.0,0.0,0.0,0.0,0.0,0.0,0.0,0.0,0.0,0.0,0.0,0.0,0.0,0.0,0.0,5.7997,5.7997,5.7997,5.7997,5.7997,5.7997,5.7997,5.7997,0.0,0.0,0.0,0.0,0.0,0.0,0.0,5.7997,5.7997,5.7997,5.7997,5.7997,5.7997,5.7997,5.7997,5.7997,0.0,0.0,0.0,0.0,0.0,0.0,0.0,0.0,0.0,0.0,0.0,0.0,0.0,0.0,0.0,0.0,0.0,0.0,0.0,0.0,0.0,0.0,0.0,0.0,0.0,0.0,0.0,0.0,0.0,4.5051,0.0,0.0,0.0,0.0,0.0,0.0,0.0,0.0,0.0,0.0,0.0,0.0,0.0,0.0,0.0,0.0,3.2468,3.3506,0.0,3.6119,3.7526,3.8373,0.0,0.0,0.0,0.0,3.71,0.0,0.0,0.0,0.0,0.0,0.0,0.0,0.0,0.0,0.0,0.0,0.0,3.8612,4.0641,4.1053,0.0,0.0,0.0,0.0,0.0,0.0,0.0,0.0,0.0,0.0,0.0,0.0,0.0,0.0,0.0,0.0,0.0,0.0,0.0,0.0,0.0,5.7997,5.7997,5.7997,5.7997,5.7997,5.7997,5.7997,0.0,0.0,0.0,0.0,0.0,0.0,5.7997,5.7997,5.7997,5.7997,5.7997,5.7997,5.7997,5.7997,5.7997,5.7997,0.0,0.0,0.0,0.0,0.0,0.0,0.0,0.0,0.0,0.0,0.0,0.0,0.0,0.0,0.0,0.0,0.0,0.0,0.0,0.0,0.0,0.0,0.0,0.0,0.0,0.0,0.0,0.0,0.0,0.0,0.0,0.0,0.0,0.0,0.0,0.0,0.0,0.0,0.0,0.0,0.0,0.0,0.0,0.0,0.0,0.0,0.0,0.0,0.0,3.643,3.8261,3.9107,3.7969,0.0,0.0,0.0,0.0,0.0,0.0,0.0,0.0,0.0,0.0,0.0,0.0,0.0,0.0,0.0,0.0,0.0,0.0,0.0,0.0,0.0,0.0,0.0,0.0,0.0,0.0,0.0,0.0,0.0,0.0,0.0,0.0,0.0,0.0,0.0,0.0,0.0,0.0,0.0,0.0,0.0,5.7997,5.7997,5.7997,5.7997,5.7997,5.7997,5.7997,0.0,0.0,0.0,0.0,0.0,5.7997,5.7997,5.7997,5.7997,5.7997,5.7997,5.7997,5.7997,5.7997,5.7997,0.0,0.0,0.0,0.0,0.0,0.0,0.0,0.0,0.0,0.0,0.0,0.0,0.0,0.0,0.0,0.0,0.0,0.0,0.0,0.0,0.0,0.0,0.0,0.0,0.0,0.0,0.0,0.0,0.0,0.0,4.6908,4.7601,4.5259,0.0,0.0,0.0,0.0,0.0,0.0,0.0,0.0,0.0,0.0,0.0,0.0,0.0,0.0,0.0,0.0,3.4606,3.6799,3.8896,3.6619,0.0,0.0,0.0,0.0,0.0,3.9338,4.1377,4.2374,4.0223,4.0758,4.1389,0.0,0.0,0.0,0.0,0.0,0.0,0.0,0.0,0.0,0.0,0.0,0.0,0.0,0.0,0.0,0.0,0.0,0.0,0.0,0.0,0.0,0.0,0.0,0.0,0.0,0.0,0.0,0.0,0.0,0.0,0.0,5.7997,5.7997,5.7997,5.7997,5.7997,5.7997,5.7997,0.0,0.0,0.0,0.0,5.7997,5.7997,5.7997,5.7997,5.7997,5.7997,5.7997,5.7997,5.7997,5.7997,0.0,0.0,0.0,0.0,0.0,0.0,0.0,0.0,0.0,0.0,0.0,0.0,0.0,0.0,0.0,0.0,0.0,0.0,0.0,0.0,0.0,0.0,0.0,0.0,0.0,0.0,0.0,0.0,0.0,4.6663,4.7505,4.5581,4.297,3.9727,0.0,0.0,0.0,0.0,0.0,0.0,0.0,0.0,0.0,0.0,0.0,0.0,0.0,0.0,0.0,0.0,3.6164,3.8238,3.6157,0.0,0.0,0.0,0.0,0.0,3.7488,3.9392,4.0762,3.9588,0.0,4.3015,4.0867,4.0249,0.0,0.0,0.0,0.0,0.0,0.0,0.0,0.0,0.0,0.0,0.0,0.0,0.0,0.0,0.0,0.0,0.0,0.0,0.0,0.0,0.0,0.0,0.0,0.0,0.0,0.0,0.0,0.0,0.0,5.7997,5.7997,5.7997,5.7997,5.7997,5.7997,5.7997,5.7997,0.0,0.0,5.7997,5.7997,5.7997,5.7997,5.7997,5.7997,5.7997,5.7997,5.7997,5.7997,5.7997,0.0,0.0,0.0,0.0,0.0,0.0,0.0,0.0,0.0,0.0,0.0,0.0,0.0,0.0,0.0,0.0,0.0,0.0,0.0,0.0,0.0,0.0,0.0,0.0,0.0,0.0,0.0,4.4609,4.5667,4.6836,4.8024,4.4177,4.1277,0.0,0.0,0.0,0.0,0.0,0.0,0.0,0.0,0.0,0.0,0.0,0.0,0.0,0.0,0.0,0.0,0.0,0.0,0.0,0.0,0.0,0.0,0.0,3.5788,3.5865,3.6273,3.7815,3.9358,0.0,0.0,4.3926,4.235,0.0,0.0,0.0,0.0,0.0,0.0,0.0,0.0,0.0,0.0,0.0,0.0,0.0,0.0,0.0,0.0,0.0,0.0,0.0,0.0,0.0,0.0,0.0,0.0,0.0,0.0,0.0,0.0,0.0,0.0,5.7997,5.7997,5.7997,5.7997,5.7997,5.7997,5.7997,5.7997,5.7997,5.7997,5.7997,5.7997,5.7997,5.7997,5.7997,5.7997,5.7997,5.7997,5.7997,5.7997,5.7997,0.0,0.0,0.0,0.0,0.0,0.0,0.0,0.0,0.0,0.0,0.0,0.0,0.0,0.0,0.0,0.0,0.0,0.0,0.0,0.0,0.0,0.0,0.0,0.0,0.0,4.2854,4.3763,4.5518,4.7124,4.7985,4.8043,4.5374,4.2397,0.0,0.0,0.0,0.0,0.0,0.0,0.0,0.0,0.0,0.0,0.0,0.0,0.0,0.0,0.0,0.0,0.0,0.0,0.0,0.0,0.0,0.0,0.0,3.6619,3.6965,3.8588,3.9165,3.9473,4.0227,4.1227,0.0,4.3771,4.3206,0.0,4.4309,0.0,0.0,0.0,0.0,0.0,0.0,0.0,0.0,0.0,0.0,0.0,0.0,0.0,0.0,0.0,0.0,0.0,0.0,0.0,0.0,0.0,0.0,0.0,0.0,0.0,0.0,0.0,5.7997,5.7997,5.7997,5.7997,5.7997,5.7997,5.7997,5.7997,5.7997,5.7997,5.7997,5.7997,5.7997,5.7997,5.7997,5.7997,5.7997,5.7997,5.7997,5.7997,5.7997,0.0,0.0,0.0,0.0,0.0,0.0,0.0,0.0,0.0,0.0,0.0,0.0,0.0,0.0,0.0,0.0,0.0,0.0,0.0,0.0,0.0,0.0,0.0,3.9992,4.1454,4.357,4.5475,4.7144,4.8336,4.8375,4.7293,4.4197,0.0,0.0,0.0,0.0,0.0,0.0,0.0,0.0,0.0,0.0,0.0,0.0,0.0,0.0,0.0,0.0,0.0,0.0,0.0,0.0,0.0,0.0,0.0,0.0,3.6308,3.685,3.7504,3.8469,3.9377,3.9688,4.0993,0.0,0.0,4.4092,4.4371,4.5054,0.0,0.0,0.0,0.0,0.0,0.0,0.0,0.0,0.0,0.0,0.0,0.0,0.0,0.0,0.0,0.0,0.0,0.0,0.0,0.0,0.0,0.0,0.0,0.0,0.0,0.0,0.0,0.0,5.7997,5.7997,5.7997,5.7997,5.7997,5.7997,5.7997,5.7997,5.7997,5.7997,5.7997,5.7997,5.7997,5.7997,5.7997,5.7997,5.7997,5.7997,5.7997,5.7997,0.0,0.0,0.0,0.0,0.0,0.0,0.0,0.0,0.0,0.0,0.0,0.0,0.0,0.0,0.0,0.0,0.0,0.0,0.0,0.0,0.0,0.0,0.0,3.9396,4.0477,4.357,4.5744,4.6894,4.8048,4.774,4.6024,0.0,0.0,0.0,0.0,0.0,0.0,0.0,0.0,0.0,0.0,0.0,0.0,0.0,0.0,0.0,0.0,0.0,0.0,0.0,0.0,0.0,0.0,0.0,0.0,0.0,0.0,3.6892,3.6447,3.7137,3.8166,3.8917,4.02,0.0,4.3956,4.504,4.5815,4.6632,0.0,0.0,0.0,0.0,0.0,0.0,0.0,0.0,0.0,0.0,0.0,0.0,0.0,0.0,0.0,0.0,0.0,0.0,0.0,0.0,0.0,0.0,0.0,0.0,0.0,0.0,0.0,0.0,5.7997,5.7997,5.7997,5.7997,5.7997,5.774,5.7758,5.7997,5.7721,5.7776,5.7997,5.7997,5.7997,5.7997,5.7997,5.7831,5.7648,5.7905,5.7685,5.7292,0.0,0.0,0.0,0.0,0.0,0.0,0.0,0.0,0.0,0.0,0.0,0.0,0.0,0.0,0.0,0.0,0.0,0.0,0.0,0.0,0.0,0.0,0.0,3.8761,4.0439,4.2955,4.4278,4.4316,4.6043,4.5985,4.4239,0.0,0.0,0.0,0.0,0.0,0.0,0.0,0.0,0.0,0.0,0.0,0.0,0.0,0.0,0.0,0.0,0.0,0.0,0.0,0.0,0.0,0.0,0.0,0.0,0.0,3.7121,3.7296,3.5873,3.5301,3.5702,3.8095,3.8708,0.0,4.4719,4.6121,4.7111,4.959,0.0,0.0,0.0,0.0,0.0,0.0,0.0,0.0,0.0,0.0,0.0,0.0,0.0,0.0,0.0,0.0,0.0,0.0,0.0,0.0,0.0,0.0,0.0,0.0,0.0,0.0,0.0,0.0,5.7978,5.7978,5.7978,5.7978,5.796,5.7171,5.7226,5.7923,5.7134,5.7244,5.7978,5.7978,5.7978,5.7978,5.7978,5.7483,5.6884,5.7685,5.698,5.5713,0.0,0.0,0.0,0.0,0.0,0.0,0.0,0.0,0.0,0.0,0.0,0.0,0.0,0.0,0.0,0.0,0.0,0.0,0.0,0.0,0.0,0.0,0.0,0.0,0.0,0.0,4.3109,4.612,4.6028,4.4797,0.0,0.0,0.0,3.6619,0.0,0.0,0.0,0.0,0.0,0.0,0.0,0.0,0.0,0.0,0.0,0.0,0.0,0.0,0.0,0.0,0.0,0.0,0.0,0.0,0.0,3.6192,3.681,3.7483,3.5702,3.6018,0.0,3.8155,0.0,0.0,0.0,4.566,0.0,0.0,0.0,0.0,0.0,0.0,0.0,0.0,0.0,0.0,0.0,0.0,0.0,0.0,0.0,0.0,0.0,0.0,0.0,0.0,0.0,0.0,0.0,0.0,0.0,0.0,0.0,0.0,0.0,0.0,5.6877,5.6319,5.6319,5.6602,5.7141,5.6902,5.662,5.6301,5.6062,5.6099,5.6319,5.6319,5.6319,5.6319,5.6319,5.6172,5.5978,5.6227,5.6007,5.5622,0.0,0.0,0.0,0.0,0.0,0.0,0.0,0.0,0.0,0.0,0.0,0.0,0.0,0.0,0.0,0.0,0.0,0.0,0.0,0.0,0.0,0.0,0.0,0.0,0.0,4.0396,4.2301,0.0,0.0,0.0,0.0,0.0,0.0,3.7061,0.0,0.0,0.0,0.0,0.0,0.0,0.0,0.0,0.0,0.0,0.0,0.0,0.0,0.0,0.0,0.0,0.0,0.0,0.0,0.0,0.0,3.5438,3.5718,3.6065,3.5518,0.0,0.0,0.0,4.1306,0.0,0.0,0.0,0.0,0.0,0.0,0.0,0.0,0.0,0.0,0.0,0.0,0.0,0.0,0.0,0.0,0.0,0.0,0.0,0.0,0.0,0.0,0.0,0.0,0.0,0.0,0.0,0.0,0.0,0.0,0.0,0.0,0.0,0.0,5.5603,5.5603,5.5695,5.5849,5.5849,5.5757,5.5603,5.5603,5.5603,5.5603,5.5603,5.5603,5.5603,5.5603,5.5401,5.5163,5.5475,5.5199,5.4693,0.0,0.0,0.0,0.0,0.0,0.0,0.0,0.0,0.0,0.0,0.0,0.0,0.0,0.0,0.0,0.0,0.0,0.0,0.0,0.0,0.0,0.0,0.0,0.0,0.0,0.0,0.0,0.0,0.0,0.0,0.0,0.0,3.9877,3.9242,0.0,4.0604,0.0,0.0,0.0,0.0,0.0,0.0,0.0,0.0,0.0,0.0,0.0,0.0,0.0,0.0,0.0,0.0,0.0,3.273,3.3124,3.4421,3.4236,3.3904,0.0,0.0,0.0,0.0,0.0,0.0,0.0,0.0,0.0,0.0,0.0,0.0,0.0,0.0,0.0,0.0,0.0,0.0,0.0,0.0,0.0,0.0,0.0,0.0,0.0,0.0,0.0,0.0,0.0,0.0,0.0,0.0,0.0,0.0,0.0,0.0,0.0,0.0,0.0,0.0,0.0,5.4997,5.4289,5.4363,5.4748,5.5383,5.5383,5.5383,5.5383,5.5383,5.5383,5.5383,5.5383,5.4932,5.4381,5.5108,5.4454,5.3306,0.0,0.0,0.0,0.0,0.0,0.0,0.0,0.0,0.0,0.0,0.0,0.0,0.0,0.0,0.0,0.0,0.0,0.0,0.0,0.0,0.0,0.0,0.0,0.0,0.0,0.0,0.0,0.0,0.0,0.0,0.0,0.0,0.0,3.8334,0.0,3.8527,0.0,0.0,0.0,0.0,0.0,0.0,0.0,0.0,0.0,0.0,0.0,0.0,0.0,0.0,0.0,0.0,3.2007,3.2623,3.2771,3.3221,3.4164,0.0,0.0,0.0,0.0,0.0,0.0,0.0,0.0,0.0,0.0,0.0,0.0,0.0,0.0,0.0,0.0,0.0,0.0,0.0,0.0,0.0,0.0,0.0,0.0,0.0,0.0,0.0,0.0,0.0,0.0,0.0,0.0,0.0,0.0,0.0,0.0,0.0,5.4675,5.4656,5.4344,0.0,5.371,5.3618,5.3471,5.4106,5.4161,5.371,5.371,5.371,5.371,5.371,5.371,5.371,5.371,5.3599,5.3471,5.3654,5.3489,5.3214,0.0,0.0,0.0,0.0,0.0,0.0,0.0,0.0,0.0,0.0,0.0,0.0,0.0,0.0,0.0,0.0,0.0,0.0,0.0,0.0,0.0,0.0,0.0,0.0,0.0,0.0,0.0,0.0,0.0,0.0,0.0,0.0,0.0,3.8665,0.0,3.845,0.0,0.0,0.0,0.0,0.0,0.0,0.0,0.0,0.0,0.0,0.0,0.0,0.0,0.0,0.0,0.0,0.0,0.0,3.1489,3.2165,3.2805,0.0,0.0,0.0,0.0,0.0,0.0,0.0,0.0,0.0,0.0,0.0,0.0,0.0,0.0,0.0,0.0,0.0,0.0,0.0,0.0,0.0,0.0,0.0,0.0,0.0,0.0,0.0,0.0,0.0,0.0,0.0,0.0,0.0,0.0,0.0,0.0,0.0,5.382,5.382,5.3599,5.3196,5.281,5.2417,5.2076,5.2876,5.3023,5.2637,5.2637,5.2637,5.2656,5.3031,5.3196,5.3196,5.3196,5.3196,5.3196,5.3196,5.3196,5.3196,0.0,0.0,0.0,0.0,0.0,0.0,0.0,0.0,0.0,0.0,0.0,0.0,0.0,0.0,0.0,0.0,0.0,0.0,0.0,0.0,0.0,0.0,0.0,0.0,0.0,0.0,0.0,0.0,0.0,0.0,0.0,0.0,0.0,3.9319,0.0,0.0,0.0,0.0,0.0,0.0,0.0,0.0,0.0,0.0,0.0,0.0,0.0,0.0,0.0,0.0,0.0,0.0,0.0,0.0,3.0098,3.1124,0.0,0.0,0.0,0.0,0.0,0.0,0.0,0.0,0.0,0.0,0.0,0.0,0.0,0.0,0.0,0.0,0.0,0.0,0.0,0.0,0.0,0.0,0.0,0.0,0.0,0.0,0.0,0.0,0.0,0.0,0.0,0.0,0.0,0.0,0.0,0.0,0.0,5.3812,5.2994,5.2994,5.292,5.2774,5.2105,5.1444,5.082,5.1363,5.1657,5.1785,5.1785,5.1785,5.184,5.2498,5.2792,5.2792,5.2939,5.2902,5.2792,5.2939,5.2902,5.2792,0.0,0.0,0.0,0.0,0.0,0.0,0.0,0.0,0.0,0.0,0.0,0.0,0.0,0.0,0.0,0.0,0.0,0.0,0.0,0.0,0.0,0.0,0.0,0.0,0.0,0.0,0.0,0.0,0.0,0.0,0.0,0.0,0.0,3.9261,0.0,0.0,0.0,0.0,0.0,0.0,0.0,0.0,0.0,0.0,0.0,0.0,0.0,0.0,0.0,0.0,0.0,0.0,0.0,0.0,0.0,0.0,0.0,0.0,0.0,0.0,0.0,0.0,0.0,0.0,0.0,0.0,0.0,0.0,0.0,0.0,0.0,0.0,0.0,0.0,0.0,0.0,0.0,0.0,0.0,0.0,0.0,0.0,0.0,0.0,0.0,0.0,0.0,0.0,0.0,0.0,5.3471,5.3361,5.3361,0.0,5.2171,5.216,5.1811,5.1132,5.1004,5.0894,5.0784,5.0188,5.0298,5.0967,5.0967,5.0967,5.0967,5.1077,5.1132,5.1187,5.1885,5.172,5.1206,5.1903,5.172,5.1132,0.0,0.0,0.0,0.0,0.0,0.0,0.0,0.0,0.0,0.0,0.0,0.0,0.0,0.0,0.0,0.0,0.0,0.0,0.0,0.0,0.0,0.0,0.0,0.0,0.0,0.0,0.0,0.0,0.0,0.0,0.0,3.4952,3.6469,0.0,0.0,0.0,0.0,0.0,0.0,0.0,0.0,0.0,0.0,0.0,0.0,0.0,0.0,0.0,0.0,0.0,0.0,0.0,0.0,0.0,0.0,0.0,0.0,0.0,0.0,0.0,0.0,0.0,0.0,0.0,0.0,0.0,0.0,0.0,0.0,0.0,0.0,0.0,0.0,0.0,0.0,0.0,0.0,0.0,0.0,0.0,0.0,0.0,0.0,0.0,0.0,0.0,0.0,0.0,0.0,5.3196,5.3196,5.3196,5.2755,0.0,5.2005,5.1555,5.0912,5.0133,5.0133,4.9866,4.9361,4.8581,4.8893,5.0096,4.9609,4.9397,4.9434,4.9921,5.0133,5.0206,5.1004,5.1114,5.0839,5.1206,5.1096,5.0802,0.0,0.0,0.0,0.0,0.0,0.0,0.0,0.0,0.0,0.0,0.0,0.0,0.0,0.0,0.0,0.0,0.0,0.0,0.0,0.0,0.0,0.0,0.0,0.0,0.0,0.0,0.0,0.0,0.0,0.0,3.3875,3.3875,3.5126,0.0,3.5372,0.0,0.0,0.0,0.0,0.0,0.0,0.0,0.0,0.0,0.0,0.0,0.0,0.0,0.0,0.0,0.0,0.0,0.0,0.0,0.0,0.0,0.0,0.0,0.0,0.0,0.0,0.0,0.0,0.0,0.0,0.0,0.0,0.0,0.0,0.0,0.0,0.0,0.0,0.0,0.0,0.0,0.0,0.0,0.0,0.0,0.0,0.0,0.0,0.0,0.0,0.0,0.0,0.0,5.2902,5.2913,5.2792,5.259,5.2013,5.1601,5.1363,5.0563,4.9866,4.927,4.927,4.882,4.7966,4.7369,4.7672,4.8609,4.7976,4.77,4.7737,4.8389,4.8664,4.8738,4.9554,4.9856,4.9874,5.0095,5.004,4.9893,0.0,0.0,0.0,0.0,0.0,0.0,0.0,0.0,0.0,0.0,0.0,0.0,0.0,0.0,0.0,0.0,0.0,0.0,0.0,0.0,0.0,0.0,0.0,0.0,0.0,0.0,0.0,0.0,0.0,0.0,3.2968,3.2968,3.3926,3.5615,3.5481,3.438,3.2503,0.0,0.0,0.0,0.0,0.0,0.0,0.0,0.0,0.0,0.0,0.0,0.0,0.0,0.0,0.0,0.0,0.0,0.0,0.0,0.0,0.0,0.0,0.0,0.0,0.0,0.0,0.0,0.0,0.0,0.0,0.0,0.0,0.0,0.0,0.0,0.0,0.0,0.0,0.0,0.0,0.0,0.0,0.0,0.0,0.0,0.0,0.0,0.0,0.0,0.0,0.0,5.2097,5.206,5.1701,5.0949,5.0875,5.0472,4.9637,4.8838,4.8406,4.8379,4.8379,4.7948,4.7168,4.7113,4.6737,4.6085,4.603,4.6012,4.603,4.6067,4.6085,4.6177,4.6975,4.7296,4.7388,4.815,4.7948,4.7388,0.0,0.0,0.0,0.0,0.0,0.0,0.0,0.0,0.0,0.0,0.0,0.0,0.0,0.0,0.0,0.0,0.0,0.0,0.0,0.0,0.0,0.0,0.0,0.0,0.0,0.0,0.0,0.0,0.0,3.1542,3.2122,3.2122,3.2737,3.383,3.383,3.3252,3.2202,3.0781,0.0,0.0,0.0,0.0,0.0,0.0,0.0,0.0,0.0,0.0,0.0,0.0,0.0,0.0,0.0,0.0,0.0,0.0,0.0,0.0,0.0,0.0,0.0,0.0,0.0,0.0,0.0,0.0,0.0,0.0,0.0,0.0,0.0,0.0,0.0,0.0,0.0,0.0,0.0,0.0,0.0,0.0,0.0,0.0,0.0,0.0,0.0,0.0,0.0,0.0,5.1261,5.1224,5.1096,5.082,5.0298,4.9352,4.7966,4.7672,4.7269,4.6764,4.6764,4.6617,4.6296,4.5801,4.5397,4.5104,4.458,4.4654,4.5122,4.5122,4.5122,4.5214,4.603,4.6333,4.6351,4.6654,4.6581,4.6379,0.0,0.0,0.0,0.0,0.0,0.0,0.0,0.0,0.0,0.0,0.0,0.0,0.0,0.0,0.0,0.0,0.0,0.0,0.0,0.0,0.0,0.0,0.0,0.0,0.0,0.0,0.0,0.0,0.0,0.0,0.0,3.1824,3.2205,3.3317,3.2756,3.2389,0.0,0.0,0.0,2.9372,0.0,0.0,2.9427,0.0,0.0,0.0,0.0,0.0,0.0,0.0,0.0,0.0,0.0,0.0,0.0,0.0,0.0,0.0,3.0705,0.0,0.0,0.0,0.0,0.0,0.0,0.0,0.0,0.0,0.0,0.0,0.0,0.0,0.0,0.0,0.0,0.0,0.0,0.0,0.0,0.0,0.0,0.0,0.0,0.0,0.0,0.0,0.0,0.0,5.0435,5.0398,5.0251,4.9976,4.9169,4.8233,4.7113,4.6819,4.6425,4.5902,4.5902,4.5755,4.548,4.4938,4.4553,4.4268,4.3726,4.3791,4.4305,4.4305,4.4305,4.436,4.4892,4.5259,4.5498,4.5498,4.5498,4.5535,0.0,0.0,0.0,0.0,0.0,0.0,0.0,0.0,0.0,0.0,0.0,0.0,0.0,0.0,0.0,0.0,0.0,0.0,0.0,0.0,0.0,0.0,0.0,0.0,0.0,0.0,0.0,0.0,0.0,0.0,0.0,0.0,3.2322,3.408,3.2426,3.1877,3.2157,0.0,3.1374,3.013,0.0,2.95,3.0283,0.0,0.0,0.0,3.1354,3.087,0.0,0.0,0.0,0.0,0.0,0.0,0.0,0.0,0.0,0.0,0.0,0.0,0.0,0.0,0.0,0.0,0.0,0.0,0.0,0.0,0.0,0.0,0.0,0.0,0.0,0.0,0.0,0.0,0.0,0.0,0.0,0.0,0.0,0.0,0.0,0.0,0.0,0.0,0.0,5.0398,4.9601,4.9555,4.9142,4.8269,4.748,4.7076,4.7021,4.6241,4.5847,4.5828,4.5828,4.5424,4.4663,4.4663,4.425,4.3506,4.3506,4.3506,4.3506,4.3506,4.3506,4.3506,4.3506,4.3975,4.4663,4.4663,4.4663,4.4773,0.0,0.0,0.0,0.0,0.0,0.0,0.0,0.0,0.0,0.0,0.0,0.0,0.0,0.0,0.0,0.0,0.0,0.0,0.0,0.0,0.0,0.0,0.0,0.0,0.0,0.0,0.0,0.0,0.0,0.0,0.0,0.0,0.0,0.0,3.208,3.1563,3.1279,3.067,0.0,0.0,2.9965,3.0002,0.0,0.0,0.0,0.0,0.0,3.076,0.0,0.0,2.9873,2.9763,0.0,0.0,0.0,0.0,0.0,0.0,3.021,0.0,0.0,0.0,0.0,0.0,0.0,0.0,0.0,0.0,0.0,0.0,0.0,0.0,0.0,0.0,0.0,0.0,0.0,0.0,0.0,0.0,0.0,0.0,0.0,0.0,0.0,0.0,0.0,4.9564,4.871,4.8655,4.8012,4.6617,4.692,4.6544,4.5379,4.514,4.4745,4.4167,4.4167,4.4057,4.3828,4.3828,4.3708,4.3506,4.3506,4.3506,4.3506,4.3506,4.3506,4.3506,4.3506,4.3635,4.3828,4.3828,4.3828,4.3873,0.0,0.0,0.0,0.0,0.0,0.0,0.0,0.0,0.0,0.0,0.0,0.0,0.0,0.0,0.0,0.0,0.0,0.0,0.0,0.0,0.0,0.0,0.0,0.0,0.0,0.0,0.0,0.0,0.0,0.0,0.0,0.0,0.0,0.0,0.0,0.0,0.0,0.0,0.0,0.0,3.0577,0.0,0.0,3.1568,3.1696,0.0,0.0,0.0,3.2272,3.147,3.098,0.0,0.0,0.0,0.0,0.0,0.0,0.0,0.0,0.0,0.0,0.0,0.0,0.0,0.0,3.6406,0.0,0.0,0.0,0.0,0.0,0.0,0.0,0.0,0.0,0.0,0.0,0.0,0.0,0.0,0.0,0.0,0.0,0.0,0.0,0.0,4.8059,4.7838,4.7333,4.7297,4.6874,4.592,4.6021,4.5645,4.4718,4.4378,4.3956,4.3506,4.3506,4.3506,4.3506,4.3506,4.3506,4.3506,4.3506,4.3506,4.3506,4.3506,4.3506,4.3506,4.3506,4.3506,4.3506,4.3506,4.3506,4.3506,0.0,0.0,0.0,0.0,0.0,0.0,0.0,0.0,0.0,0.0,0.0,0.0,0.0,0.0,0.0,0.0,0.0,0.0,0.0,0.0,0.0,0.0,0.0,0.0,0.0,0.0,0.0,0.0,0.0,0.0,0.0,0.0,0.0,0.0,0.0,0.0,0.0,0.0,0.0,3.0393,3.1115,3.188,0.0,0.0,3.3678,0.0,3.4472,3.4325,3.3678,3.2864,3.2063,0.0,0.0,0.0,0.0,0.0,3.1971,0.0,0.0,0.0,0.0,0.0,0.0,0.0,3.4766,3.5617,3.631,0.0,0.0,0.0,0.0,0.0,0.0,0.0,0.0,0.0,0.0,0.0,0.0,0.0,0.0,0.0,0.0,0.0,0.0,4.5902,4.5902,4.5865,4.5773,4.5847,4.581,4.5645,4.5039,4.4663,4.4571,4.3873,4.3506,4.3506,4.3506,4.3506,4.3506,4.3506,4.3506,4.3506,4.3506,4.3506,4.3506,4.3506,4.3506,4.3506,4.3506,4.3506,4.3506,4.3506,4.3506,4.3506,0.0,0.0,0.0,0.0,0.0,0.0,0.0,0.0,0.0,0.0,0.0,0.0,0.0,0.0,0.0,0.0,0.0,0.0,0.0,0.0,0.0,0.0,0.0,0.0,0.0,0.0,0.0,0.0,0.0,0.0,0.0,0.0,0.0,0.0,0.0,0.0,0.0,0.0,0.0,3.1188,3.1335,0.0,3.2619,3.2766,3.2821,3.2839,3.3005,3.3378,3.3678,0.0,3.2063,3.139,0.0,0.0,0.0,0.0,0.0,0.0,0.0,0.0,0.0,0.0,0.0,0.0,3.4449,3.5202,3.631,0.0,0.0,0.0,0.0,0.0,0.0,0.0,0.0,0.0,0.0,0.0,0.0,0.0,0.0,0.0,0.0,0.0,4.5902,4.5902,4.5902,4.5626,4.4975,4.5553,4.5314,4.4002,4.4443,4.4397,4.3745,4.3579,4.3506,4.3506,4.3506,4.3506,4.3506,4.3506,4.3506,4.3506,4.3506,4.3506,4.3506,4.3506,4.3506,4.3506,4.3506,4.3506,4.3506,4.3506,4.3506,4.3506,0.0,0.0,0.0,0.0,0.0,0.0,0.0,0.0,0.0,0.0,0.0,0.0,0.0,0.0,0.0,0.0,0.0,0.0,0.0,0.0,0.0,0.0,0.0,0.0,0.0,0.0,0.0,0.0,0.0,0.0,0.0,0.0,0.0,0.0,0.0,0.0,0.0,0.0,3.2109,3.2027,3.243,0.0,3.2644,3.3048,3.3195,3.325,3.3647,3.4069,3.4351,3.3922,3.3537,0.0,0.0,3.2713,3.3088,0.0,3.2732,3.3378,0.0,0.0,0.0,3.5536,0.0,0.0,0.0,3.5367,0.0,0.0,0.0,0.0,0.0,0.0,0.0,0.0,0.0,0.0,0.0,0.0,0.0,0.0,0.0,0.0,0.0,0.0,4.4699,4.4699,4.4699,4.4534,4.4121,4.447,4.4332,4.3524,4.3892,4.3901,4.3506,4.3506,4.3506,4.3506,4.3506,4.3506,4.3506,4.3506,4.3506,4.3506,4.3506,4.3506,4.3506,4.3506,4.3506,4.3506,4.3506,4.3506,4.3506,4.3506,4.3506,4.3506,0.0,0.0,0.0,0.0,0.0,0.0,0.0,0.0,0.0,0.0,0.0,0.0,0.0,0.0,0.0,0.0,0.0,0.0,0.0,0.0,0.0,0.0,0.0,3.3733,0.0,0.0,0.0,0.0,0.0,0.0,0.0,0.0,0.0,0.0,0.0,0.0,0.0,0.0,0.0,3.2901,0.0,3.3421,3.2901,3.355,3.3807,3.3899,3.4546,3.4766,3.4784,3.4942,0.0,3.4864,3.4047,3.4466,0.0,0.0,0.0,0.0,0.0,0.0,0.0,0.0,0.0,3.7055,0.0,0.0,0.0,0.0,0.0,0.0,0.0,0.0,0.0,0.0,0.0,0.0,0.0,0.0,0.0,0.0,0.0,0.0,0.0,0.0,4.3322,4.3488,4.3359,4.3341,4.3488,4.3506,4.3506,4.3506,4.3506,4.3506,4.3506,4.3506,4.3506,4.3506,4.3506,4.3506,4.3506,4.3506,4.3506,4.3506,4.3506,4.3506,4.3506,4.3506,4.3506,4.3506,4.3506,4.3506,4.3506,4.3506,4.3396,4.3286,3.6028,3.6879,0.0,0.0,0.0,0.0,0.0,0.0,0.0,0.0,0.0,0.0,0.0,0.0,0.0,0.0,0.0,0.0,3.9357,0.0,0.0,0.0,0.0,0.0,3.2754,0.0,0.0,0.0,0.0,0.0,0.0,0.0,0.0,0.0,3.366,0.0,0.0,0.0,3.3587,0.0,3.3752,3.3752,0.0,3.377,3.3807,3.3807,3.3899,3.3935,3.4045,0.0,3.4997,3.5107,0.0,3.6036,0.0,0.0,0.0,0.0,0.0,0.0,0.0,0.0,3.9507,0.0,0.0,0.0,0.0,0.0,0.0,0.0,0.0,0.0,0.0,0.0,0.0,0.0,0.0,0.0,0.0,0.0,0.0,0.0,0.0,0.0,0.0,4.3451,4.2837,4.2745,4.3451,4.3506,4.3506,4.3506,4.3506,4.3506,4.3506,4.3506,4.3506,4.3506,4.3506,4.3506,4.3506,4.3506,4.3506,4.3506,4.3506,4.3506,4.3506,4.3506,4.3506,4.3506,4.3506,4.3506,4.3506,4.3506,4.3047,4.2543,3.4871,3.6273,0.0,0.0,0.0,0.0,0.0,0.0,0.0,0.0,0.0,0.0,0.0,0.0,0.0,0.0,0.0,3.8623,0.0,0.0,0.0,0.0,0.0,0.0,0.0,0.0,0.0,0.0,3.3807,0.0,0.0,0.0,0.0,0.0,3.3587,0.0,3.3647,0.0,0.0,0.0,0.0,0.0,0.0,3.3807,3.3807,3.3807,3.3807,3.3807,3.3844,0.0,3.4956,0.0,0.0,0.0,0.0,0.0,0.0,0.0,0.0,0.0,0.0,0.0,0.0,0.0,0.0,0.0,3.7309,0.0,0.0,0.0,0.0,0.0,0.0,0.0,0.0,0.0,0.0,0.0,0.0,0.0,0.0,0.0,0.0,0.0,0.0,0.0,0.0,4.1956,4.2772,4.28,4.3029,4.3488,4.3506,4.3506,4.3506,4.3506,4.3506,4.3506,4.3506,4.3506,4.3506,4.3506,4.3506,4.3469,4.301,4.28,4.28,4.28,4.28,4.28,4.28,4.3084,4.3506,4.3506,4.2992,4.2359,3.3917,0.0,0.0,0.0,0.0,0.0,0.0,0.0,0.0,0.0,0.0,0.0,4.4975,4.3791,0.0,0.0,0.0,4.0175,0.0,0.0,3.6806,0.0,0.0,0.0,0.0,0.0,0.0,0.0,0.0,0.0,0.0,0.0,0.0,0.0,0.0,3.3947,3.369,0.0,0.0,3.4523,3.4857,3.4509,3.3807,3.3807,3.3807,3.3807,3.3807,3.3807,3.3862,3.4321,3.5293,0.0,3.5728,0.0,0.0,0.0,0.0,0.0,3.9171,0.0,0.0,0.0,0.0,0.0,0.0,0.0,0.0,0.0,0.0,0.0,0.0,0.0,0.0,0.0,0.0,0.0,0.0,0.0,0.0,0.0,0.0,0.0,0.0,0.0,0.0,0.0,4.0773,0.0,4.1607,4.2066,4.2561,4.3157,4.3396,4.3506,4.3506,4.3506,4.3506,4.3506,4.3506,4.3506,4.3488,4.3267,4.3176,4.3139,4.2323,4.1966,4.1966,4.1966,4.2103,4.2286,4.2066,4.2598,4.3451,4.301,4.247,4.1966,3.3807,3.5165,0.0,0.0,0.0,0.0,0.0,0.0,0.0,0.0,0.0,0.0,0.0,0.0,0.0,0.0,0.0,4.1709,4.3249,0.0,3.5954,0.0,0.0,3.5128,0.0,0.0,0.0,0.0,0.0,0.0,0.0,0.0,0.0,0.0,0.0,3.5415,3.6174,3.6229,3.6229,3.6156,3.5334,3.4509,3.3807,0.0,3.3807,3.3807,3.3807,0.0,0.0,3.5668,3.6255,0.0,0.0,0.0,0.0,0.0,0.0,0.0,0.0,0.0,0.0,0.0,0.0,0.0,0.0,0.0,3.8432,0.0,0.0,0.0,0.0,0.0,0.0,0.0,0.0,0.0,0.0,0.0,0.0,0.0,0.0,0.0,0.0,0.0,0.0,0.0,3.9945,0.0,3.9981,4.1442,4.2304,4.2341,4.3084,4.3506,4.3506,4.3506,4.3506,4.3506,4.3506,4.3506,4.3469,4.269,4.2341,4.2286,4.1489,4.114,4.114,4.114,4.1599,4.2213,4.1434,4.2113,4.3304,4.1746,4.115,4.114,0.0,0.0,0.0,0.0,0.0,0.0,0.0,4.2865,0.0,0.0,0.0,0.0,0.0,0.0,4.8324,0.0,0.0,4.4287,4.4287,4.1772,0.0,0.0,0.0,3.8046,0.0,0.0,0.0,0.0,0.0,0.0,0.0,0.0,0.0,0.0,0.0,3.5169,0.0,0.0,0.0,0.0,0.0,3.4706,3.533,0.0,0.0,3.3807,3.3807,3.3807,0.0,3.4449,3.5385,3.6395,3.6945,3.7468,3.7946,3.8125,3.8933,0.0,0.0,0.0,4.2194,4.1488,0.0,0.0,0.0,0.0,0.0,0.0,0.0,0.0,0.0,0.0,0.0,0.0,0.0,0.0,0.0,0.0,0.0,0.0,0.0,0.0,0.0,0.0,0.0,3.7558,3.7522,3.7981,0.0,3.9625,4.0414,4.147,4.2286,4.2708,4.2708,4.3231,4.3506,4.3488,4.2955,4.2708,4.2671,4.1874,4.1507,4.147,4.0653,4.0304,4.0304,4.0304,4.0781,4.1489,4.1205,4.1764,4.258,4.1507,4.1095,4.0956,3.533,0.0,0.0,0.0,0.0,0.0,0.0,0.0,0.0,0.0,4.8498,0.0,5.2197,0.0,5.0618,0.0,4.9022,4.6929,4.5232,4.4158,0.0,4.0755,4.0726,0.0,0.0,0.0,0.0,0.0,0.0,3.4523,0.0,0.0,0.0,0.0,0.0,0.0,0.0,0.0,3.6498,0.0,0.0,3.4988,0.0,0.0,3.4688,0.0,0.0,3.4222,3.4277,3.4578,3.5594,3.6692,3.6492,3.7008,3.7703,3.7972,3.8609,3.9321,3.9767,4.0826,0.0,0.0,4.0729,0.0,0.0,0.0,0.0,0.0,0.0,0.0,0.0,0.0,0.0,0.0,0.0,0.0,0.0,0.0,0.0,0.0,0.0,0.0,0.0,0.0,3.6395,3.5881,3.5837,3.6431,0.0,0.0,3.9305,4.0626,4.1735,4.2304,4.2304,4.3102,4.3359,4.3065,4.2543,4.2158,4.1856,4.103,4.0663,4.0634,3.9827,3.946,3.946,3.946,3.9955,4.0645,4.0369,4.092,4.1782,4.0975,4.0498,4.0094,0.0,0.0,0.0,0.0,3.7771,0.0,0.0,0.0,4.6544,0.0,4.9921,5.161,5.3269,5.2674,5.216,5.2129,5.1351,0.0,4.625,4.6021,0.0,0.0,4.1607,4.0589,3.6641,0.0,0.0,0.0,0.0,0.0,0.0,0.0,0.0,0.0,3.555,0.0,3.5162,3.7562,3.7679,3.6229,3.6273,3.5385,3.4211,3.5716,0.0,3.6303,3.5389,3.5052,3.5188,3.6028,3.6824,3.7418,3.6872,3.6925,3.7332,3.806,3.8454,3.8927,4.0187,4.111,4.1548,4.0803,0.0,0.0,0.0,0.0,4.0004,0.0,0.0,0.0,0.0,0.0,0.0,0.0,0.0,0.0,0.0,0.0,0.0,0.0,0.0,0.0,0.0,3.5463,3.4961,3.4887,3.4924,3.5334,0.0,0.0,0.0,3.9871,4.1423,4.2268,4.2304,4.3102,4.3121,4.2359,4.2286,4.1837,4.1058,4.023,3.9835,3.9798,3.9038,3.8699,3.8699,3.8699,3.9166,3.9816,3.9056,3.969,4.0956,4.0175,3.9386,3.8699,3.7253,3.7575,3.8469,0.0,3.9717,4.012,0.0,0.0,0.0,0.0,5.2087,5.4326,5.6528,5.553,5.4473,5.3992,5.2557,0.0,0.0,0.0,0.0,4.358,4.3856,4.2837,4.0147,3.9969,0.0,3.7082,0.0,0.0,3.4997,0.0,0.0,0.0,0.0,0.0,3.5071,3.6369,3.6296,3.5389,3.6046,3.6762,0.0,0.0,3.7037,3.79,3.6486,3.5973,3.6009,3.6211,3.6824,3.7418,3.6872,3.6925,3.7265,3.7602,3.7906,3.8291,3.9166,3.9961,4.0578,4.0781,4.0362,3.9929,0.0,0.0,0.0,0.0,0.0,0.0,0.0,0.0,0.0,0.0,0.0,0.0,0.0,0.0,0.0,0.0,0.0,0.0,3.4431,3.4791,3.4509,3.3316,3.3763,3.4743,0.0,0.0,0.0,3.9835,4.0891,4.169,4.2286,4.3102,4.3396,4.3176,4.1992,4.1305,4.104,3.9654,3.9019,3.9001,3.8799,3.8699,3.8699,3.8699,3.9166,3.9871,3.9669,3.9845,4.0175,3.9981,3.9386,3.8699,3.8407,0.0,0.0,4.147,0.0,0.0,4.3314,0.0,0.0,5.0528,5.2939,0.0,5.5839,5.5456,5.4821,5.4098,5.284,0.0,0.0,0.0,0.0,4.4502,4.4423,4.3364,4.1062,4.0184,0.0,3.7807,0.0,0.0,3.6083,0.0,0.0,0.0,0.0,3.6028,0.0,3.6835,3.7066,3.6655,3.7147,0.0,0.0,3.7422,3.7679,3.8102,3.7551,3.711,3.6824,3.6824,3.72,3.7521,3.6625,3.6582,3.6954,3.7511,3.7791,3.813,3.9203,3.9779,4.0167,4.0473,4.0208,3.9873,3.9898,4.0068,4.0092,0.0,0.0,0.0,0.0,0.0,0.0,0.0,0.0,0.0,0.0,0.0,0.0,0.0,0.0,0.0,3.2822,3.3488,3.3426,3.2167,3.3146,3.4211,0.0,0.0,0.0,0.0,4.0314,4.1323,4.1764,4.291,4.3322,4.2955,4.169,4.092,4.0534,3.9268,3.8699,3.8699,3.8699,3.8699,3.8699,3.8699,3.8964,3.9386,3.9386,3.9386,3.9386,3.9386,3.9093,3.8699,0.0,0.0,0.0,0.0,0.0,0.0,0.0,4.7275,0.0,5.0771,0.0,5.4387,5.3686,5.406,5.4042,5.3238,0.0,5.104,4.8649,4.8675,4.7374,4.4145,4.4067,4.2979,4.0602,3.9825,0.0,0.0,0.0,0.0,3.7355,0.0,0.0,0.0,0.0,0.0,0.0,3.7955,3.8542,0.0,3.867,3.7863,3.6762,3.8175,3.8267,3.7749,3.845,3.8256,3.7658,3.7658,3.7775,3.7681,3.646,3.6285,3.6729,3.763,3.7961,3.8345,3.9728,4.0096,4.0096,4.0096,4.0096,3.9943,3.9288,3.946,3.9773,3.9825,3.9758,0.0,0.0,0.0,0.0,0.0,0.0,0.0,0.0,0.0,0.0,0.0,0.0,0.0,0.0,0.0,3.2222,3.1317,3.2632,3.3587,0.0,0.0,0.0,0.0,3.99,0.0,4.1268,0.0,4.3157,4.2451,4.1525,4.0736,4.0037,3.9111,3.8699,3.8699,3.8699,3.8699,3.8699,3.8699,3.8699,3.8699,3.8699,3.8699,3.8699,3.8699,3.8699,3.8699,0.0,0.0,0.0,0.0,0.0,4.5841,4.7583,4.988,5.1543,5.1833,5.3974,0.0,5.5285,5.427,5.3301,5.262,5.1787,0.0,0.0,0.0,0.0,4.4219,4.4089,4.307,4.0885,3.9373,3.8554,0.0,3.7345,3.6805,3.6829,0.0,0.0,0.0,0.0,0.0,3.7309,3.7584,0.0,3.7768,3.8432,3.8534,3.8303,3.8589,3.8615,3.8505,3.8644,3.8615,3.8487,3.8487,3.8223,3.7798,3.7172,3.7138,3.7385,3.7783,3.8328,3.9,3.9846,4.0096,4.0096,4.0096,4.0096,4.0079,3.9943,3.9968,4.0025,4.0054,4.0752,4.1223,4.0707,0.0,0.0,0.0,0.0,0.0,0.0,0.0,0.0,0.0,0.0,0.0,0.0,0.0,0.0,0.0,0.0,0.0,0.0,0.0,0.0,0.0,0.0,0.0,0.0,0.0,0.0,4.3267,4.1801,4.103,4.0846,3.936,3.8699,3.8699,3.8699,3.8699,3.8699,3.8699,3.8699,3.8699,3.8699,3.8699,3.8699,3.8699,3.8699,3.8699,0.0,0.0,0.0,0.0,0.0,0.0,0.0,5.152,0.0,5.2201,5.3172,5.374,5.3355,5.3018,5.255,5.1832,5.104,4.9779,4.7888,4.7754,4.6736,4.446,4.3959,0.0,4.1654,3.9342,3.8289,3.8607,3.6869,3.6471,0.0,0.0,0.0,0.0,0.0,3.8118,0.0,0.0,0.0,3.8733,3.8707,3.8699,3.8699,3.8699,3.8699,3.8699,3.8699,3.8699,3.8699,3.8699,3.8185,3.7568,3.7717,3.7477,3.7319,3.8209,3.8717,3.9169,3.991,4.0096,4.0096,4.0096,4.0096,4.0096,4.0096,4.0096,4.0096,4.0096,4.0538,4.077,4.0235,3.9027,0.0,0.0,0.0,0.0,0.0,0.0,0.0,0.0,0.0,0.0,0.0,0.0,0.0,0.0,0.0,0.0,0.0,0.0,0.0,0.0,0.0,0.0,0.0,0.0,0.0,4.3488,4.2286,4.1507,4.1067,3.9882,3.9093,3.8699,3.8699,3.8699,3.8699,3.8699,3.8699,3.8699,3.8699,3.8699,3.8699,3.8699,3.8699,3.8699,0.0,4.5233,0.0,0.0,4.8761,0.0,0.0,5.2432,5.326,5.2571,5.2477,5.22,5.1443,5.179,5.1762,5.1025,5.0151,4.9124,4.7899,4.7033,4.5988,4.4666,4.3673,4.2814,4.2066,3.9326,3.8079,0.0,3.6492,0.0,0.0,0.0,0.0,0.0,0.0,0.0,0.0,0.0,3.9834,3.9672,3.9347,3.9019,3.8718,3.8891,3.8854,3.8699,3.8699,3.8699,3.8673,3.857,3.8047,3.7544,3.8125,3.7817,3.7494,3.8662,3.9119,3.9356,3.9943,4.0096,4.0096,4.0096,4.0096,4.0096,4.0096,4.0096,4.0096,4.0096,4.0179,4.0226,4.0095,3.928,0.0,0.0,0.0,0.0,0.0,0.0,0.0,0.0,0.0,0.0,0.0,0.0,0.0,0.0,0.0,0.0,3.2332,3.4688,0.0,0.0,0.0,0.0,4.1095,0.0,4.3506,0.0,4.2671,4.1966,4.1323,4.0341,3.9559,3.8946,3.8781,3.8699,3.8699,3.8699,3.8699,3.8699,3.8699,3.8699,3.8699,3.8699,3.8699,3.8699,0.0,0.0,0.0,0.0,0.0,0.0,0.0,5.2432,5.3467,5.3398,5.3381,5.3076,5.2263,5.1656,5.0996,5.0262,4.8929,4.8035,4.7907,4.6578,4.5432,4.4649,4.3196,4.2049,4.1322,3.9073,3.7929,0.0,0.0,3.6388,0.0,0.0,0.0,0.0,0.0,0.0,0.0,3.9484,3.9592,3.9182,4.0381,4.0002,3.8773,3.9515,3.9331,3.8699,3.8699,3.8699,3.8627,3.815,3.8079,3.8204,3.8292,3.8534,3.8814,3.8954,3.9474,4.0011,4.0079,4.0096,4.0096,4.0096,4.0096,4.0096,4.0096,4.0096,4.0096,4.0096,4.0485,4.0911,4.1193,4.0358,3.9673,0.0,0.0,0.0,0.0,0.0,0.0,0.0,0.0,0.0,0.0,0.0,0.0,0.0,0.0,0.0,3.1464,3.3818,3.5481,3.6273,0.0,4.1095,4.1095,4.269,0.0,4.3488,4.2671,4.2268,4.2139,4.0606,3.9853,3.9761,3.9019,3.8699,3.8699,3.8699,3.8699,3.8699,3.8699,3.8699,3.8699,3.8699,3.8699,3.8699,0.0,0.0,0.0,0.0,0.0,0.0,0.0,5.3074,5.3501,5.3501,5.3501,5.3196,5.2384,5.1641,5.0897,5.0167,4.8748,4.7904,4.7904,4.6517,4.5568,4.5263,4.3792,4.2608,4.188,4.0126,3.879,0.0,0.0,0.0,3.707,0.0,0.0,0.0,0.0,3.877,3.9306,3.9855,4.015,4.0307,4.0883,4.071,4.0186,4.0498,4.0424,4.0091,3.9738,3.9591,3.9522,3.8974,3.8581,3.8321,3.8436,3.8722,3.9102,3.9525,3.9876,4.0096,4.0096,4.0096,4.0096,4.0096,4.0096,4.0096,4.0096,4.0096,4.0096,4.0096,4.0533,4.0839,4.0653,4.0436,4.021,0.0,0.0,0.0,0.0,0.0,0.0,0.0,0.0,0.0,0.0,0.0,0.0,0.0,0.0,0.0,3.2057,3.3488,3.4901,3.6266,0.0,4.1095,4.1095,4.269,4.3506,4.3506,4.3176,4.2763,4.2268,4.113,4.0084,3.9184,3.935,3.9148,3.8699,3.8699,3.8699,3.8699,3.8699,3.8699,3.8699,3.8699,3.9019,3.9423,4.934,0.0,5.0105,0.0,5.2113,5.2133,5.3314,5.3501,5.3501,5.3501,5.3501,5.3112,5.2097,5.1319,5.0591,4.983,4.8631,4.7904,4.7904,4.6517,4.5703,4.5703,4.3998,0.0,4.2625,4.0967,3.9584,3.8553,3.8113,0.0,0.0,0.0,0.0,0.0,3.8468,3.8996,3.966,4.0124,4.046,4.0727,4.1134,4.1121,4.0859,4.1096,4.1041,4.078,4.0357,4.011,3.9876,3.9342,3.8964,3.8744,3.8873,3.911,3.9423,3.996,4.0096,4.0096,4.0096,4.0096,4.0096,4.0096,4.0096,4.0096,4.0096,4.0096,4.0096,4.0096,4.0405,4.0601,4.038,4.0406,4.0403,0.0,0.0,0.0,0.0,0.0,0.0,0.0,0.0,0.0,0.0,0.0,0.0,0.0,0.0,0.0,0.0,3.3837,0.0,0.0,0.0,0.0,0.0,0.0,4.3506,4.3506,4.3506,4.3194,4.2635,4.1819,4.07,3.9415,3.9753,3.9578,3.9038,3.8799,3.8699,3.8699,3.8699,3.8699,3.8718,3.8964,3.9405,3.9908,5.0879,5.1166,5.1657,5.3213,5.3467,5.3467,5.3501,5.3501,5.3501,5.3501,5.3501,5.2926,5.1387,5.0557,4.9813,4.9086,4.8326,4.7904,4.7904,4.6517,4.5703,0.0,0.0,4.2642,4.3372,4.1234,4.01,4.0062,0.0,0.0,3.6818,0.0,0.0,3.8616,3.9139,3.926,3.9088,4.015,4.0262,3.9846,4.1221,4.1161,4.0302,4.1087,4.0897,4.0212,4.0212,3.9856,3.934,3.8786,3.9097,3.9669,3.9686,3.9869,4.0096,4.0096,4.0096,4.0096,4.0096,4.0096,4.0096,4.0096,4.0096,4.0096,4.0096,4.0096,4.0096,4.0096,4.0113,4.0262,4.0792,4.0461,4.0197,4.0538,0.0,0.0,0.0,0.0,0.0,0.0,0.0,0.0,0.0,0.0,0.0,0.0,0.0,0.0,0.0,0.0,0.0,3.7437,3.9845,0.0,4.2286,4.3084,4.3506,4.3506,4.3506,4.3488,4.3451,4.2653,4.1837,4.103,4.023,3.989,3.9816,3.9038,3.8699,3.8699,3.8699,3.8699,3.8799,3.9588,3.989,3.9908,5.186,5.2385,5.2926,5.3416,5.3501,5.3501,5.3501,5.3501,5.3501,5.3501,5.2571,5.1742,5.1252,5.0981,5.0339,0.0,4.8326,4.7904,0.0,4.6517,4.5703,4.5703,4.3998,4.2916,4.2658,4.1474,4.0358,3.9343,0.0,0.0,0.0,3.8464,3.8562,3.8613,3.8969,3.9496,4.0125,4.0591,4.0923,4.1178,4.1619,4.1604,4.1322,4.1581,4.151,4.1235,4.082,4.0561,4.0351,3.9802,3.9773,3.9966,3.9966,4.003,4.0096,4.0096,4.0096,4.0096,4.0096,4.0096,4.0096,4.0096,4.0096,4.0096,4.0096,4.0096,4.0096,4.0096,4.0392,4.0589,4.0392,4.0504,4.0562,4.0309,0.0,0.0,0.0,0.0,0.0,0.0,0.0,0.0,0.0,0.0,0.0,0.0,0.0,0.0,0.0,0.0,0.0,0.0,4.0671,0.0,4.2304,4.3102,4.3506,4.3506,4.3506,4.3212,4.269,4.2992,4.2378,4.1122,4.1405,4.091,3.9871,3.9625,3.9184,3.8699,3.8699,3.8699,3.8718,3.9001,3.9423,3.9981,5.2756,5.3162,5.3501,5.3501,5.3501,5.3501,5.3501,5.3501,5.3501,5.3501,5.2401,5.1505,5.1235,5.0947,0.0,4.9103,4.858,0.0,4.7921,4.6771,4.5991,4.5706,4.4218,4.3186,4.2726,0.0,0.0,3.9834,3.9728,3.9457,3.9,3.9,3.9059,3.918,3.9341,3.9782,4.0421,4.0549,4.0821,4.115,4.115,4.1286,4.1457,4.1457,4.1457,4.1413,4.1041,4.0768,4.054,4.0217,4.0096,4.0096,4.0096,4.0096,4.0096,4.0096,4.0096,4.0096,4.0096,4.0096,4.0096,4.0096,4.0096,4.0096,4.0096,4.0096,4.0096,4.0096,4.0368,4.0497,4.0171,4.0368,4.0394,3.9786,0.0,0.0,0.0,0.0,0.0,0.0,0.0,0.0,0.0,3.4633,0.0,0.0,0.0,0.0,0.0,0.0,0.0,3.9129,4.1203,0.0,4.2745,4.3249,4.3506,4.3506,4.3506,4.3231,4.2763,4.3267,4.2947,4.2011,4.2213,4.1735,4.0744,4.0147,3.9772,3.9544,3.8938,3.8891,3.9148,3.9148,3.946,3.9963,5.3501,5.3501,0.0,0.0,5.3501,0.0,5.3501,5.3501,5.3501,5.3501,5.2756,5.1945,5.1269,5.0507,4.9746,4.9069,0.0,0.0,0.0,4.7175,4.6447,4.5669,4.4251,0.0,4.3338,4.1969,4.1238,4.1119,3.9749,3.9085,3.9085,3.9085,3.944,4.0096,4.0096,4.0096,4.0096,4.0096,4.0096,4.0096,4.0096,4.0405,4.0833,4.0833,4.0833,4.0833,4.0833,4.0516,4.0096,4.0096,4.0096,4.0096,4.0096,4.0096,4.0096,4.0096,4.0096,4.0096,4.0096,4.0096,4.0096,4.0096,4.0096,4.0096,4.0096,4.0096,4.0096,4.0096,4.0096,4.0096,4.0096,4.0096,3.9871,3.9168,3.8413,3.7734,3.7173,0.0,0.0,0.0,0.0,0.0,0.0,3.6182,3.7199,0.0,0.0,0.0,0.0,0.0,0.0,4.0018,4.157,4.2745,4.3488,4.3506,4.3506,4.3506,4.3506,4.3506,4.3506,4.3506,4.3506,4.3451,4.2708,4.2323,4.2103,4.0598,4.0359,4.0791,3.9287,3.9166,3.9816,3.9816,3.9816,3.9816,0.0,0.0,5.3501,5.3501,5.3501,5.3501,5.3501,5.3501,5.3501,5.3501,5.2317,5.1387,5.1218,5.0034,4.9187,4.9018,4.9001,4.846,4.7141,4.6902,4.6225,4.4922,4.4516,4.3758,4.2591,4.2232,4.1487,4.0354,3.9999,3.9829,3.9829,3.9829,3.9943,4.0096,4.0096,4.0096,4.0096,4.0096,4.0096,4.0096,4.0096,4.0184,4.0286,4.0286,4.0286,4.0286,4.0286,4.0204,4.0096,4.0096,4.0096,4.0096,4.0096,4.0096,4.0096,4.0096,4.0096,4.0096,4.0096,4.0096,4.0096,4.0096,4.0096,4.0096,4.0096,4.0096,4.0096,4.0096,4.0096,4.0096,4.0096,4.0096,3.9979,3.961,3.874,3.7917,3.7267,0.0,0.0,0.0,3.7037,3.7503,3.7551,3.7522,3.7419,0.0,0.0,0.0,0.0,0.0,4.1332,4.1717,4.2698,4.3304,4.3506,4.3506,4.3506,4.3506,4.3506,4.3506,4.3506,4.3506,4.3506,4.3488,4.3304,4.2525,4.136,4.0975,4.0204,3.9232,3.8846,3.8817,3.8982,3.8982,3.8982,3.9074,5.3501,5.3501,5.3501,5.3501,5.3501,5.3501,5.3501,5.3501,5.3501,5.3501,5.2452,5.1573,5.1235,5.017,4.9373,4.9035,4.9001,4.8663,4.7851,4.7158,4.6445,4.5633,4.4604,4.3487,4.2333,4.1965,4.1251,4.0096,4.0096,4.0096,4.0096,4.0096,4.0096,4.0096,4.0096,4.0096,4.0096,4.0096,4.0096,4.0096,4.0096,4.0096,4.0096,4.0096,4.0096,4.0096,4.0096,4.0096,4.0096,4.0096,4.0096,4.0096,4.0096,4.0096,4.0096,4.0096,4.0096,4.0096,4.0096,4.0096,4.0096,4.0096,4.0096,4.0096,4.0096,4.0096,4.0096,4.0096,4.0096,4.0096,4.0096,4.0096,3.984,3.9017,3.8412,3.7718,3.6742,3.6969,0.0,3.7137,3.8316,3.9019,3.8718,3.9294,3.9394,3.8649,0.0,0.0,4.0377,4.1937,4.2671,4.2304,4.3084,4.3506,4.3506,4.3506,4.3506,4.3506,4.3506,4.3506,4.3506,4.3506,4.3506,4.3506,4.3506,4.28,4.1617,4.125,4.0589,3.9727,3.8993,3.8927,3.9203,3.8828,3.8699,3.8755,5.3264,5.3382,5.3501,5.3501,5.3501,5.3501,5.3501,5.3501,5.3501,5.3501,5.2706,5.1911,5.1269,5.0439,4.9678,4.9052,4.9001,4.8951,4.8849,4.7564,4.675,4.6648,4.4657,4.3183,4.2317,4.1474,4.0743,4.0096,4.0096,4.0163,4.0265,4.0146,4.0163,4.0269,4.0269,4.0269,4.0269,4.0269,4.0269,4.0265,4.0146,4.0096,4.0096,4.0096,4.0096,4.0096,4.0096,4.0096,4.0096,4.0096,4.0096,4.0096,4.0096,4.0096,4.0096,4.0096,4.018,4.0235,4.013,4.0096,4.013,4.0235,4.018,4.013,4.0235,4.018,4.013,4.0235,4.018,4.0096,4.0096,4.0096,3.9681,3.8369,3.799,3.7426,3.6259,0.0,0.0,3.7802,3.985,4.0791,3.9551,4.1056,4.1644,4.0532,4.2129,0.0,0.0,4.3139,4.3194,4.2506,4.3139,4.3506,4.3506,4.3506,4.3506,4.3506,4.3506,4.3506,4.3506,4.3506,4.3506,4.3506,4.3506,4.2974,4.2066,4.1379,4.103,4.0773,3.9415,3.9294,3.9835,3.9276,3.9001,3.8909,5.2153,5.287,5.3501,5.3501,5.3501,5.3501,5.3501,5.3501,5.3501,5.3501,5.2249,5.1336,5.1218,4.9984,4.912,4.9018,4.9001,4.8732,4.8107,4.7276,4.6515,4.5906,4.4939,4.3755,4.2333,4.0963,4.0214,4.0096,4.0096,4.0422,4.1018,4.0388,4.0422,4.1035,4.1035,4.1035,4.1035,4.1035,4.1035,4.0967,4.0354,4.0096,4.0096,4.0096,4.0096,4.0096,4.0096,4.0096,4.0096,4.0096,4.0096,4.0096,4.0096,4.0096,4.0096,4.0096,4.054,4.0882,4.0269,4.0096,4.0252,4.0865,4.0557,4.0265,4.0882,4.0557,4.0282,4.0899,4.054,4.0096,4.0096,4.0096,3.994,3.9496,3.832,3.7369,0.0,0.0,3.8228,3.8868,4.0819,4.2286,4.2717,4.1856,4.1746,4.2864,4.2029,4.2011,4.3249,4.3433,4.3433,4.3322,4.3433,4.3506,4.3506,4.3506,4.3506,4.3506,4.3506,4.3506,4.3506,4.3506,4.3506,4.3506,4.3506,4.2653,4.1287,4.115,4.07,4.0065,3.9816,3.9798,3.9963,4.0516,4.0304,3.9808,5.1903,5.2766,5.3501,5.3501,5.3501,5.3501,5.3501,5.3501,5.3501,5.3501,5.2875,5.2114,5.1286,5.0592,4.9881,4.9069,4.9001,4.8866,4.8512,4.7802,4.7242,4.6906,4.543,4.3687,4.1745,4.1035,4.0506,4.0096,4.0506,4.0658,4.0608,4.0675,4.0658,4.0608,4.0608,4.0608,4.0608,4.0608,4.0832,4.1136,4.0405,4.0337,4.0658,4.0252,4.0096,4.0096,4.0096,4.0096,4.0096,4.0096,4.0096,4.018,4.0574,4.0422,4.0265,4.1048,4.1238,4.1221,4.1267,4.1284,4.1369,4.1711,4.1538,4.1369,4.1711,4.1221,4.0899,4.1644,4.0895,4.0218,4.0625,4.0371,3.9917,3.9419,3.8401,0.0,0.0,3.846,3.9209,4.0248,4.1901,4.3084,4.3451,4.2818,4.269,4.3433,4.28,4.2708,4.3451,4.3506,4.3506,4.3506,4.3506,4.3506,4.3506,4.3506,4.3506,4.3506,4.3506,4.3506,4.3506,4.3506,4.3506,4.3469,4.3047,4.2433,4.1709,4.1287,4.0883,4.0561,4.0561,4.0561,4.0589,4.0956,4.0589,3.9945,5.1176,5.2028,5.2852,5.3093,5.3127,5.3212,5.3467,5.3501,5.3501,5.3501,5.3348,5.2773,5.1573,5.115,5.0491,4.9357,4.9103,4.9001,4.9001,4.8462,4.809,4.7904,4.5771,4.3687,4.1749,4.1529,4.1183,4.062,4.1001,4.1085,4.0878,4.1102,4.1085,4.0861,4.0861,4.0861,4.0861,4.0675,4.1048,4.1644,4.0726,4.0679,4.1136,4.0574,4.0248,4.0096,4.0096,4.0096,4.0096,4.0096,4.0214,4.0422,4.0815,4.0794,4.0794,4.1758,4.1897,4.1833,4.2405,4.2435,4.2337,4.2506,4.2435,4.2337,4.2523,4.1982,4.166,4.2405,4.1521,4.0726,4.1136,4.073,4.0117,3.9389,0.0,0.0,0.0,3.9521,4.0297,4.1469,4.2739,4.3506,4.3506,4.3392,4.3303,4.3303,4.3187,4.3169,4.3322,4.3303,4.3375,4.3506,4.3506,4.3506,4.3506,4.3506,4.3506,4.3506,4.3506,4.3506,4.3506,4.3506,4.3506,4.3469,4.2845,4.247,4.2249,4.1635,4.1379,4.1379,4.1379,4.1379,4.1379,4.1379,4.1001,4.0459,4.9013,4.9891,5.0911,5.1849,5.2011,5.2348,5.3348,5.3501,5.3501,5.3501,5.2858,5.235,5.2232,5.0997,5.015,5.0032,4.939,4.9001,4.9001,4.8951,4.8597,4.7938,4.5771,4.4178,4.3254,4.2574,4.2198,4.2147,4.1508,4.1867,4.3135,4.18,4.1901,4.3152,4.3152,4.3152,4.3102,4.2422,4.2557,4.3118,4.1681,4.1153,4.1191,4.1136,4.0679,4.0096,4.0096,4.0096,4.0096,4.0096,4.0557,4.1018,4.0371,4.1081,4.2029,4.1457,4.2205,4.3254,4.3304,4.2828,4.2455,4.3152,4.2811,4.2486,4.3152,4.276,4.2422,4.3169,4.2692,4.1961,4.1322,4.117,4.0882,4.0146,0.0,0.0,4.0299,4.0558,4.102,4.2096,4.2985,4.3506,4.3506,4.3041,4.2769,4.2769,4.2234,4.2172,4.2722,4.2769,4.2986,4.347,4.3506,4.3506,4.3506,4.3506,4.3506,4.3506,4.3506,4.3506,4.3506,4.3506,4.3506,4.3506,4.3433,4.2992,4.2304,4.2249,4.2213,4.2213,4.2213,4.2213,4.2213,4.2213,4.2176,4.2121,4.8805,4.9655,5.0512,5.0892,5.0968,5.132,5.2364,5.2505,5.2749,5.3399,5.323,5.2858,5.235,5.1792,5.1099,5.0184,4.983,4.9492,4.9035,4.9001,4.8477,4.7276,4.6397,4.5162,4.344,4.3135,4.276,4.23,4.2489,4.2611,4.2726,4.2611,4.2611,4.2726,4.2726,4.2726,4.2692,4.2422,4.2455,4.2642,4.161,4.1204,4.1153,4.0679,4.0641,4.0713,4.0265,4.0388,4.0696,4.0252,4.0591,4.1238,4.1403,4.1843,4.232,4.251,4.3318,4.413,4.413,4.3941,4.3789,4.4062,4.3941,4.3805,4.4093,4.3538,4.3186,4.3978,4.3163,4.2337,4.2527,4.1816,4.1119,4.0832,0.0,4.0134,4.1423,4.1899,4.2419,4.3202,4.3852,4.3915,4.3087,4.2826,4.2539,4.2172,4.2342,4.2547,4.2691,4.3014,4.3286,4.3479,4.3506,4.3506,4.3506,4.3506,4.3506,4.3506,4.3506,4.3506,4.3506,4.3506,4.3506,4.3469,4.2974,4.2882,4.301,4.2506,4.2598,4.3047,4.3047,4.3047,4.3047,4.3047,4.2727,4.2304,4.8335,4.8922,4.9531,4.9832,4.9891,5.0227,5.1266,5.1687,5.2153,5.2904,5.3281,5.3298,5.2739,5.2232,5.1555,5.0524,5.0016,4.9543,4.9035,4.9001,4.8342,4.6853,4.68,4.5838,4.3826,4.3792,4.3521,4.3027,4.3284,4.3271,4.3027,4.3271,4.3254,4.3027,4.3027,4.3027,4.301,4.2743,4.2642,4.2574,4.1847,4.1542,4.1457,4.0726,4.0899,4.1457,4.0709,4.0764,4.117,4.0878,4.1132,4.1627,4.2147,4.2455,4.2794,4.3541,4.4178,4.4615,4.4615,4.4615,4.4615,4.4615,4.4615,4.4615,4.4615,4.4164,4.3927,4.4482,4.3755,4.3098,4.3355,4.2577,4.18,4.1576,4.1132,4.1201,4.235,4.283,4.3289,4.3854,4.4052,4.3768,4.2845,4.2377,4.2065,4.1903,4.2182,4.2594,4.3105,4.3606,4.3883,4.3883,4.3635,4.3506,4.3506,4.3506,4.3506,4.3506,4.3506,4.3506,4.3506,4.3506,4.3506,4.3469,4.291,4.2992,4.3451,4.29,4.301,4.3506,4.3506,4.3506,4.3469,4.3231,4.2937,4.2635,4.7309,4.7309,4.7609,4.8615,4.8784,4.9135,5.0223,5.1229,5.1885,5.1885,5.2818,5.3484,5.3484,5.2114,5.1201,5.1201,4.9848,4.9018,4.9001,4.9001,4.8342,4.6853,4.68,4.6107,4.4618,4.4615,4.4615,4.4615,4.3809,4.3826,4.4567,4.3792,4.3842,4.4615,4.4615,4.4615,4.4564,4.3758,4.3406,4.3338,4.2591,4.2317,4.2232,4.1491,4.166,4.2215,4.1474,4.1221,4.1339,4.2063,4.23,4.2317,4.2317,4.2828,4.3575,4.4364,4.4615,4.4615,4.4615,4.4615,4.4615,4.4615,4.4615,4.4615,4.4615,4.4615,4.4615,4.4615,4.4615,4.4364,4.3558,4.3406,4.3152,4.2435,4.2317,4.252,4.3123,4.321,4.3407,4.3948,4.3355,4.29,4.29,4.1683,4.1238,4.2045,4.157,4.207,4.4009,4.4497,4.47,4.47,4.3928,4.3506,4.3506,4.3506,4.3506,4.3506,4.3506,4.3506,4.3506,4.3506,4.3506,4.3506,4.3506,4.3506,4.3506,4.3506,4.3506,4.3506,4.3506,4.3506,4.3396,4.2598,4.28,4.3396,4.7309,4.7309,4.7402,4.7715,4.7743,4.8093,4.913,4.952,4.9993,5.0741,5.174,5.2382,5.2382,5.2135,5.1759,5.1252,5.0321,4.9543,4.9035,4.9001,4.8342,4.6853,4.68,4.6107,4.4618,4.4615,4.4615,4.4615,4.4364,4.4364,4.4584,4.4347,4.4364,4.4615,4.4615,4.4615,4.4567,4.4347,4.3927,4.3389,4.3152,4.276,4.2283,4.2049,4.2439,4.2916,4.166,4.1867,4.2628,4.1796,4.2219,4.3169,4.3738,4.4059,4.4296,4.453,4.4615,4.4615,4.4615,4.4615,4.4615,4.4615,4.4615,4.4615,4.4615,4.4615,4.4615,4.4615,4.4615,4.453,4.4296,4.3792,4.3338,4.3102,4.3068,4.3303,4.3946,4.4489,4.4824,4.4841,4.4639,4.4143,4.3189,4.2274,4.1881,4.2219,4.2853,4.3919,4.5491,4.5017,4.47,4.47,4.3928,4.3506,4.3506,4.3506,4.3506,4.3506,4.3506,4.3506,4.3506,4.3506,4.3506,4.3506,4.3506,4.3506,4.3506,4.3506,4.3506,4.3506,4.3506,4.3506,4.3469,4.3231,4.3286,4.3469,4.7309,4.7309,4.7309,4.7309,4.7309,4.7495,4.8099,4.8532,4.9013,4.9675,5.0665,5.1353,5.1456,5.1356,5.1128,5.0796,5.0084,4.9475,4.9035,4.9001,4.8477,4.7293,4.7242,4.6397,4.4649,4.4615,4.4615,4.4615,4.4615,4.4615,4.4615,4.4615,4.4615,4.4615,4.4615,4.4615,4.4615,4.4615,4.413,4.3406,4.3406,4.3135,4.2709,4.2418,4.2946,4.3724,4.2493,4.2645,4.3304,4.2743,4.3132,4.3961,4.4448,4.4615,4.4615,4.4615,4.4615,4.4615,4.4615,4.4615,4.4615,4.4615,4.4615,4.4615,4.4615,4.4615,4.4615,4.4615,4.4615,4.4615,4.4615,4.4212,4.3876,4.3876,4.3876,4.4024,4.4429,4.4847,4.5112,4.498,4.4682,4.4172,4.3357,4.2611,4.2436,4.3087,4.431,4.5506,4.6621,4.6014,4.5645,4.5645,4.4562,4.3975,4.3975,4.3653,4.3506,4.3506,4.3506,4.3506,4.3506,4.3506,4.3506,4.3506,4.3506,4.3506,4.3506,4.3506,4.3506,4.3506,4.3506,4.3506,4.3506,4.3506,4.3506,4.3506,4.7309,4.7309,4.7309,4.7309,4.7309,4.7309,4.7309,4.8093,4.8677,4.8677,4.9595,5.0335,5.0509,4.9965,4.9689,4.9944,4.9377,4.9001,4.9001,4.9001,4.8665,4.7938,4.7904,4.6938,4.4838,4.4719,4.4682,4.4615,4.4615,4.4615,4.4615,4.4615,4.4615,4.4615,4.4615,4.4615,4.4615,4.4615,4.4195,4.3507,4.3507,4.3507,4.344,4.276,4.3382,4.4482,4.369,4.3457,4.3626,4.4347,4.4615,4.4615,4.4615,4.4615,4.4615,4.4615,4.4615,4.4615,4.4615,4.4615,4.4615,4.4615,4.4615,4.4615,4.4615,4.4615,4.4615,4.4615,4.4615,4.4615,4.4615,4.4615,4.4615,4.4615,4.4615,4.4615,4.4615,4.4615,4.4615,4.4615,4.3944,4.3507,4.3507,4.2895,4.3028,4.4303,4.5631,4.6687,4.7363,4.7209,4.7094,4.7094,4.5553,4.4711,4.4637,4.3832,4.3456,4.3506,4.3506,4.3506,4.3506,4.3506,4.347,4.3427,4.347,4.347,4.3427,4.347,4.3506,4.3506,4.3506,4.3506,4.3506,4.3506,4.3506,4.3506,4.7309,4.7309,4.7309,4.7309,4.7309,4.7309,4.7309,4.7495,4.763,4.763,4.8507,4.897,4.8502,4.8533,4.8717,4.8977,4.9013,4.9001,4.9001,4.9001,4.8665,4.7938,4.7904,4.7396,4.6343,4.5754,4.5179,4.4615,4.4615,4.4615,4.4615,4.4615,4.4615,4.4615,4.4615,4.4615,4.4615,4.4615,4.4499,4.4347,4.4347,4.4347,4.433,4.4161,4.4313,4.4482,4.369,4.3809,4.4364,4.4533,4.4615,4.4615,4.4615,4.4615,4.4615,4.4615,4.4615,4.4615,4.4615,4.4615,4.4615,4.4615,4.4615,4.4615,4.4615,4.4615,4.4615,4.4615,4.4615,4.4615,4.4615,4.4615,4.4615,4.4615,4.4615,4.4615,4.4615,4.4615,4.4615,4.4615,4.4448,4.4347,4.4347,4.4195,4.4187,4.4372,4.5631,4.6687,4.7363,4.7209,4.7094,4.7094,4.5679,4.4657,4.408,4.3371,4.3186,4.3506,4.3506,4.3506,4.3506,4.3506,4.3268,4.2902,4.333,4.3259,4.2911,4.3339,4.3506,4.3506,4.3506,4.3506,4.3506,4.3506,4.3506,4.3506,4.7309,4.7309,4.7309,4.7309,4.7309,4.7309,4.7309,4.7309,4.7309,4.7309,4.7492,4.764,4.7749,4.7336,4.7191,4.7482,4.7586,4.7852,4.8289,4.8321,4.8361,4.8413,4.8428,4.8073,4.7344,4.694,4.6397,4.565,4.565,4.5464,4.5125,4.5125,4.4939,4.4615,4.4615,4.4615,4.4615,4.4615,4.4615,4.4615,4.4615,4.4615,4.4615,4.4615,4.4615,4.4533,4.4113,4.4245,4.4615,4.4615,4.4615,4.4615,4.4615,4.4615,4.4615,4.4615,4.4615,4.4615,4.4615,4.4615,4.4615,4.4615,4.4615,4.4615,4.4615,4.4615,4.4615,4.4615,4.4615,4.4615,4.4615,4.4615,4.4615,4.4615,4.4615,4.4615,4.4615,4.4615,4.4615,4.4615,4.4615,4.4615,4.4615,4.4615,4.4698,4.4914,4.583,4.656,4.691,4.7132,4.7108,4.6792,4.5674,4.4746,4.3999,4.3269,4.2831,4.2696,4.2696,4.2696,4.2696,4.2696,4.255,4.2292,4.2562,4.2694,4.2731,4.2995,4.3268,4.3506,4.3506,4.3506,4.3506,4.3506,4.3506,4.3506,4.7309,4.7309,4.7309,4.7309,4.7309,4.7309,4.7309,4.7309,4.7309,4.7309,4.6809,4.6683,4.7236,4.6248,4.5656,4.5935,4.6119,4.6523,4.7306,4.7356,4.7721,4.8497,4.8688,4.8481,4.7859,4.8014,4.765,4.68,4.68,4.6413,4.5703,4.5703,4.5314,4.4615,4.4615,4.4615,4.4615,4.4615,4.4615,4.4615,4.4615,4.4615,4.4615,4.4615,4.4615,4.4615,4.4615,4.4615,4.4615,4.4615,4.4615,4.4615,4.4615,4.4615,4.4615,4.4615,4.4615,4.4615,4.4615,4.4615,4.4615,4.4615,4.4615,4.4615,4.4615,4.4615,4.4615,4.4615,4.4685,4.4787,4.4787,4.4888,4.4922,4.4804,4.4787,4.4736,4.4632,4.4615,4.4615,4.4615,4.4615,4.4615,4.4615,4.4615,4.48,4.5307,4.592,4.6252,4.6252,4.6876,4.6977,4.643,4.5652,4.4847,4.3971,4.3194,4.2346,4.1508,4.1508,4.1617,4.181,4.181,4.1739,4.1643,4.1768,4.2072,4.2549,4.2673,4.2958,4.3375,4.3453,4.3444,4.3375,4.348,4.3506,4.3506,4.7309,4.7309,4.7309,4.7309,4.7309,4.7309,4.7309,4.7309,4.7309,4.7309,4.7234,4.6768,4.5751,4.5211,4.4942,4.4999,4.5726,4.6244,4.6384,4.6384,4.6452,4.6558,4.7356,4.7737,4.7638,4.8442,4.8189,4.68,4.68,4.6413,4.5703,4.5703,4.5314,4.4615,4.4615,4.4615,4.4615,4.4615,4.4615,4.4615,4.4615,4.4615,4.4615,4.4615,4.4615,4.4615,4.4615,4.4615,4.4615,4.4615,4.4615,4.4615,4.4615,4.4615,4.4615,4.4615,4.4615,4.4615,4.4615,4.4615,4.4615,4.4615,4.4615,4.4615,4.4615,4.4615,4.4615,4.4615,4.5108,4.5551,4.5551,4.6058,4.6278,4.5652,4.5551,4.5331,4.4685,4.4615,4.4615,4.4615,4.4615,4.4615,4.4615,4.4615,4.464,4.472,4.5267,4.5622,4.5622,4.6192,4.6501,4.6389,4.5803,4.4801,4.3424,4.2731,4.1691,4.0323,4.0323,4.085,4.181,4.181,4.1512,4.1053,4.1578,4.1853,4.1958,4.248,4.275,4.2855,4.333,4.3214,4.2864,4.3339,4.3506,4.3506,4.7309,4.7309,4.7309,4.7309,4.7309,4.7309,4.7309,4.7309,4.7309,4.7309,4.6651,4.6097,4.5867,4.5067,4.4361,4.3996,4.4343,4.4822,4.5395,4.5431,4.5652,4.6173,4.6592,4.7054,4.7589,4.8015,4.7962,4.7396,4.7834,4.7445,4.6312,4.6312,4.57,4.4615,4.4615,4.4615,4.4615,4.4615,4.4615,4.4615,4.4615,4.4615,4.4615,4.4615,4.4615,4.4615,4.4615,4.4615,4.4615,4.4615,4.4615,4.4615,4.4615,4.4615,4.4615,4.4615,4.4615,4.4615,4.4615,4.4615,4.4615,4.4615,4.4615,4.4615,4.4615,4.4922,4.5213,4.5213,4.5466,4.5838,4.6244,4.6583,4.6684,4.6363,4.5974,4.5602,4.5263,4.5213,4.5213,4.5213,4.4855,4.4615,4.4615,4.4615,4.4615,4.4615,4.5169,4.5359,4.5012,4.5558,4.5745,4.5412,4.5142,4.4263,4.2766,4.2441,4.1555,4.0096,4.0096,4.036,4.085,4.085,4.0708,4.0461,4.0732,4.1013,4.1324,4.1589,4.1895,4.2213,4.2464,4.2599,4.274,4.2967,4.3241,4.3506]},{"header":{"parameterUnit":"m.s-1","parameterCategory":1,"la1":30.6,"la2":28.766,"lo1":-90.7593,"lo2":-88.6598,"dx":0.0162,"dy":0.0183,"nx":116,"ny":114,"refTime":"2023-02-01T06:00:00:Z","depth":0,"parameterNumber":3,"parameterNumberName":"V-component_of_WINDS"},"data":[0.0,0.0,0.0,0.0,0.0,0.0,0.0,0.0,0.0,0.0,0.0,0.0,0.0,0.0,0.0,0.0,0.0,0.0,0.0,0.0,0.0,0.0,0.0,0.0,0.0,0.0,0.0,0.0,0.0,0.0,0.0,0.0,0.0,0.0,0.0,0.0,0.0,0.0,0.0,0.0,0.0,0.0,0.0,0.0,0.0,0.0,0.0,0.0,0.0,0.0,0.0,0.0,0.0,0.0,0.0,0.0,0.0,0.0,0.0,0.0,0.0,0.0,0.0,0.0,0.0,0.0,0.0,0.0,0.0,0.0,0.0,0.0,0.0,0.0,0.0,0.0,0.0,0.0,0.0,0.0,0.0,0.0,0.0,0.0,0.0,0.0,0.0,0.0,0.0,0.0,0.0,0.0,0.0,0.0,0.0,0.0,0.0,0.0,0.0,0.0,0.0,0.0,0.0,0.0,0.0,0.0,0.0,0.0,0.0,0.0,0.0,0.0,0.0,0.0,0.0,0.0,0.0,0.0,0.0,0.0,0.0,0.0,0.0,0.0,0.0,0.0,0.0,0.0,0.0,0.0,0.0,0.0,0.0,0.0,0.0,0.0,0.0,0.0,0.0,0.0,0.0,0.0,0.0,0.0,0.0,0.0,0.0,0.0,0.0,0.0,0.0,0.0,0.0,0.0,0.0,0.0,0.0,0.0,0.0,0.0,0.0,0.0,0.0,0.0,0.0,0.0,0.0,0.0,0.0,0.0,0.0,0.0,0.0,0.0,0.0,0.0,0.0,0.0,0.0,0.0,0.0,0.0,0.0,0.0,0.0,0.0,0.0,0.0,0.0,0.0,0.0,0.0,0.0,0.0,0.0,0.0,0.0,0.0,0.0,0.0,0.0,0.0,0.0,0.0,0.0,0.0,0.0,0.0,0.0,0.0,0.0,0.0,0.0,0.0,0.0,0.0,0.0,0.0,0.0,0.0,0.0,0.0,0.0,0.0,0.0,0.0,0.0,0.0,0.0,0.0,0.0,0.0,0.0,0.0,0.0,0.0,0.0,0.0,0.0,0.0,0.0,0.0,0.0,0.0,0.0,0.0,0.0,0.0,0.0,0.0,0.0,0.0,0.0,0.0,0.0,0.0,0.0,0.0,0.0,0.0,0.0,0.0,0.0,0.0,0.0,0.0,0.0,0.0,0.0,0.0,0.0,0.0,0.0,0.0,0.0,0.0,0.0,0.0,0.0,0.0,0.0,0.0,0.0,0.0,0.0,0.0,0.0,0.0,0.0,0.0,0.0,0.0,0.0,0.0,0.0,0.0,0.0,0.0,0.0,0.0,0.0,0.0,0.0,0.0,0.0,0.0,0.0,0.0,0.0,0.0,0.0,0.0,0.0,0.0,0.0,0.0,0.0,0.0,0.0,0.0,0.0,0.0,0.0,0.0,0.0,0.0,0.0,0.0,0.0,0.0,0.0,0.0,0.0,0.0,0.0,0.0,0.0,0.0,0.0,0.0,0.0,0.0,0.0,0.0,0.0,0.0,0.0,0.0,0.0,0.0,0.0,0.0,0.0,0.0,0.0,0.0,0.0,0.0,0.0,0.0,0.0,0.0,0.0,0.0,0.0,0.0,0.0,0.0,0.0,0.0,0.0,0.0,0.0,0.0,0.0,0.0,0.0,0.0,0.0,0.0,0.0,0.0,0.0,0.0,0.0,0.0,0.0,0.0,0.0,0.0,0.0,0.0,0.0,0.0,0.0,0.0,0.0,0.0,0.0,0.0,0.0,0.0,0.0,0.0,0.0,0.0,0.0,0.0,0.0,0.0,0.0,0.0,0.0,0.0,0.0,0.0,0.0,0.0,0.0,0.0,0.0,0.0,0.0,0.0,0.0,0.0,0.0,0.0,0.0,0.0,0.0,0.0,0.0,0.0,0.0,0.0,0.0,0.0,0.0,0.0,0.0,0.0,0.0,0.0,0.0,0.0,0.0,0.0,0.0,0.0,0.0,0.0,0.0,0.0,0.0,0.0,0.0,0.0,0.0,0.0,0.0,0.0,0.0,0.0,0.0,0.0,0.0,0.0,0.0,0.0,0.0,0.0,0.0,0.0,0.0,0.0,0.0,0.0,0.0,0.0,0.0,0.0,0.0,0.0,0.0,0.0,0.0,0.0,0.0,0.0,0.0,0.0,0.0,0.0,0.0,0.0,0.0,0.0,0.0,0.0,0.0,0.0,0.0,0.0,0.0,0.0,0.0,0.0,0.0,0.0,0.0,0.0,0.0,0.0,0.0,0.0,0.0,0.0,0.0,0.0,0.0,0.0,0.0,0.0,0.0,0.0,0.0,0.0,0.0,0.0,0.0,0.0,0.0,0.0,0.0,0.0,0.0,0.0,0.0,0.0,0.0,0.0,0.0,0.0,0.0,0.0,0.0,0.0,0.0,0.0,0.0,0.0,0.0,0.0,0.0,0.0,0.0,0.0,0.0,0.0,0.0,0.0,0.0,0.0,0.0,0.0,0.0,0.0,0.0,0.0,0.0,0.0,0.0,0.0,0.0,0.0,0.0,0.0,0.0,0.0,0.0,0.0,0.0,0.0,0.0,0.0,0.0,0.0,0.0,0.0,0.0,0.0,0.0,0.0,0.0,0.0,0.0,0.0,0.0,0.0,0.0,0.0,0.0,0.0,0.0,0.0,0.0,0.0,0.0,0.0,0.0,0.0,0.0,0.0,0.0,0.0,0.0,0.0,0.0,0.0,0.0,0.0,0.0,0.0,0.0,0.0,0.0,0.0,0.0,0.0,0.0,0.0,0.0,0.0,0.0,0.0,0.0,0.0,0.0,0.0,0.0,0.0,0.0,0.0,0.0,0.0,0.0,0.0,0.0,0.0,0.0,0.0,0.0,0.0,0.0,0.0,0.0,0.0,0.0,0.0,0.0,0.0,0.0,0.0,0.0,0.0,0.0,0.0,0.0,0.0,0.0,0.0,0.0,0.0,0.0,0.0,0.0,0.0,0.0,0.0,0.0,0.0,0.0,0.0,0.0,0.0,0.0,0.0,0.0,0.0,0.0,0.0,0.0,0.0,0.0,0.0,0.0,0.0,0.0,0.0,0.0,0.0,0.0,0.0,0.0,0.0,0.0,0.0,0.0,0.0,0.0,0.0,0.0,0.0,0.0,0.0,0.0,0.0,0.0,0.0,0.0,0.0,0.0,0.0,0.0,0.0,0.0,0.0,0.0,0.0,0.0,0.0,0.0,0.0,0.0,0.0,0.0,0.0,0.0,0.0,0.0,0.0,0.0,0.0,0.0,0.0,0.0,0.0,0.0,0.0,0.0,0.0,0.0,0.0,0.0,0.0,0.0,0.0,0.0,0.0,0.0,0.0,0.0,0.0,0.0,0.0,0.0,0.0,0.0,0.0,0.0,0.0,0.0,0.0,0.0,0.0,0.0,0.0,0.0,0.0,0.0,0.0,0.0,0.0,0.0,0.0,0.0,0.0,0.0,0.0,0.0,0.0,0.0,0.0,0.0,0.0,0.0,0.0,0.0,0.0,0.0,0.0,0.0,0.0,0.0,0.0,0.0,0.0,0.0,0.0,0.0,0.0,0.0,0.0,0.0,0.0,0.0,0.0,0.0,0.0,0.0,0.0,0.0,0.0,0.0,0.0,0.0,0.0,0.0,0.0,0.0,0.0,0.0,0.0,0.0,0.0,0.0,0.0,0.0,0.0,0.0,0.0,0.0,0.0,0.0,0.0,0.0,0.0,0.0,0.0,0.0,0.0,0.0,0.0,0.0,0.0,0.0,0.0,0.0,0.0,0.0,0.0,0.0,0.0,0.0,0.0,0.0,0.0,0.0,0.0,0.0,0.0,0.0,0.0,0.0,0.0,0.0,0.0,0.0,0.0,0.0,0.0,0.0,0.0,0.0,0.0,0.0,0.0,0.0,0.0,0.0,0.0,0.0,0.0,0.0,0.0,0.0,0.0,0.0,0.0,0.0,0.0,0.0,0.0,0.0,0.0,0.0,0.0,0.0,0.0,0.0,0.0,0.0,0.0,0.0,0.0,0.0,0.0,0.0,0.0,0.0,0.0,0.0,0.0,0.0,0.0,0.0,0.0,0.0,0.0,0.0,0.0,0.0,0.0,0.0,0.0,0.0,0.0,0.0,0.0,0.0,0.0,0.0,0.0,0.0,0.0,0.0,0.0,0.0,0.0,0.0,0.0,0.0,0.0,0.0,0.0,0.0,0.0,0.0,0.0,0.0,0.0,0.0,0.0,0.0,0.0,0.0,0.0,0.0,0.0,0.0,0.0,0.0,0.0,0.0,0.0,0.0,0.0,0.0,0.0,0.0,0.0,0.0,0.0,0.0,0.0,0.0,0.0,0.0,0.0,0.0,0.0,0.0,0.0,0.0,0.0,0.0,0.0,0.0,0.0,0.0,0.0,0.0,0.0,0.0,0.0,0.0,0.0,0.0,0.0,0.0,0.0,0.0,0.0,0.0,0.0,0.0,0.0,0.0,0.0,0.0,0.0,0.0,0.0,0.0,0.0,0.0,0.0,0.0,0.0,0.0,0.0,0.0,0.0,0.0,0.0,0.0,0.0,0.0,0.0,0.0,0.0,0.0,0.0,0.0,0.0,0.0,0.0,0.0,0.0,0.0,0.0,0.0,0.0,0.0,0.0,0.0,0.0,0.0,0.0,0.0,0.0,0.0,0.0,0.0,0.0,0.0,0.0,0.0,0.0,0.0,0.0,0.0,0.0,0.0,0.0,0.0,0.0,0.0,0.0,0.0,0.0,0.0,0.0,0.0,0.0,0.0,0.0,0.0,0.0,0.0,0.0,0.0,0.0,0.0,0.0,0.0,0.0,0.0,0.0,0.0,0.0,0.0,0.0,0.0,0.0,0.0,0.0,0.0,0.0,0.0,0.0,0.0,0.0,0.0,0.0,0.0,0.0,0.0,0.0,0.0,0.0,0.0,0.0,0.0,0.0,0.0,0.0,0.0,0.0,0.0,0.0,0.0,0.0,0.0,0.0,0.0,0.0,0.0,0.0,0.0,0.0,0.0,0.0,0.0,0.0,0.0,0.0,0.0,0.0,0.0,0.0,0.0,0.0,0.0,0.0,0.0,0.0,0.0,0.0,0.0,0.0,0.0,0.0,0.0,0.0,0.0,0.0,0.0,0.0,0.0,0.0,0.0,0.0,0.0,0.0,0.0,0.0,0.0,0.0,0.0,0.0,0.0,0.0,0.0,0.0,0.0,0.0,0.0,0.0,0.0,0.0,0.0,0.0,0.0,0.0,0.0,0.0,0.0,0.0,0.0,0.0,0.0,0.0,0.0,0.0,0.0,0.0,0.0,0.0,0.0,0.0,0.0,0.0,0.0,0.0,0.0,0.0,0.0,0.0,0.0,0.0,0.0,0.0,0.0,0.0,0.0,0.0,0.0,0.0,0.0,0.0,0.0,0.0,0.0,0.0,0.0,0.0,0.0,0.0,0.0,0.0,0.0,0.0,0.0,0.0,0.0,0.0,0.0,0.0,0.0,0.0,0.0,0.0,0.0,0.0,0.0,0.0,0.0,0.0,0.0,0.0,0.0,0.0,0.0,0.0,0.0,0.0,0.0,0.0,0.0,0.0,0.0,0.0,0.0,0.0,0.0,0.0,0.0,0.0,0.0,0.0,0.0,0.0,0.0,0.0,0.0,0.0,0.0,0.0,0.0,0.0,0.0,0.0,0.0,0.0,0.0,0.0,0.0,0.0,0.0,0.0,0.0,0.0,0.0,0.0,0.0,0.0,0.0,0.0,0.0,0.0,0.0,0.0,0.0,0.0,0.0,0.0,0.0,0.0,0.0,0.0,0.0,0.0,0.0,0.0,0.0,0.0,0.0,0.0,0.0,0.0,0.0,0.0,0.0,0.0,0.0,0.0,0.0,0.0,0.0,0.0,0.0,0.0,0.0,0.0,0.0,0.0,0.0,0.0,0.0,0.0,0.0,0.0,0.0,0.0,0.0,0.0,0.0,0.0,0.0,0.0,0.0,0.0,0.0,0.0,0.0,0.0,0.0,0.0,0.0,0.0,0.0,0.0,0.0,0.0,0.0,0.0,0.0,0.0,0.6032,0.0,0.0,0.0,0.0,0.0,0.0,0.0,0.0,0.0,0.0,0.0,0.0,0.0,0.0,0.0,0.0,0.0,0.0,0.0,0.0,0.0,0.0,0.0,0.0,0.0,0.0,0.0,0.0,0.0,0.0,0.0,0.0,0.0,0.0,0.0,0.0,0.0,0.0,0.0,0.0,0.0,0.0,0.0,0.0,0.0,0.0,0.0,0.0,0.0,0.0,0.0,0.0,0.0,0.0,0.0,0.0,0.0,0.0,0.0,0.0,0.0,0.0,0.0,0.0,0.0,0.0,0.0,0.0,0.0,0.0,0.0,0.0,0.0,0.0,0.0,0.0,0.0,0.0,0.0,0.0,0.0,0.0,0.0,0.0,0.0,0.0,0.0,0.0,0.0,0.0,0.0,0.0,0.0,0.0,0.0,0.0,0.0,0.0,0.0,0.0,0.0,0.0,0.0,0.0,0.0,0.0,0.0,0.0,0.0,0.0,0.0,0.0,0.0,0.0,0.0,0.0,0.6207,0.0,0.0,0.0,0.0,0.0,0.0,0.0,0.0,0.0,0.0,0.0,0.0,0.0,0.0,0.0,0.0,0.0,0.0,0.0,0.0,0.0,0.0,0.0,0.0,0.0,0.0,0.0,0.0,0.0,0.0,0.0,0.0,0.0,0.0,0.0,0.0,0.0,0.0,0.0,0.0,0.0,0.0,0.0,0.0,0.0,0.0,0.0,0.0,0.0,0.0,0.0,0.0,0.0,0.0,0.0,0.0,0.0,0.0,0.0,0.0,0.0,0.0,0.0,0.0,0.0,0.0,0.0,0.0,0.0,0.0,0.0,0.0,0.0,0.0,0.0,0.0,0.0,0.0,0.0,0.0,0.0,0.0,0.0,0.0,0.0,0.0,0.0,0.0,0.0,0.0,0.0,0.0,0.0,0.0,0.0,0.0,0.0,0.0,0.0,0.0,0.0,0.0,0.0,0.0,0.0,0.0,0.0,0.0,0.0,0.0,0.7478,0.7377,0.7292,0.7175,0.68,0.6461,0.6181,0.0,0.0,0.0,0.0,0.0,0.0,0.0,0.0,0.0,0.0,0.0,0.0,0.0,0.0,0.0,0.0,0.0,0.0,0.0,0.0,0.0,0.0,0.0,0.0,0.0,0.0,0.0,0.0,0.0,0.0,0.0,0.0,0.0,0.0,0.0,0.0,0.0,0.0,0.0,0.7033,0.7231,0.7376,0.7407,0.7033,0.0,0.0,0.0,0.0,0.0,0.0,0.0,0.0,0.0,0.0,0.0,0.0,0.0,0.0,0.0,0.0,0.0,0.0,0.0,0.0,0.0,0.0,0.0,0.0,0.0,0.0,0.0,0.0,0.0,0.0,0.0,0.0,0.0,0.0,0.0,0.0,0.0,0.0,0.0,0.0,0.0,0.0,0.0,0.5134,0.6165,0.0,0.0,0.0,0.0,0.0,0.0,0.0,0.0,0.0,0.0,0.0,0.0,0.0,0.0,0.695,0.7299,0.7275,0.6911,0.7207,0.7227,0.6999,0.7104,0.7283,0.7529,0.7359,0.0,0.6762,0.6454,0.0,0.0,0.0,0.0,0.0,0.0,0.0,0.0,0.0,0.0,0.0,0.0,0.0,0.0,0.0,0.0,0.0,0.0,0.0,0.0,0.0,0.0,0.0,0.0,0.0,0.0,0.0,0.0,0.0,0.0,0.0,0.0,0.0,0.0,0.0,0.0,0.7279,0.7384,0.7381,0.7736,0.7883,0.7814,0.7618,0.7547,0.756,0.6998,0.0,0.0,0.0,0.0,0.0,0.0,0.0,0.0,0.0,0.0,0.0,0.0,0.0,0.0,0.0,0.0,0.0,0.0,0.0,0.0,0.0,0.0,0.0,0.0,0.0,0.0,0.0,0.0,0.0,0.0,0.0,0.0,0.0,0.0,0.0,0.0,0.0,0.0,0.0,0.561,0.5841,0.6245,0.6211,0.6184,0.0,0.0,0.0,0.0,0.0,0.0,0.0,0.0,0.0,0.6967,0.7156,0.7205,0.7095,0.7421,0.7584,0.751,0.7773,0.7876,0.7804,0.7865,0.7967,0.8085,0.7964,0.7753,0.7489,0.6955,0.6732,0.6671,0.0,0.0,0.0,0.0,0.0,0.0,0.0,0.0,0.0,0.0,0.0,0.0,0.0,0.0,0.0,0.0,0.0,0.0,0.0,0.0,0.0,0.7899,0.0,0.0,0.0,0.0,0.0,0.0,0.0,0.0,0.0,0.0,0.0,0.0,0.7832,0.7862,0.7848,0.8258,0.8398,0.8299,0.8314,0.814,0.779,0.7265,0.6976,0.0,0.0,0.0,0.0,0.0,0.0,0.0,0.0,0.0,0.0,0.0,0.0,0.0,0.0,0.0,0.0,0.0,0.0,0.0,0.0,0.0,0.0,0.0,0.0,0.0,0.0,0.0,0.0,0.0,0.0,0.0,0.0,0.0,0.0,0.0,0.0,0.0,0.0,0.6422,0.6517,0.6503,0.5994,0.5811,0.0,0.0,0.0,0.0,0.0,0.0,0.6941,0.7137,0.7252,0.729,0.7499,0.7587,0.7462,0.7709,0.7936,0.8128,0.8269,0.8406,0.8509,0.8509,0.8529,0.8533,0.8413,0.8258,0.8077,0.7442,0.7243,0.7355,0.7189,0.7186,0.0,0.7312,0.7158,0.6992,0.0,0.0,0.0,0.0,0.0,0.0,0.0,0.0,0.0,0.0,0.0,0.0,0.0,0.0,0.6113,0.758,0.7647,0.7568,0.0,0.0,0.0,0.0,0.0,0.0,0.0,0.0,0.0,0.7986,0.7738,0.7916,0.8454,0.8739,0.8969,0.913,0.9132,0.8879,0.8417,0.7682,0.7369,0.7308,0.0,0.0,0.0,0.0,0.0,0.0,0.0,0.0,0.0,0.0,0.0,0.0,0.0,0.0,0.0,0.0,0.0,0.0,0.0,0.0,0.0,0.0,0.0,0.0,0.0,0.0,0.0,0.0,0.0,0.0,0.0,0.0,0.0,0.0,0.0,0.0,0.0,0.0,0.0,0.6995,0.6581,0.0,0.0,0.0,0.0,0.6774,0.6944,0.7077,0.71,0.7391,0.7638,0.7773,0.8093,0.8311,0.844,0.8454,0.8471,0.8485,0.8495,0.8502,0.8509,0.8509,0.856,0.8689,0.8537,0.8492,0.8427,0.7689,0.8091,0.9152,0.8884,0.8854,0.8983,0.8983,0.8187,0.7088,0.0,0.0,0.0,0.0,0.0,0.0,0.0,0.0,0.0,0.0,0.0,0.0,0.0,0.7122,0.7773,0.8595,0.8531,0.8287,0.7911,0.0,0.0,0.0,0.0,0.0,0.0,0.0,0.5887,0.8588,0.8486,0.8653,0.9079,0.9362,0.9446,0.9378,0.9384,0.9242,0.8893,0.8119,0.7634,0.7342,0.6736,0.6426,0.0,0.0,0.0,0.0,0.0,0.0,0.0,0.0,0.0,0.0,0.0,0.0,0.0,0.0,0.0,0.0,0.0,0.0,0.0,0.0,0.0,0.0,0.0,0.0,0.0,0.0,0.0,0.0,0.0,0.0,0.0,0.0,0.0,0.0,0.0,0.0,0.0,0.7081,0.7039,0.0,0.0,0.6822,0.7024,0.7174,0.7125,0.7236,0.753,0.7746,0.7969,0.8235,0.8376,0.8526,0.8747,0.8747,0.8872,0.9087,0.9087,0.9087,0.9087,0.9087,0.9066,0.9015,0.8838,0.9251,1.001,0.9662,0.955,0.9505,0.8373,0.8521,0.9255,0.8428,0.7882,0.7563,0.0,0.0,0.0,0.0,0.0,0.0,0.0,0.0,0.0,0.0,0.0,0.6813,0.7634,0.8237,0.8714,0.9056,0.8927,0.8601,0.8025,0.0,0.0,0.0,0.0,0.0,0.0,0.5586,0.7884,0.8889,0.9096,0.9326,0.9547,0.9719,0.974,0.9589,0.9589,0.9507,0.9298,0.8723,0.8147,0.755,0.7018,0.6828,0.6825,0.0,0.0,0.0,0.0,0.0,0.0,0.0,0.0,0.0,0.0,0.0,0.0,0.0,0.0,0.0,0.0,0.0,0.0,0.0,0.0,0.0,0.0,0.0,0.0,0.0,0.0,0.0,0.0,0.0,0.0,0.0,0.0,0.0,0.0,0.0,0.7252,0.7202,0.7446,0.746,0.7102,0.7232,0.7384,0.7526,0.7511,0.7651,0.795,0.8131,0.8331,0.8554,0.8682,0.8835,0.9008,0.9034,0.9188,0.941,0.941,0.941,0.941,0.941,0.9325,0.9204,0.9052,0.9737,1.0893,1.0792,1.1,1.1173,0.9681,0.9594,1.017,0.894,0.8265,0.798,0.0,0.0,0.0,0.0,0.0,0.0,0.0,0.0,0.0,0.0,0.6071,0.675,0.7893,0.8325,0.8625,0.8906,0.8781,0.8497,0.8057,0.7444,0.0,0.0,0.0,0.0,0.6267,0.7443,0.8327,0.8919,0.9525,0.9797,0.9804,0.9788,0.9792,0.9792,0.9792,0.9714,0.9605,0.9452,0.8886,0.8023,0.758,0.7502,0.7526,0.0,0.0,0.0,0.0,0.0,0.0,0.0,0.0,0.0,0.0,0.0,0.0,0.0,0.0,0.0,0.0,0.0,0.0,0.0,0.0,0.0,0.0,0.0,0.0,0.0,0.0,0.0,0.0,0.0,0.0,0.0,0.0,0.0,0.6637,0.7207,0.7556,0.745,0.7797,0.7922,0.7655,0.775,0.7831,0.7831,0.8134,0.8304,0.8311,0.8557,0.8713,0.8723,0.9029,0.9214,0.9224,0.9342,0.942,0.9424,0.9424,0.9424,0.9424,0.9424,0.9371,0.9281,0.9281,0.9955,1.1052,1.1052,1.2378,1.4259,1.2938,1.2227,1.1839,1.0702,0.9474,0.8371,0.0,0.0,0.0,0.0,0.0,0.0,0.0,0.0,0.0,0.0,0.6394,0.7222,0.85,0.8866,0.9121,0.9398,0.8988,0.8611,0.8377,0.0,0.0,0.0,0.0,0.0,0.7483,0.828,0.8955,0.9548,0.972,0.9786,0.9794,0.9805,0.9792,0.9792,0.9792,0.9768,0.9724,0.9608,0.9405,0.9071,0.8189,0.779,0.7695,0.0,0.0,0.0,0.0,0.0,0.0,0.0,0.0,0.0,0.0,0.0,0.0,0.0,0.0,0.0,0.0,0.0,0.0,0.0,0.0,0.0,0.0,0.0,0.0,0.0,0.0,0.0,0.0,0.0,0.0,0.0,0.0,0.7396,0.759,0.7695,0.7899,0.8296,0.8452,0.8452,0.8258,0.8275,0.8299,0.8299,0.8403,0.8498,0.8584,0.8665,0.8808,0.9053,0.9138,0.9288,0.9483,0.9527,0.9598,0.97,0.97,0.97,0.97,0.97,1.0261,1.1234,1.1234,1.247,1.4527,1.4527,1.5261,1.6151,1.3654,1.3084,1.3514,1.2476,1.1122,0.9821,0.0,0.0,0.0,0.0,0.0,0.0,0.0,0.0,0.0,0.0,0.6707,0.7603,0.8887,0.9137,0.9254,0.943,0.8927,0.8472,0.8133,0.0,0.0,0.0,0.0,0.7526,0.7814,0.8531,0.921,0.9791,0.9795,0.9801,0.9792,0.9791,0.9791,0.9794,0.9796,0.9789,0.9791,0.9805,0.9792,0.971,0.9098,0.8727,0.8496,0.7858,0.7668,0.7729,0.7398,0.7387,0.7475,0.7299,0.0,0.0,0.0,0.0,0.0,0.0,0.0,0.0,0.0,0.0,0.0,0.0,0.0,0.0,0.0,0.0,0.0,0.0,0.0,0.0,0.0,0.0,0.0,0.0,0.7488,0.7929,0.8438,0.8323,0.8364,0.8838,0.8954,0.893,0.8805,0.8791,0.874,0.8587,0.8635,0.8682,0.871,0.8743,0.8913,0.9204,0.9243,0.9393,0.9608,0.9666,0.971,0.9822,1.0479,1.0808,1.0838,1.1495,1.226,0.0,1.3013,1.4122,1.5887,1.5887,1.6421,0.0,0.0,0.0,0.0,0.0,1.2212,1.1321,0.0,0.0,0.0,0.0,0.0,0.0,0.0,0.0,0.0,0.0,0.0,0.7804,0.8952,0.9113,0.9155,0.9155,0.8747,0.8201,0.0,0.0,0.0,0.6728,0.8117,0.8488,0.7762,0.8572,0.9276,0.9793,0.9801,0.9785,0.9788,0.9813,0.982,0.9889,0.9893,0.9911,0.9924,1.0026,1.0069,1.0045,1.0045,0.9856,0.952,0.8733,0.8537,0.8639,0.8109,0.7777,0.7614,0.7563,0.0,0.0,0.0,0.0,0.0,0.0,0.0,0.0,0.0,0.0,0.0,0.0,0.0,0.0,0.0,0.0,0.0,0.0,0.0,0.0,0.0,0.0,0.0,0.0,0.7983,0.8358,0.9107,0.8967,0.891,0.9203,0.9339,0.9349,0.9224,0.921,0.9066,0.8757,0.8848,0.8875,0.0,0.0,0.0,0.0,0.0,0.9479,0.9632,0.9727,0.9879,1.0092,1.1529,1.2307,1.2513,1.3944,1.464,1.4679,1.4679,1.5274,1.6186,1.6186,1.661,1.7117,1.5902,1.5285,1.4989,1.3911,1.3221,0.0,0.0,0.0,0.0,0.0,0.0,0.0,0.0,0.0,0.0,0.6224,0.6799,0.7438,0.8156,0.8659,0.8953,0.8953,0.857,0.7915,0.0,0.0,0.5989,0.5037,0.7193,0.8477,0.8644,0.9289,0.9672,0.9793,0.9812,0.9816,0.9788,0.9809,1.0071,1.0531,1.0527,1.0527,1.0499,1.0234,1.0164,1.0236,1.0236,0.9985,0.9578,0.9279,0.9052,0.8835,0.8595,0.8733,0.8964,0.8574,0.8486,0.849,0.8099,0.0,0.0,0.0,0.0,0.0,0.0,0.0,0.0,0.0,0.0,0.0,0.0,0.0,0.0,0.0,0.0,0.0,0.0,0.0,0.0,0.7908,0.8402,0.8872,0.9311,0.9395,0.9456,0.9513,0.9439,0.9349,0.9224,0.921,0.9111,0.8879,0.9028,0.9124,0.9097,0.924,0.0,0.9517,0.9551,0.9635,0.9748,0.9775,1.0452,1.1736,0.0,0.0,1.4153,1.4455,1.5284,1.6505,1.6505,1.7068,1.8004,1.8004,1.782,1.7475,1.7002,1.6911,1.7043,1.6799,1.5728,1.4363,0.0,0.0,0.0,0.0,0.0,0.0,0.0,0.0,0.0,0.0,0.6712,0.7212,0.7736,0.8064,0.8213,0.816,0.7814,0.0,0.0,0.5671,0.54,0.6063,0.7878,0.9002,0.9355,0.9656,0.9886,1.004,0.9868,0.9969,1.0266,1.025,1.0417,1.0688,1.07,1.0693,1.0688,1.0502,1.0388,1.036,1.047,1.0321,1.0036,0.9886,0.9642,0.9342,0.9264,0.9266,0.926,0.9036,0.8981,0.8967,0.8543,0.8196,0.7818,0.0,0.0,0.0,0.0,0.0,0.0,0.0,0.0,0.0,0.0,0.0,0.0,0.0,0.0,0.706,0.0,0.0,0.7942,0.8392,0.8838,0.9262,0.9561,0.9669,0.9687,0.9687,0.9649,0.9544,0.9424,0.941,0.932,0.9171,0.9254,0.9294,0.9294,0.9369,0.9452,0.9605,0.9608,0.968,0.9788,0.9792,1.06,1.2217,1.3023,1.4242,1.5843,1.6621,1.7455,1.8192,1.8192,1.8403,1.8684,1.8363,1.8063,1.7756,1.7508,1.7481,1.7608,1.7608,1.6814,1.5771,0.0,0.0,0.0,0.0,0.0,0.0,0.0,0.0,0.0,0.0,0.0,0.6958,0.7339,0.7458,0.7451,0.0,0.0,0.0,0.0,0.5135,0.5022,0.7066,0.8608,0.9517,0.9795,0.9822,1.0002,1.0312,1.0045,1.0189,1.0686,1.0703,1.0704,1.0707,1.0699,1.0686,1.0711,1.0703,1.0613,1.0479,1.0637,1.0646,1.0521,1.0375,1.0131,0.9832,0.9802,0.9534,0.9214,0.9216,0.9234,0.9121,0.876,0.8635,0.8468,0.7644,0.7477,0.0,0.0,0.0,0.0,0.0,0.0,0.0,0.0,0.0,0.6919,0.7046,0.7192,0.7411,0.7828,0.8023,0.8331,0.8906,0.9273,0.9561,0.9798,0.9836,0.9836,0.9836,0.9808,0.9734,0.9625,0.9608,0.9547,0.9424,0.9437,0.9425,0.9425,0.9452,0.9523,0.9646,0.9649,0.9703,0.9788,0.9792,1.0751,1.2693,1.3974,1.5607,1.7501,1.8794,1.9395,1.9395,1.9334,1.9145,1.8856,1.8323,1.8069,1.7975,1.7836,1.7689,1.7608,1.7608,1.7274,1.6827,0.0,0.0,0.0,0.0,0.0,0.0,0.0,0.0,0.0,0.0,0.0,0.0,0.0,0.0,0.0,0.0,0.0,0.0,0.7832,0.7777,0.698,0.5288,0.7894,0.9512,0.9791,0.9913,1.011,1.0379,1.0341,1.047,1.0703,1.0691,1.0694,1.0697,1.0714,1.0711,1.0697,1.0714,1.0677,1.0661,1.0681,1.0677,1.0644,1.0524,1.0283,0.9974,0.9839,0.9534,0.9231,0.9339,0.9294,0.9196,0.9134,0.9128,0.904,0.8556,0.0,0.7284,0.6661,0.6315,0.6218,0.6586,0.6607,0.6722,0.0,0.0,0.7539,0.7682,0.781,0.7973,0.8209,0.8448,0.8788,0.9256,0.9581,0.9802,0.9967,0.9991,0.9991,0.9991,0.9873,0.9734,0.9625,0.9608,0.9547,0.9424,0.9507,0.9585,0.9585,0.9703,0.9751,0.9765,0.9768,0.9775,0.9792,0.9792,1.1318,1.4336,1.4515,1.6179,1.9127,1.9307,1.9395,1.9381,1.9085,1.8923,1.887,1.8571,1.8256,1.8042,1.8297,1.8056,1.7608,1.7608,1.7401,1.7159,0.0,0.0,0.0,0.0,0.0,0.0,0.0,0.0,0.0,0.0,0.0,0.0,0.0,0.0,0.0,0.0,0.0,0.0,0.7241,0.7181,0.7329,0.7722,0.9189,0.9967,0.992,1.0153,1.0382,1.057,1.0562,1.0626,1.0695,1.069,1.0688,1.0688,1.0688,1.0688,1.0688,1.0688,1.0688,1.0688,1.0688,1.0633,1.0571,1.0426,1.0131,0.9744,0.9622,0.9334,0.0,0.0,0.9008,0.9042,0.9163,0.9196,0.9214,0.9281,0.8567,0.0,0.716,0.6756,0.0,0.0,0.6983,0.7226,0.7492,0.7641,0.7767,0.7888,0.8179,0.8449,0.8632,0.8899,0.9218,0.0,0.9815,1.0036,1.0273,1.0126,1.0018,1.0049,0.9842,0.9707,0.97,0.9704,0.9707,0.9642,0.9696,0.9704,0.9704,0.9758,0.9832,0.992,0.9836,0.9832,0.992,0.9836,1.1486,1.4821,1.4665,1.637,1.9642,1.9475,1.9395,1.9388,1.9261,1.9185,1.9158,1.8865,1.8643,1.8523,1.851,1.8364,1.809,1.7889,1.7555,1.7226,0.0,0.0,0.0,0.0,0.0,0.0,0.0,0.0,0.0,0.0,0.0,0.0,0.0,0.0,0.0,0.0,0.0,0.0,0.0,0.6437,0.7363,0.9928,1.0199,1.0235,1.014,1.0382,1.0568,1.0688,1.0688,1.0688,1.0688,1.0688,1.0688,1.0688,1.0688,1.0688,1.0688,1.0688,1.0688,1.0688,1.0688,1.0605,1.0412,1.0226,0.9822,0.9347,0.9235,0.895,0.0,0.0,0.853,0.8637,0.8989,0.9107,0.9031,0.8571,0.8164,0.7682,0.6966,0.0,0.0,0.7014,0.7387,0.7702,0.7658,0.7814,0.8041,0.8169,0.8459,0.8767,0.8936,0.9208,0.0,0.972,0.9961,1.0206,1.0344,1.0153,0.9988,0.9971,0.9696,0.9523,0.9629,0.9713,0.9748,0.9788,0.9792,0.9808,0.9852,0.9852,0.9923,1.0076,0.9974,0.9971,1.0079,0.9971,1.1675,1.5075,1.4887,1.659,1.9907,1.9619,1.9515,1.9515,1.9435,1.9395,1.9381,1.9132,1.897,1.8883,1.8784,1.8659,1.8477,1.8309,1.7909,1.7441,0.0,0.0,0.0,0.0,0.0,0.0,0.0,0.0,0.0,0.0,0.0,0.0,0.0,0.0,0.0,0.0,0.0,0.0,0.0,0.6417,0.7396,1.054,1.0241,1.0153,1.0473,1.0487,1.0568,1.0688,1.0688,1.0688,1.0688,1.0688,1.0688,1.0688,1.0688,1.0688,1.0688,1.0688,1.0688,1.0688,1.0688,1.0544,1.0284,0.9951,0.9349,0.8737,0.873,0.0,0.0,0.0,0.7893,0.7882,0.865,0.8897,0.0,0.5796,0.6171,0.0,0.0,0.0,0.7393,0.7382,0.7695,0.804,0.8236,0.8383,0.8506,0.8659,0.8703,0.8798,0.9121,0.9305,0.9432,0.9591,0.9985,1.0222,1.0052,1.0025,0.9913,0.9656,0.9383,0.9224,0.0,0.9442,0.9673,0.9781,0.9792,0.9856,0.9974,0.998,1.0082,1.0266,1.0301,1.0301,1.0305,1.0301,1.198,1.5303,1.5267,1.7002,2.0184,1.992,1.9786,1.9773,1.9522,1.9395,1.9395,1.9388,1.9185,1.8923,1.9261,1.902,1.8524,1.877,1.8496,1.7949,0.0,0.0,0.0,0.0,0.0,0.0,0.0,0.0,0.0,0.0,0.0,0.0,0.0,0.0,0.0,0.0,0.0,0.0,0.0,0.4578,0.6221,0.9688,1.0116,1.0242,1.0163,1.0392,1.0568,1.0688,1.0688,1.0688,1.0688,1.0688,1.0688,1.0688,1.0688,1.0688,1.0688,1.0688,1.0688,1.0671,1.0507,1.0342,1.0107,0.9601,0.9175,0.8751,0.0,0.0,0.0,0.0,0.0,0.0,0.7582,0.0,0.0,0.4871,0.0,0.0,0.0,0.0,0.7954,0.7842,0.8075,0.8347,0.8423,0.8526,0.8618,0.857,0.8638,0.871,0.8733,0.8916,0.9167,0.9418,0.9836,1.0113,1.0195,1.0202,1.0056,0.9656,0.9429,0.0,0.0,0.0,0.0,0.9765,0.9792,0.993,1.0188,1.0202,1.027,1.0415,1.0363,1.0327,1.0419,1.0327,1.2083,1.5594,1.7834,1.9257,1.994,1.9846,1.9693,1.9535,1.9441,1.9395,1.9395,1.9395,1.9334,1.9225,1.9354,1.9274,1.9087,1.8958,1.877,1.8529,0.0,0.0,0.0,0.0,0.0,0.0,0.0,0.0,0.0,0.0,0.0,0.0,0.0,0.0,0.0,0.0,0.0,0.0,0.0,0.0,0.6437,0.8892,0.9471,0.9733,0.9727,0.9812,0.9981,1.0243,1.0265,1.0346,1.0451,1.0505,1.0565,1.0565,1.0565,1.0565,1.0561,1.0471,1.0387,1.0265,0.9998,0.9816,0.9599,0.9091,0.8834,0.0,0.0,0.0,0.0,0.0,0.0,0.0,0.0,0.0,0.0,0.0,0.0,0.0,0.0,0.8164,0.8506,0.843,0.8621,0.8815,0.876,0.8757,0.8733,0.8549,0.852,0.8523,0.8451,0.8567,0.8798,0.9093,0.9399,0.9694,0.993,0.9992,0.9852,0.9561,0.9424,0.0,0.0,0.0,0.0,0.9717,0.9812,0.9981,1.0266,1.0359,1.0422,1.0568,1.0483,1.048,1.0571,1.1088,1.3157,1.6721,1.9512,2.0635,2.0261,2.0047,1.9853,1.9666,1.9488,1.9395,1.9395,1.9395,1.9395,1.9395,1.9395,1.9395,1.9374,1.9152,1.899,1.8823,0.0,0.0,0.0,0.0,0.0,0.0,0.0,0.0,0.0,0.0,0.0,0.0,0.0,0.0,0.0,0.0,0.0,0.0,0.0,0.0,0.0,0.8201,0.8374,0.8689,0.9156,0.8845,0.8923,0.9386,0.9503,0.9687,0.9933,1.0141,1.0244,1.0244,1.0244,1.0244,1.0233,1.0015,0.9785,0.9523,0.9268,0.9055,0.8809,0.8302,0.0,0.0,0.0,0.0,0.0,0.0,0.0,0.0,0.0,0.0,0.0,0.0,0.0,0.8111,0.8493,0.8762,0.8956,0.9155,0.9294,0.9359,0.9206,0.9025,0.8801,0.8523,0.8366,0.826,0.0,0.0,0.8379,0.8652,0.8825,0.9044,0.9364,0.9441,0.9437,0.0,0.0,0.0,0.0,0.0,0.0,0.9717,0.0,1.0214,1.0449,1.0558,1.0699,1.0846,1.0754,1.0688,1.0688,1.2512,1.5139,1.8506,2.0259,2.1102,2.1069,2.0477,2.021,2.015,1.9626,1.9408,1.9395,1.9395,1.9395,1.9395,1.9395,1.9395,1.9395,1.9395,1.9192,1.8876,0.0,0.0,0.0,0.0,0.0,0.0,0.0,0.0,0.0,0.0,0.0,0.0,0.0,0.0,0.0,0.0,0.0,0.0,0.0,0.0,0.0,0.0,0.0,0.0,0.0,0.0,0.0,0.0,0.9061,0.9119,0.9193,0.9234,0.9254,0.9254,0.9254,0.9254,0.924,0.9088,0.8944,0.8787,0.0,0.863,0.8236,0.0,0.0,0.0,0.0,0.0,0.0,0.0,0.0,0.0,0.0,0.0,0.632,0.0,0.0,0.8474,0.8635,0.89,0.9162,0.9315,0.9294,0.9203,0.9025,0.8788,0.8513,0.8189,0.795,0.776,0.0,0.0,0.0,0.8492,0.9045,0.0,0.9683,0.9775,0.0,0.0,0.0,0.9564,0.9373,0.9625,0.0,0.0,1.1843,1.2105,1.2519,1.2584,1.2595,1.2639,1.1372,1.0688,1.0688,1.3713,1.6334,1.8506,2.0259,2.0995,2.0813,2.0628,2.0327,1.99,1.9753,1.9595,1.9395,1.9395,1.9395,1.9395,1.9395,1.9395,1.9395,1.9395,1.9348,1.9267,0.0,0.0,0.0,0.0,0.0,0.0,0.0,0.0,0.0,0.0,0.0,0.0,0.0,0.0,0.0,0.0,0.0,0.0,0.0,0.0,0.0,0.0,0.0,0.0,0.0,0.0,0.0,0.0,0.0,0.0,0.8419,0.8486,0.8483,0.8419,0.8419,0.8385,0.8343,0.8378,0.0,0.0,0.0,0.0,0.0,0.0,0.0,0.0,0.0,0.0,0.0,0.0,0.0,0.3311,0.6492,0.7425,0.7456,0.7886,0.0,0.8775,0.8954,0.9222,0.9466,0.9554,0.9462,0.9279,0.8973,0.8703,0.836,0.7908,0.7662,0.0,0.0,0.0,0.0,0.0,0.0,0.0,0.9479,0.9659,0.9714,0.0,0.9802,0.0,1.0752,1.0389,1.1156,0.0,1.3225,1.3275,1.4304,1.4405,1.4423,1.4423,1.3484,1.3357,1.4134,1.6048,1.7923,1.9642,2.0621,2.1022,2.0862,2.0766,2.0532,2.0167,0.0,1.9706,1.9575,1.9448,1.9395,1.9395,1.9395,1.9395,1.9395,1.9395,1.9395,1.9395,0.0,0.0,0.0,0.0,0.0,0.0,0.0,0.0,0.0,0.0,0.0,0.0,0.0,0.0,0.0,0.0,0.0,0.0,0.0,0.0,0.0,0.0,0.0,0.0,0.0,0.0,0.0,0.0,0.0,0.0,0.0,0.0,0.0,0.0,0.0,0.0,0.0,0.0,0.0,0.0,0.0,0.0,0.0,0.0,0.0,0.0,0.0,0.0,0.0,0.0,0.2439,0.568,0.6953,0.7341,0.7425,0.7955,0.8515,0.9031,0.9337,0.9612,0.9792,0.9792,0.9683,0.9435,0.8977,0.8642,0.8238,0.7682,0.0,0.7365,0.7365,0.7413,0.7577,0.8,0.0,0.8614,0.9189,0.9386,0.954,0.9788,1.017,1.0968,1.2495,1.1449,1.2179,1.5786,1.4463,1.4221,1.597,1.6193,1.6145,1.5913,1.5913,1.6754,1.8474,1.8506,1.9381,2.1109,2.1109,2.1109,2.1102,2.0848,2.0746,2.0679,0.0,0.0,1.9833,1.9535,1.9421,1.9455,1.9455,1.9428,1.9408,1.9481,1.9488,1.9461,0.0,0.0,0.0,0.0,0.0,0.0,0.0,0.0,0.0,0.0,0.0,0.0,0.0,0.0,0.0,0.0,0.0,0.0,0.0,0.0,0.0,0.0,0.0,0.0,0.0,0.0,0.0,0.0,0.0,0.0,0.0,0.0,0.0,0.0,0.0,0.0,0.0,0.0,0.0,0.0,0.0,0.0,0.0,0.0,0.0,0.0,0.0,0.0,0.0,0.0,0.0495,0.1426,0.3351,0.4603,0.582,0.8071,0.9013,0.9344,0.952,0.9693,0.9792,0.9792,0.9523,0.9175,0.8825,0.8323,0.0,0.0,0.0,0.7158,0.7158,0.7462,0.0,0.8333,0.0,0.0,0.0,0.0,0.9781,0.0,0.0,0.0,0.0,0.0,0.0,0.0,0.0,0.0,1.7919,1.8029,1.7404,1.5951,1.5913,1.6754,1.8474,1.8506,1.9381,2.1109,2.1109,2.1109,2.1109,2.1056,2.0902,2.0692,0.0,0.0,2.0084,1.9586,1.9535,1.9726,1.9726,1.9609,1.9455,1.9907,1.9927,1.976,0.0,0.0,0.0,0.0,0.0,0.0,0.0,0.0,0.0,0.0,0.0,0.0,0.0,0.0,0.0,0.0,0.0,0.0,0.0,0.0,0.0,0.0,0.0,0.0,0.0,0.0,0.0,0.0,0.0,0.0,0.0,0.0,0.0,0.0,0.0,0.0,0.0,0.0,0.0,0.0,0.0,0.0,0.0,0.0,0.0,0.0,0.0,0.0,0.0,0.0,0.0,0.0172,0.1166,0.1895,0.3287,0.7975,0.9483,0.961,0.9683,0.9798,0.989,0.9808,0.9512,0.9083,0.8679,0.0,0.0,0.0,0.0,0.7007,0.7082,0.0,0.0,0.0,0.0,0.0,0.0,0.0,0.0,0.0,0.0,0.0,0.0,0.0,0.0,0.0,0.0,0.0,0.0,1.9839,1.9483,1.8634,1.8602,1.9024,1.9839,1.9839,2.0259,2.1109,2.1109,2.1109,2.1109,2.1109,2.1036,2.0875,0.0,0.0,2.0157,1.9606,1.9481,1.9622,1.974,1.9713,1.9646,2.0044,2.0117,2.0017,0.0,0.0,0.0,0.0,0.0,0.0,0.0,0.0,0.0,0.0,0.0,0.0,0.0,0.0,0.0,0.0,0.0,0.0,0.0,0.0,0.0,0.0,0.0,0.0,0.0,0.0,0.0,0.0,0.0,0.0,0.0,0.0,0.0,0.0,0.0,0.0,0.0,0.0,0.0,0.0,0.0,0.0,0.0,0.0,0.0,0.0,0.0,0.0,0.0,0.0,0.029,0.0773,0.1331,0.1254,0.185,0.6362,0.8696,0.9807,0.9907,0.9988,1.0032,0.9879,0.9507,0.9091,0.8611,0.8022,0.0,0.0,0.6984,0.6951,0.7068,0.0,0.0,0.0,0.0,0.0,0.0,0.0,0.0,0.0,0.0,0.0,0.0,0.0,0.0,0.0,0.0,0.0,0.0,2.1109,2.1109,2.1109,2.1109,2.1109,2.1109,2.1109,2.1109,2.1109,2.1109,2.1109,2.1109,2.1109,2.1109,2.1082,0.0,0.0,0.0,1.9793,1.9582,1.9609,1.9873,1.9907,1.9853,2.0237,2.035,2.0304,0.0,0.0,0.0,0.0,0.0,0.0,0.0,0.0,0.0,0.0,0.0,0.0,0.0,0.0,0.0,0.0,0.0,0.0,0.0,0.0,0.0,0.0,0.0,0.0,0.0,0.0,0.0,0.0,0.0,0.0,0.0,0.0,0.0,0.0,0.0,0.0,0.0,0.0,0.0,0.0,0.0,0.0,0.0,0.0,0.0,0.0,0.0,0.0,0.0,0.0,0.0,0.3236,0.5669,0.5356,0.3677,0.154,0.0,0.0,1.0239,1.0318,1.0222,1.0035,0.9588,0.9091,0.8611,0.0,0.0,0.7154,0.6984,0.6951,0.7068,0.0,0.0,0.0,0.0,0.8553,0.0,0.0,0.0,0.0,0.0,0.0,0.0,0.0,0.0,0.0,0.0,0.0,0.0,2.1109,2.1109,2.1109,2.1109,2.1109,2.1109,2.1109,2.1109,2.1109,2.1109,2.1109,2.1109,2.1109,2.1109,2.1089,0.0,0.0,0.0,2.0364,2.0124,2.015,2.0481,2.0274,1.99,2.0722,2.0862,2.0706,0.0,0.0,0.0,0.0,0.0,0.0,0.0,0.0,0.0,0.0,0.0,0.0,0.0,0.0,0.0,0.0,0.0,0.0,0.0,0.0,0.0,0.0,0.0,0.0,0.0,0.0,0.0,0.0,0.0,0.0,0.0,0.0,0.0,0.0,0.0,0.0,0.0,0.0,0.0,0.0,0.0,0.0,0.0,0.0,0.0,0.0,0.0,0.0,0.0,0.0,0.0,0.0,0.6056,0.6588,0.0,0.0,0.7253,0.9745,1.0249,1.0408,1.0351,1.0079,0.9504,0.893,0.859,0.0,0.7066,0.7006,0.6874,0.6816,0.6965,0.0,0.0,0.0,0.0,0.0,0.0,0.0,0.0,0.0,0.0,0.0,0.0,0.0,0.0,0.0,0.0,0.0,0.0,0.0,2.1109,2.1109,2.1109,2.1109,2.1109,2.1109,2.1109,2.1109,2.1109,2.1109,2.1109,2.1109,2.1109,0.0,0.0,0.0,0.0,2.037,2.0204,2.023,2.0561,2.0565,2.0388,2.0915,2.1036,2.0955,0.0,0.0,0.0,0.0,0.0,0.0,0.0,0.0,0.0,0.0,0.0,0.0,0.0,0.0,0.0,0.0,0.0,0.0,0.0,0.0,0.0,0.0,0.0,0.0,0.0,0.0,0.0,0.0,0.0,0.0,0.0,0.0,0.0,0.0,0.0,0.0,0.0,0.0,0.0,0.0,0.0,0.0,0.0,0.0,0.0,0.0,0.0,0.0,0.0,0.0,0.0,0.0,0.0,0.0,0.0,0.0,0.8706,0.9509,0.9943,1.0249,1.0358,1.0025,0.9426,0.8821,0.0,0.0,0.6921,0.6962,0.6816,0.6759,0.6935,0.72,0.7444,0.0,0.0,0.7855,0.0,0.0,0.0,0.0,0.0,0.0,0.0,0.0,0.0,0.0,0.0,0.0,0.0,0.0,2.1203,2.1109,2.1109,2.1109,2.1109,2.1109,2.1109,2.1109,2.1109,2.1109,2.1109,2.1109,2.1109,0.0,0.0,0.0,0.0,2.0544,2.041,2.0394,2.0688,2.0786,2.0746,2.1002,2.1109,2.1109,0.0,0.0,0.0,0.0,0.0,0.0,0.0,0.0,0.0,0.0,0.0,0.0,0.0,0.0,0.0,0.0,0.0,0.0,0.0,0.0,0.0,0.0,0.0,0.0,0.0,0.0,0.0,0.0,0.0,0.0,0.0,0.0,0.0,0.0,0.0,0.0,0.0,0.0,0.0,0.0,0.0,0.0,0.0,0.0,0.0,0.0,0.0,0.0,0.0,0.0,0.0,0.0,0.0,0.0,0.0,0.0,0.8111,0.9195,0.9223,0.9748,1.0209,0.99,0.9349,0.8794,0.0,0.0,0.6948,0.7065,0.6884,0.679,0.7041,0.7265,0.7444,0.0,0.0,0.0,0.0,0.0,0.0,0.0,0.0,0.0,0.0,0.0,0.0,0.0,0.0,0.0,0.0,0.0,2.1442,2.1122,2.1109,2.1109,2.1109,2.1109,2.1109,2.1109,2.1109,2.1109,2.1109,2.1109,0.0,0.0,0.0,0.0,0.0,2.1102,2.0929,2.0733,2.0989,2.0929,2.0746,2.1002,2.1109,2.1109,0.0,0.0,0.0,0.0,0.0,0.0,0.0,0.0,0.0,0.0,0.0,0.0,0.0,0.0,0.0,0.0,0.0,0.0,0.0,0.0,0.0,0.0,0.0,0.0,0.0,0.0,0.0,0.0,0.0,0.0,0.0,0.0,0.0,0.0,0.0,0.0,0.0,0.0,0.0,0.0,0.0,0.0,0.0,0.0,0.0,0.0,0.0,0.0,0.0,0.0,0.0,0.0,0.0,0.0,0.0,0.0,0.0,0.0,0.8544,0.8952,0.9284,0.9085,0.8662,0.8209,0.7892,0.0,0.6783,0.6809,0.6766,0.6759,0.6938,0.7093,0.7306,0.0,0.0,0.0,0.0,0.0,0.0,0.0,0.0,0.0,0.0,0.0,0.0,0.0,0.0,0.0,0.0,0.0,0.0,2.1122,2.1109,2.1109,2.1109,2.1109,2.1109,2.1109,2.1109,2.1109,2.1109,0.0,0.0,0.0,0.0,0.0,0.0,2.1109,2.1056,2.0982,2.1076,2.1049,2.0982,2.1076,2.1109,2.1109,0.0,0.0,0.0,0.0,0.0,0.0,0.0,0.0,0.0,0.0,0.0,0.0,0.0,0.0,0.0,0.0,0.0,0.0,0.0,0.0,0.0,0.0,0.0,0.0,0.0,0.0,0.0,0.0,0.0,0.0,0.0,0.0,0.0,0.0,0.0,0.0,0.0,0.0,0.0,0.0,0.0,0.0,0.0,0.0,0.0,0.0,0.0,0.0,0.0,0.0,0.0,0.0,0.0,0.0,0.0,0.0,0.0,0.0,0.0,0.8411,0.8703,0.8581,0.8245,0.0,0.0,0.0,0.6732,0.6823,0.6776,0.6888,0.7547,0.7757,0.7959,0.0,0.0,0.0,0.0,0.0,0.0,0.0,0.0,0.0,0.0,0.0,0.0,0.0,0.0,0.0,0.0,0.0,0.0,2.1122,2.1109,2.1109,2.1109,2.1109,2.1109,2.1109,2.1109,2.1109,2.1109,0.0,0.0,0.0,0.0,0.0,0.0,2.1109,2.1109,2.1109,2.1109,2.1109,2.1109,2.1109,2.1109,2.1109,0.0,0.0,0.0,0.0,0.0,0.0,0.0,0.0,0.0,0.0,0.0,0.0,0.0,0.0,0.0,0.0,0.0,0.0,0.0,0.0,0.0,0.0,0.0,0.0,0.0,0.0,0.0,0.0,0.7139,0.7327,0.7631,0.0,0.0,0.0,0.0,0.0,0.0,0.0,0.0,0.0,0.0,0.0,0.0,0.0,0.0,0.0,0.0,0.0,0.0,0.0,0.0,0.0,0.0,0.0,0.0,0.0,0.0,0.0,0.0,0.0,0.0,0.0,0.0,0.0,0.0,0.0,0.0,0.7029,0.687,0.7126,0.8539,0.8976,0.9133,0.0,0.0,0.0,0.0,0.0,0.0,0.0,0.0,0.0,0.0,0.0,0.0,0.0,0.0,0.0,0.0,0.0,0.0,0.0,2.1109,2.1109,2.1109,2.1109,2.1109,2.1109,2.1109,2.1109,2.1109,0.0,0.0,0.0,0.0,0.0,0.0,2.1109,2.1109,2.1109,2.1109,2.1109,2.1109,2.1109,2.1109,2.1109,0.0,0.0,0.0,0.0,0.0,0.0,0.0,0.0,0.0,0.0,0.0,0.0,0.0,0.0,0.0,0.0,0.0,0.0,0.0,0.0,0.0,0.0,0.0,0.0,0.0,0.0,0.0,0.7095,0.7553,0.7841,0.7908,0.7793,0.0,0.0,0.0,0.0,0.0,0.0,0.0,0.0,0.0,0.0,0.0,0.0,0.0,0.0,0.0,0.0,0.0,0.0,0.0,0.0,0.0,0.0,0.0,0.0,0.6698,0.0,0.0,0.0,0.0,0.0,0.0,0.0,0.0,0.0,0.0,0.0,0.0,0.6912,0.7618,0.8577,0.9042,0.0,0.0,0.0,0.0,0.0,0.0,0.0,0.0,0.0,0.0,0.0,0.0,0.0,0.0,0.0,0.0,0.0,0.0,0.0,2.1109,2.1109,2.1109,2.1109,2.1109,2.1109,2.1109,2.1109,0.0,0.0,0.0,0.0,0.0,0.0,0.0,2.1109,2.1109,2.1109,2.1109,2.1109,2.1109,2.1109,2.1109,2.1109,0.0,0.0,0.0,0.0,0.0,0.0,0.0,0.0,0.0,0.0,0.0,0.0,0.0,0.0,0.0,0.0,0.0,0.0,0.0,0.0,0.0,0.0,0.0,0.0,0.0,0.0,0.0,0.0,0.0,0.7918,0.0,0.0,0.0,0.0,0.0,0.0,0.0,0.0,0.0,0.0,0.0,0.0,0.0,0.0,0.0,0.0,0.5725,0.5908,0.0,0.6389,0.6617,0.6766,0.0,0.0,0.0,0.0,0.6563,0.0,0.0,0.0,0.0,0.0,0.0,0.0,0.0,0.0,0.0,0.0,0.0,0.6982,0.7923,0.9195,0.0,0.0,0.0,0.0,0.0,0.0,0.0,0.0,0.0,0.0,0.0,0.0,0.0,0.0,0.0,0.0,0.0,0.0,0.0,0.0,0.0,2.1109,2.1109,2.1109,2.1109,2.1109,2.1109,2.1109,0.0,0.0,0.0,0.0,0.0,0.0,2.1109,2.1109,2.1109,2.1109,2.1109,2.1109,2.1109,2.1109,2.1109,2.1109,0.0,0.0,0.0,0.0,0.0,0.0,0.0,0.0,0.0,0.0,0.0,0.0,0.0,0.0,0.0,0.0,0.0,0.0,0.0,0.0,0.0,0.0,0.0,0.0,0.0,0.0,0.0,0.0,0.0,0.0,0.0,0.0,0.0,0.0,0.0,0.0,0.0,0.0,0.0,0.0,0.0,0.0,0.0,0.0,0.0,0.0,0.0,0.0,0.0,0.6424,0.6725,0.6874,0.6695,0.0,0.0,0.0,0.0,0.0,0.0,0.0,0.0,0.0,0.0,0.0,0.0,0.0,0.0,0.0,0.0,0.0,0.0,0.0,0.0,0.0,0.0,0.0,0.0,0.0,0.0,0.0,0.0,0.0,0.0,0.0,0.0,0.0,0.0,0.0,0.0,0.0,0.0,0.0,0.0,0.0,2.1109,2.1109,2.1109,2.1109,2.1109,2.1109,2.1109,0.0,0.0,0.0,0.0,0.0,2.1109,2.1109,2.1109,2.1109,2.1109,2.1109,2.1109,2.1109,2.1109,2.1109,0.0,0.0,0.0,0.0,0.0,0.0,0.0,0.0,0.0,0.0,0.0,0.0,0.0,0.0,0.0,0.0,0.0,0.0,0.0,0.0,0.0,0.0,0.0,0.0,0.0,0.0,0.0,0.0,0.0,0.0,0.8298,0.842,0.798,0.0,0.0,0.0,0.0,0.0,0.0,0.0,0.0,0.0,0.0,0.0,0.0,0.0,0.0,0.0,0.0,0.6083,0.6468,0.6837,0.6477,0.0,0.0,0.0,0.0,0.0,0.6914,0.7273,0.7472,0.707,0.7187,0.7321,0.0,0.0,0.0,0.0,0.0,0.0,0.0,0.0,0.0,0.0,0.0,0.0,0.0,0.0,0.0,0.0,0.0,0.0,0.0,0.0,0.0,0.0,0.0,0.0,0.0,0.0,0.0,0.0,0.0,0.0,0.0,2.1109,2.1109,2.1109,2.1109,2.1109,2.1109,2.1109,0.0,0.0,0.0,0.0,2.1109,2.1109,2.1109,2.1109,2.1109,2.1109,2.1109,2.1109,2.1109,2.1109,0.0,0.0,0.0,0.0,0.0,0.0,0.0,0.0,0.0,0.0,0.0,0.0,0.0,0.0,0.0,0.0,0.0,0.0,0.0,0.0,0.0,0.0,0.0,0.0,0.0,0.0,0.0,0.0,0.0,0.8228,0.8403,0.8063,0.7577,0.696,0.0,0.0,0.0,0.0,0.0,0.0,0.0,0.0,0.0,0.0,0.0,0.0,0.0,0.0,0.0,0.0,0.6356,0.6742,0.6396,0.0,0.0,0.0,0.0,0.0,0.661,0.6946,0.7164,0.6958,0.0,0.8703,0.8291,0.8762,0.0,0.0,0.0,0.0,0.0,0.0,0.0,0.0,0.0,0.0,0.0,0.0,0.0,0.0,0.0,0.0,0.0,0.0,0.0,0.0,0.0,0.0,0.0,0.0,0.0,0.0,0.0,0.0,0.0,2.1109,2.1109,2.1109,2.1109,2.1109,2.1109,2.1109,2.1109,0.0,0.0,2.1109,2.1109,2.1109,2.1109,2.1109,2.1109,2.1109,2.1109,2.1109,2.1109,2.1109,0.0,0.0,0.0,0.0,0.0,0.0,0.0,0.0,0.0,0.0,0.0,0.0,0.0,0.0,0.0,0.0,0.0,0.0,0.0,0.0,0.0,0.0,0.0,0.0,0.0,0.0,0.0,0.7841,0.8027,0.8258,0.8495,0.7815,0.7278,0.0,0.0,0.0,0.0,0.0,0.0,0.0,0.0,0.0,0.0,0.0,0.0,0.0,0.0,0.0,0.0,0.0,0.0,0.0,0.0,0.0,0.0,0.0,0.6351,0.6364,0.6416,0.6668,0.6918,0.0,0.0,0.9312,0.9026,0.0,0.0,0.0,0.0,0.0,0.0,0.0,0.0,0.0,0.0,0.0,0.0,0.0,0.0,0.0,0.0,0.0,0.0,0.0,0.0,0.0,0.0,0.0,0.0,0.0,0.0,0.0,0.0,0.0,0.0,2.1109,2.1109,2.1109,2.1109,2.1109,2.1109,2.1109,2.1109,2.1109,2.1109,2.1109,2.1109,2.1109,2.1109,2.1109,2.1109,2.1109,2.1109,2.1109,2.1109,2.1109,0.0,0.0,0.0,0.0,0.0,0.0,0.0,0.0,0.0,0.0,0.0,0.0,0.0,0.0,0.0,0.0,0.0,0.0,0.0,0.0,0.0,0.0,0.0,0.0,0.0,0.7556,0.7692,0.7975,0.8309,0.8488,0.8498,0.8001,0.7452,0.0,0.0,0.0,0.0,0.0,0.0,0.0,0.0,0.0,0.0,0.0,0.0,0.0,0.0,0.0,0.0,0.0,0.0,0.0,0.0,0.0,0.0,0.0,0.6477,0.6539,0.6782,0.6884,0.6938,0.7048,0.7339,0.0,0.7866,0.8938,0.0,1.0204,0.0,0.0,0.0,0.0,0.0,0.0,0.0,0.0,0.0,0.0,0.0,0.0,0.0,0.0,0.0,0.0,0.0,0.0,0.0,0.0,0.0,0.0,0.0,0.0,0.0,0.0,0.0,2.1109,2.1109,2.1109,2.1109,2.1109,2.1109,2.1109,2.1109,2.1109,2.1109,2.1109,2.1109,2.1109,2.1109,2.1109,2.1109,2.1109,2.1109,2.1109,2.1109,2.1109,0.0,0.0,0.0,0.0,0.0,0.0,0.0,0.0,0.0,0.0,0.0,0.0,0.0,0.0,0.0,0.0,0.0,0.0,0.0,0.0,0.0,0.0,0.0,0.7029,0.7286,0.7658,0.7993,0.8313,0.8523,0.853,0.8366,0.7818,0.0,0.0,0.0,0.0,0.0,0.0,0.0,0.0,0.0,0.0,0.0,0.0,0.0,0.0,0.0,0.0,0.0,0.0,0.0,0.0,0.0,0.0,0.0,0.0,0.6443,0.6518,0.6634,0.6783,0.6921,0.6953,0.7852,0.0,0.0,1.0942,1.2697,1.2653,0.0,0.0,0.0,0.0,0.0,0.0,0.0,0.0,0.0,0.0,0.0,0.0,0.0,0.0,0.0,0.0,0.0,0.0,0.0,0.0,0.0,0.0,0.0,0.0,0.0,0.0,0.0,0.0,2.1109,2.1109,2.1109,2.1109,2.1109,2.1109,2.1109,2.1109,2.1109,2.1109,2.1109,2.1109,2.1109,2.1109,2.1109,2.1109,2.1109,2.1109,2.1109,2.1109,0.0,0.0,0.0,0.0,0.0,0.0,0.0,0.0,0.0,0.0,0.0,0.0,0.0,0.0,0.0,0.0,0.0,0.0,0.0,0.0,0.0,0.0,0.0,0.6924,0.7092,0.7658,0.804,0.8269,0.8472,0.8418,0.8141,0.0,0.0,0.0,0.0,0.0,0.0,0.0,0.0,0.0,0.0,0.0,0.0,0.0,0.0,0.0,0.0,0.0,0.0,0.0,0.0,0.0,0.0,0.0,0.0,0.0,0.0,0.6942,0.655,0.6799,0.7246,0.7477,0.843,0.0,1.0426,1.2703,1.4666,1.4675,0.0,0.0,0.0,0.0,0.0,0.0,0.0,0.0,0.0,0.0,0.0,0.0,0.0,0.0,0.0,0.0,0.0,0.0,0.0,0.0,0.0,0.0,0.0,0.0,0.0,0.0,0.0,0.0,2.1109,2.1109,2.1109,2.1109,2.1109,2.1015,2.1022,2.1109,2.1009,2.1029,2.1109,2.1109,2.1109,2.1109,2.1109,2.1049,2.0982,2.1076,2.0995,2.0817,0.0,0.0,0.0,0.0,0.0,0.0,0.0,0.0,0.0,0.0,0.0,0.0,0.0,0.0,0.0,0.0,0.0,0.0,0.0,0.0,0.0,0.0,0.0,0.6813,0.7085,0.755,0.7807,0.7814,0.8145,0.8134,0.7801,0.0,0.0,0.0,0.0,0.0,0.0,0.0,0.0,0.0,0.0,0.0,0.0,0.0,0.0,0.0,0.0,0.0,0.0,0.0,0.0,0.0,0.0,0.0,0.0,0.0,0.73,0.7906,0.6649,0.7042,0.7976,0.8729,0.8937,0.0,1.1878,1.3744,1.5165,1.5814,0.0,0.0,0.0,0.0,0.0,0.0,0.0,0.0,0.0,0.0,0.0,0.0,0.0,0.0,0.0,0.0,0.0,0.0,0.0,0.0,0.0,0.0,0.0,0.0,0.0,0.0,0.0,0.0,2.1102,2.1102,2.1102,2.1102,2.1096,2.0808,2.0828,2.1082,2.0795,2.0835,2.1102,2.1102,2.1102,2.1102,2.1102,2.0922,2.0739,2.0995,2.0704,2.0244,0.0,0.0,0.0,0.0,0.0,0.0,0.0,0.0,0.0,0.0,0.0,0.0,0.0,0.0,0.0,0.0,0.0,0.0,0.0,0.0,0.0,0.0,0.0,0.0,0.0,0.0,0.7577,0.8158,0.8116,0.7899,0.0,0.0,0.0,0.6477,0.0,0.0,0.0,0.0,0.0,0.0,0.0,0.0,0.0,0.0,0.0,0.0,0.0,0.0,0.0,0.0,0.0,0.0,0.0,0.0,0.0,0.6422,0.6739,0.718,0.7324,0.7718,0.0,0.9646,0.0,0.0,0.0,1.3579,0.0,0.0,0.0,0.0,0.0,0.0,0.0,0.0,0.0,0.0,0.0,0.0,0.0,0.0,0.0,0.0,0.0,0.0,0.0,0.0,0.0,0.0,0.0,0.0,0.0,0.0,0.0,0.0,0.0,0.0,2.0702,2.0464,2.0464,2.0601,2.0833,2.0746,2.0608,2.0457,2.037,2.0384,2.0464,2.0464,2.0464,2.0464,2.0464,2.041,2.0374,2.043,2.035,2.021,0.0,0.0,0.0,0.0,0.0,0.0,0.0,0.0,0.0,0.0,0.0,0.0,0.0,0.0,0.0,0.0,0.0,0.0,0.0,0.0,0.0,0.0,0.0,0.0,0.0,0.71,0.7435,0.0,0.0,0.0,0.0,0.0,0.0,0.6556,0.0,0.0,0.0,0.0,0.0,0.0,0.0,0.0,0.0,0.0,0.0,0.0,0.0,0.0,0.0,0.0,0.0,0.0,0.0,0.0,0.0,0.6848,0.7247,0.7686,0.8425,0.0,0.0,0.0,1.2186,0.0,0.0,0.0,0.0,0.0,0.0,0.0,0.0,0.0,0.0,0.0,0.0,0.0,0.0,0.0,0.0,0.0,0.0,0.0,0.0,0.0,0.0,0.0,0.0,0.0,0.0,0.0,0.0,0.0,0.0,0.0,0.0,0.0,0.0,2.0204,2.0204,2.0237,2.0327,2.0327,2.0294,2.0204,2.0204,2.0204,2.0204,2.0204,2.0204,2.0204,2.0204,2.013,2.0044,2.0157,2.0057,1.9907,0.0,0.0,0.0,0.0,0.0,0.0,0.0,0.0,0.0,0.0,0.0,0.0,0.0,0.0,0.0,0.0,0.0,0.0,0.0,0.0,0.0,0.0,0.0,0.0,0.0,0.0,0.0,0.0,0.0,0.0,0.0,0.0,0.7009,0.6897,0.0,0.716,0.0,0.0,0.0,0.0,0.0,0.0,0.0,0.0,0.0,0.0,0.0,0.0,0.0,0.0,0.0,0.0,0.0,0.6548,0.6158,0.7434,0.816,0.8768,0.0,0.0,0.0,0.0,0.0,0.0,0.0,0.0,0.0,0.0,0.0,0.0,0.0,0.0,0.0,0.0,0.0,0.0,0.0,0.0,0.0,0.0,0.0,0.0,0.0,0.0,0.0,0.0,0.0,0.0,0.0,0.0,0.0,0.0,0.0,0.0,0.0,0.0,0.0,0.0,0.0,1.9983,1.976,1.9786,1.9927,2.0124,2.0124,2.0124,2.0124,2.0124,2.0124,2.0124,2.0124,1.9993,1.9793,2.0024,1.982,1.9435,0.0,0.0,0.0,0.0,0.0,0.0,0.0,0.0,0.0,0.0,0.0,0.0,0.0,0.0,0.0,0.0,0.0,0.0,0.0,0.0,0.0,0.0,0.0,0.0,0.0,0.0,0.0,0.0,0.0,0.0,0.0,0.0,0.0,0.6759,0.0,0.6793,0.0,0.0,0.0,0.0,0.0,0.0,0.0,0.0,0.0,0.0,0.0,0.0,0.0,0.0,0.0,0.0,0.7224,0.6971,0.6742,0.6382,0.6544,0.0,0.0,0.0,0.0,0.0,0.0,0.0,0.0,0.0,0.0,0.0,0.0,0.0,0.0,0.0,0.0,0.0,0.0,0.0,0.0,0.0,0.0,0.0,0.0,0.0,0.0,0.0,0.0,0.0,0.0,0.0,0.0,0.0,0.0,0.0,0.0,0.0,1.99,1.9893,1.978,0.0,1.9582,1.9548,1.9495,1.9693,1.9713,1.9582,1.9582,1.9582,1.9582,1.9582,1.9582,1.9582,1.9582,1.9542,1.9495,1.9562,1.9502,1.9401,0.0,0.0,0.0,0.0,0.0,0.0,0.0,0.0,0.0,0.0,0.0,0.0,0.0,0.0,0.0,0.0,0.0,0.0,0.0,0.0,0.0,0.0,0.0,0.0,0.0,0.0,0.0,0.0,0.0,0.0,0.0,0.0,0.0,0.6796,0.0,0.678,0.0,0.0,0.0,0.0,0.0,0.0,0.0,0.0,0.0,0.0,0.0,0.0,0.0,0.0,0.0,0.0,0.0,0.0,0.7035,0.7667,0.7592,0.0,0.0,0.0,0.0,0.0,0.0,0.0,0.0,0.0,0.0,0.0,0.0,0.0,0.0,0.0,0.0,0.0,0.0,0.0,0.0,0.0,0.0,0.0,0.0,0.0,0.0,0.0,0.0,0.0,0.0,0.0,0.0,0.0,0.0,0.0,0.0,0.0,1.9622,1.9622,1.9542,1.9395,1.9254,1.9078,1.8986,1.9245,1.9299,1.9158,1.9158,1.9158,1.9165,1.9334,1.9395,1.9395,1.9395,1.9395,1.9395,1.9395,1.9395,1.9395,0.0,0.0,0.0,0.0,0.0,0.0,0.0,0.0,0.0,0.0,0.0,0.0,0.0,0.0,0.0,0.0,0.0,0.0,0.0,0.0,0.0,0.0,0.0,0.0,0.0,0.0,0.0,0.0,0.0,0.0,0.0,0.0,0.0,0.6911,0.0,0.0,0.0,0.0,0.0,0.0,0.0,0.0,0.0,0.0,0.0,0.0,0.0,0.0,0.0,0.0,0.0,0.0,0.0,0.0,0.7487,0.9219,0.0,0.0,0.0,0.0,0.0,0.0,0.0,0.0,0.0,0.0,0.0,0.0,0.0,0.0,0.0,0.0,0.0,0.0,0.0,0.0,0.0,0.0,0.0,0.0,0.0,0.0,0.0,0.0,0.0,0.0,0.0,0.0,0.0,0.0,0.0,0.0,0.0,1.9586,1.9321,1.9321,1.9294,1.9241,1.8965,1.8724,1.8497,1.8663,1.877,1.8816,1.8816,1.8816,1.8836,1.914,1.9247,1.9247,1.9301,1.9287,1.9247,1.9301,1.9287,1.9247,0.0,0.0,0.0,0.0,0.0,0.0,0.0,0.0,0.0,0.0,0.0,0.0,0.0,0.0,0.0,0.0,0.0,0.0,0.0,0.0,0.0,0.0,0.0,0.0,0.0,0.0,0.0,0.0,0.0,0.0,0.0,0.0,0.0,0.6901,0.0,0.0,0.0,0.0,0.0,0.0,0.0,0.0,0.0,0.0,0.0,0.0,0.0,0.0,0.0,0.0,0.0,0.0,0.0,0.0,0.0,0.0,0.0,0.0,0.0,0.0,0.0,0.0,0.0,0.0,0.0,0.0,0.0,0.0,0.0,0.0,0.0,0.0,0.0,0.0,0.0,0.0,0.0,0.0,0.0,0.0,0.0,0.0,0.0,0.0,0.0,0.0,0.0,0.0,0.0,0.0,1.9495,1.9455,1.9455,0.0,1.8956,1.8985,1.8858,1.8611,1.8564,1.8524,1.8484,1.8236,1.8276,1.8551,1.8551,1.8551,1.8551,1.8591,1.8611,1.8631,1.8885,1.8824,1.8637,1.8891,1.8824,1.8611,0.0,0.0,0.0,0.0,0.0,0.0,0.0,0.0,0.0,0.0,0.0,0.0,0.0,0.0,0.0,0.0,0.0,0.0,0.0,0.0,0.0,0.0,0.0,0.0,0.0,0.0,0.0,0.0,0.0,0.0,0.0,0.6143,0.643,0.0,0.0,0.0,0.0,0.0,0.0,0.0,0.0,0.0,0.0,0.0,0.0,0.0,0.0,0.0,0.0,0.0,0.0,0.0,0.0,0.0,0.0,0.0,0.0,0.0,0.0,0.0,0.0,0.0,0.0,0.0,0.0,0.0,0.0,0.0,0.0,0.0,0.0,0.0,0.0,0.0,0.0,0.0,0.0,0.0,0.0,0.0,0.0,0.0,0.0,0.0,0.0,0.0,0.0,0.0,0.0,1.9395,1.9395,1.9395,1.9234,0.0,1.8896,1.8764,1.8531,1.8216,1.8216,1.815,1.7996,1.7682,1.7796,1.8203,1.8056,1.801,1.8023,1.817,1.8216,1.8243,1.8564,1.8604,1.8504,1.8637,1.8597,1.849,0.0,0.0,0.0,0.0,0.0,0.0,0.0,0.0,0.0,0.0,0.0,0.0,0.0,0.0,0.0,0.0,0.0,0.0,0.0,0.0,0.0,0.0,0.0,0.0,0.0,0.0,0.0,0.0,0.0,0.0,0.5954,0.5954,0.6174,0.0,0.6237,0.0,0.0,0.0,0.0,0.0,0.0,0.0,0.0,0.0,0.0,0.0,0.0,0.0,0.0,0.0,0.0,0.0,0.0,0.0,0.0,0.0,0.0,0.0,0.0,0.0,0.0,0.0,0.0,0.0,0.0,0.0,0.0,0.0,0.0,0.0,0.0,0.0,0.0,0.0,0.0,0.0,0.0,0.0,0.0,0.0,0.0,0.0,0.0,0.0,0.0,0.0,0.0,0.0,1.9287,1.9259,1.9247,1.9174,1.8931,1.875,1.8663,1.8404,1.815,1.7902,1.7902,1.7769,1.7488,1.73,1.7381,1.7662,1.7462,1.7361,1.7375,1.7582,1.7682,1.7709,1.8036,1.8177,1.8184,1.8264,1.8244,1.819,0.0,0.0,0.0,0.0,0.0,0.0,0.0,0.0,0.0,0.0,0.0,0.0,0.0,0.0,0.0,0.0,0.0,0.0,0.0,0.0,0.0,0.0,0.0,0.0,0.0,0.0,0.0,0.0,0.0,0.0,0.5813,0.5813,0.6001,0.632,0.6296,0.6663,0.7336,0.0,0.0,0.0,0.0,0.0,0.0,0.0,0.0,0.0,0.0,0.0,0.0,0.0,0.0,0.0,0.0,0.0,0.0,0.0,0.0,0.0,0.0,0.0,0.0,0.0,0.0,0.0,0.0,0.0,0.0,0.0,0.0,0.0,0.0,0.0,0.0,0.0,0.0,0.0,0.0,0.0,0.0,0.0,0.0,0.0,0.0,0.0,0.0,0.0,0.0,0.0,1.893,1.8916,1.8818,1.8544,1.8517,1.837,1.8036,1.7776,1.7648,1.7609,1.7609,1.7481,1.7226,1.7206,1.704,1.6774,1.6754,1.6747,1.6754,1.6767,1.6774,1.6807,1.7127,1.7273,1.7306,1.7555,1.7481,1.7306,0.0,0.0,0.0,0.0,0.0,0.0,0.0,0.0,0.0,0.0,0.0,0.0,0.0,0.0,0.0,0.0,0.0,0.0,0.0,0.0,0.0,0.0,0.0,0.0,0.0,0.0,0.0,0.0,0.0,0.5579,0.5664,0.5664,0.5772,0.5984,0.5984,0.6727,0.801,0.805,0.0,0.0,0.0,0.0,0.0,0.0,0.0,0.0,0.0,0.0,0.0,0.0,0.0,0.0,0.0,0.0,0.0,0.0,0.0,0.0,0.0,0.0,0.0,0.0,0.0,0.0,0.0,0.0,0.0,0.0,0.0,0.0,0.0,0.0,0.0,0.0,0.0,0.0,0.0,0.0,0.0,0.0,0.0,0.0,0.0,0.0,0.0,0.0,0.0,0.0,1.8657,1.8644,1.8597,1.8497,1.8276,1.7963,1.7488,1.7381,1.7234,1.7021,1.7021,1.6967,1.6879,1.6698,1.6551,1.6444,1.6226,1.6253,1.6451,1.6451,1.6451,1.6484,1.6754,1.6892,1.6899,1.6981,1.6954,1.6881,0.0,0.0,0.0,0.0,0.0,0.0,0.0,0.0,0.0,0.0,0.0,0.0,0.0,0.0,0.0,0.0,0.0,0.0,0.0,0.0,0.0,0.0,0.0,0.0,0.0,0.0,0.0,0.0,0.0,0.0,0.0,0.6096,0.5969,0.5856,0.5776,0.6755,0.0,0.0,0.0,1.0727,0.0,0.0,1.0747,0.0,0.0,0.0,0.0,0.0,0.0,0.0,0.0,0.0,0.0,0.0,0.0,0.0,0.0,0.0,1.1176,0.0,0.0,0.0,0.0,0.0,0.0,0.0,0.0,0.0,0.0,0.0,0.0,0.0,0.0,0.0,0.0,0.0,0.0,0.0,0.0,0.0,0.0,0.0,0.0,0.0,0.0,0.0,0.0,0.0,1.8357,1.8343,1.829,1.819,1.7896,1.7555,1.7206,1.7099,1.6926,1.6707,1.6707,1.6653,1.6553,1.6384,1.6244,1.6112,1.5888,1.5939,1.6126,1.6126,1.6126,1.6146,1.6339,1.6473,1.656,1.656,1.656,1.6573,0.0,0.0,0.0,0.0,0.0,0.0,0.0,0.0,0.0,0.0,0.0,0.0,0.0,0.0,0.0,0.0,0.0,0.0,0.0,0.0,0.0,0.0,0.0,0.0,0.0,0.0,0.0,0.0,0.0,0.0,0.0,0.0,0.6594,0.6028,0.5736,0.6721,0.8579,0.0,0.9405,1.0985,0.0,1.0774,1.1022,0.0,0.0,0.0,1.1392,1.1236,0.0,0.0,0.0,0.0,0.0,0.0,0.0,0.0,0.0,0.0,0.0,0.0,0.0,0.0,0.0,0.0,0.0,0.0,0.0,0.0,0.0,0.0,0.0,0.0,0.0,0.0,0.0,0.0,0.0,0.0,0.0,0.0,0.0,0.0,0.0,0.0,0.0,0.0,0.0,1.8343,1.8022,1.7975,1.7856,1.7569,1.734,1.7192,1.7172,1.6859,1.6687,1.668,1.668,1.6533,1.6284,1.6284,1.6106,1.5808,1.5808,1.5808,1.5808,1.5808,1.5808,1.5808,1.5808,1.6005,1.6284,1.6284,1.6284,1.6324,0.0,0.0,0.0,0.0,0.0,0.0,0.0,0.0,0.0,0.0,0.0,0.0,0.0,0.0,0.0,0.0,0.0,0.0,0.0,0.0,0.0,0.0,0.0,0.0,0.0,0.0,0.0,0.0,0.0,0.0,0.0,0.0,0.0,0.0,0.6,0.6601,0.8308,0.8164,0.0,0.0,1.0925,1.0938,0.0,0.0,0.0,0.0,0.0,1.1196,0.0,0.0,1.0891,1.0851,0.0,0.0,0.0,0.0,0.0,0.0,1.0995,0.0,0.0,0.0,0.0,0.0,0.0,0.0,0.0,0.0,0.0,0.0,0.0,0.0,0.0,0.0,0.0,0.0,0.0,0.0,0.0,0.0,0.0,0.0,0.0,0.0,0.0,0.0,0.0,1.8009,1.7729,1.7709,1.7475,1.6967,1.7107,1.6998,1.6545,1.6458,1.6286,1.6048,1.6048,1.6008,1.5952,1.5952,1.5881,1.5808,1.5808,1.5808,1.5808,1.5808,1.5808,1.5808,1.5808,1.5855,1.5952,1.5952,1.5952,1.5941,0.0,0.0,0.0,0.0,0.0,0.0,0.0,0.0,0.0,0.0,0.0,0.0,0.0,0.0,0.0,0.0,0.0,0.0,0.0,0.0,0.0,0.0,0.0,0.0,0.0,0.0,0.0,0.0,0.0,0.0,0.0,0.0,0.0,0.0,0.0,0.0,0.0,0.0,0.0,0.0,1.1129,0.0,0.0,1.149,1.1536,0.0,0.0,0.0,1.1726,1.1473,1.1276,0.0,0.0,0.0,0.0,0.0,0.0,0.0,0.0,0.0,0.0,0.0,0.0,0.0,0.0,1.3273,0.0,0.0,0.0,0.0,0.0,0.0,0.0,0.0,0.0,0.0,0.0,0.0,0.0,0.0,0.0,0.0,0.0,0.0,0.0,0.0,1.7462,1.7382,1.7228,1.7215,1.7061,1.6714,1.6779,1.667,1.6304,1.6152,1.5999,1.5808,1.5808,1.5808,1.5808,1.5808,1.5808,1.5808,1.5808,1.5808,1.5808,1.5808,1.5808,1.5808,1.5808,1.5808,1.5808,1.5808,1.5808,1.5808,0.0,0.0,0.0,0.0,0.0,0.0,0.0,0.0,0.0,0.0,0.0,0.0,0.0,0.0,0.0,0.0,0.0,0.0,0.0,0.0,0.0,0.0,0.0,0.0,0.0,0.0,0.0,0.0,0.0,0.0,0.0,0.0,0.0,0.0,0.0,0.0,0.0,0.0,0.0,1.1062,1.1306,1.1603,0.0,0.0,1.2258,0.0,1.2589,1.2536,1.2258,1.1982,1.167,0.0,0.0,0.0,0.0,0.0,1.1637,0.0,0.0,0.0,0.0,0.0,0.0,0.0,1.2697,1.2985,1.3193,0.0,0.0,0.0,0.0,0.0,0.0,0.0,0.0,0.0,0.0,0.0,0.0,0.0,0.0,0.0,0.0,0.0,0.0,1.6707,1.6707,1.6693,1.666,1.6687,1.6673,1.6613,1.6393,1.6284,1.625,1.5941,1.5808,1.5808,1.5808,1.5808,1.5808,1.5808,1.5808,1.5808,1.5808,1.5808,1.5808,1.5808,1.5808,1.5808,1.5808,1.5808,1.5808,1.5808,1.5808,1.5808,0.0,0.0,0.0,0.0,0.0,0.0,0.0,0.0,0.0,0.0,0.0,0.0,0.0,0.0,0.0,0.0,0.0,0.0,0.0,0.0,0.0,0.0,0.0,0.0,0.0,0.0,0.0,0.0,0.0,0.0,0.0,0.0,0.0,0.0,0.0,0.0,0.0,0.0,0.0,1.1332,1.1386,0.0,1.1913,1.1966,1.1986,1.1993,1.2053,1.2169,1.2258,0.0,1.167,1.1406,0.0,0.0,0.0,0.0,0.0,0.0,0.0,0.0,0.0,0.0,0.0,0.0,1.2538,1.2812,1.3193,0.0,0.0,0.0,0.0,0.0,0.0,0.0,0.0,0.0,0.0,0.0,0.0,0.0,0.0,0.0,0.0,0.0,1.6707,1.6707,1.6707,1.6607,1.6397,1.658,1.6493,1.5988,1.6203,1.6159,1.5895,1.5835,1.5808,1.5808,1.5808,1.5808,1.5808,1.5808,1.5808,1.5808,1.5808,1.5808,1.5808,1.5808,1.5808,1.5808,1.5808,1.5808,1.5808,1.5808,1.5808,1.5808,0.0,0.0,0.0,0.0,0.0,0.0,0.0,0.0,0.0,0.0,0.0,0.0,0.0,0.0,0.0,0.0,0.0,0.0,0.0,0.0,0.0,0.0,0.0,0.0,0.0,0.0,0.0,0.0,0.0,0.0,0.0,0.0,0.0,0.0,0.0,0.0,0.0,0.0,1.1252,1.1657,1.1804,0.0,1.1902,1.2049,1.2102,1.2122,1.2288,1.2442,1.2524,1.2388,1.2248,0.0,0.0,1.2333,1.2166,0.0,1.234,1.2169,0.0,0.0,0.0,1.2978,0.0,0.0,0.0,1.2872,0.0,0.0,0.0,0.0,0.0,0.0,0.0,0.0,0.0,0.0,0.0,0.0,0.0,0.0,0.0,0.0,0.0,0.0,1.6242,1.6242,1.6242,1.6182,1.6059,1.6186,1.6108,1.5815,1.5948,1.5979,1.5808,1.5808,1.5808,1.5808,1.5808,1.5808,1.5808,1.5808,1.5808,1.5808,1.5808,1.5808,1.5808,1.5808,1.5808,1.5808,1.5808,1.5808,1.5808,1.5808,1.5808,1.5808,0.0,0.0,0.0,0.0,0.0,0.0,0.0,0.0,0.0,0.0,0.0,0.0,0.0,0.0,0.0,0.0,0.0,0.0,0.0,0.0,0.0,0.0,0.0,1.2278,0.0,0.0,0.0,0.0,0.0,0.0,0.0,0.0,0.0,0.0,0.0,0.0,0.0,0.0,0.0,1.1995,0.0,1.2164,1.1995,1.2211,1.2305,1.2338,1.2616,1.2697,1.2703,1.2783,0.0,1.2883,1.3433,1.3273,0.0,0.0,0.0,0.0,0.0,0.0,0.0,0.0,0.0,1.3487,0.0,0.0,0.0,0.0,0.0,0.0,0.0,0.0,0.0,0.0,0.0,0.0,0.0,0.0,0.0,0.0,0.0,0.0,0.0,0.0,1.5741,1.5801,1.5755,1.5748,1.5801,1.5808,1.5808,1.5808,1.5808,1.5808,1.5808,1.5808,1.5808,1.5808,1.5808,1.5808,1.5808,1.5808,1.5808,1.5808,1.5808,1.5808,1.5808,1.5808,1.5808,1.5808,1.5808,1.5808,1.5808,1.5808,1.5768,1.5728,1.3113,1.34,0.0,0.0,0.0,0.0,0.0,0.0,0.0,0.0,0.0,0.0,0.0,0.0,0.0,0.0,0.0,0.0,1.4301,0.0,0.0,0.0,0.0,0.0,1.1942,0.0,0.0,0.0,0.0,0.0,0.0,0.0,0.0,0.0,1.2251,0.0,0.0,0.0,1.2225,0.0,1.2285,1.2285,0.0,1.2291,1.2305,1.2305,1.2338,1.2351,1.2392,0.0,1.2803,1.2843,0.0,1.3205,0.0,0.0,0.0,0.0,0.0,0.0,0.0,0.0,1.4404,0.0,0.0,0.0,0.0,0.0,0.0,0.0,0.0,0.0,0.0,0.0,0.0,0.0,0.0,0.0,0.0,0.0,0.0,0.0,0.0,0.0,0.0,1.5788,1.5591,1.5558,1.5788,1.5808,1.5808,1.5808,1.5808,1.5808,1.5808,1.5808,1.5808,1.5808,1.5808,1.5808,1.5808,1.5808,1.5808,1.5808,1.5808,1.5808,1.5808,1.5808,1.5808,1.5808,1.5808,1.5808,1.5808,1.5808,1.5641,1.5484,1.2692,1.318,0.0,0.0,0.0,0.0,0.0,0.0,0.0,0.0,0.0,0.0,0.0,0.0,0.0,0.0,0.0,1.4034,0.0,0.0,0.0,0.0,0.0,0.0,0.0,0.0,0.0,0.0,1.2305,0.0,0.0,0.0,0.0,0.0,1.2225,0.0,1.2288,0.0,0.0,0.0,0.0,0.0,0.0,1.2305,1.2305,1.2305,1.2305,1.2305,1.2318,0.0,1.2745,0.0,0.0,0.0,0.0,0.0,0.0,0.0,0.0,0.0,0.0,0.0,0.0,0.0,0.0,0.0,1.3533,0.0,0.0,0.0,0.0,0.0,0.0,0.0,0.0,0.0,0.0,0.0,0.0,0.0,0.0,0.0,0.0,0.0,0.0,0.0,0.0,1.5271,1.5541,1.5578,1.5635,1.5801,1.5808,1.5808,1.5808,1.5808,1.5808,1.5808,1.5808,1.5808,1.5808,1.5808,1.5808,1.5795,1.5628,1.5578,1.5578,1.5578,1.5578,1.5578,1.5578,1.5655,1.5808,1.5808,1.5621,1.5418,1.2345,0.0,0.0,0.0,0.0,0.0,0.0,0.0,0.0,0.0,0.0,0.0,1.6397,1.5939,0.0,0.0,0.0,1.4623,0.0,0.0,1.3373,0.0,0.0,0.0,0.0,0.0,0.0,0.0,0.0,0.0,0.0,0.0,0.0,0.0,0.0,1.2377,1.2283,0.0,0.0,1.2565,1.273,1.2603,1.2305,1.2305,1.2305,1.2305,1.2305,1.2305,1.2325,1.2492,1.2846,0.0,1.3961,0.0,0.0,0.0,0.0,0.0,1.4354,0.0,0.0,0.0,0.0,0.0,0.0,0.0,0.0,0.0,0.0,0.0,0.0,0.0,0.0,0.0,0.0,0.0,0.0,0.0,0.0,0.0,0.0,0.0,0.0,0.0,0.0,0.0,1.4865,0.0,1.5144,1.5311,1.5491,1.5681,1.5768,1.5808,1.5808,1.5808,1.5808,1.5808,1.5808,1.5808,1.5801,1.5721,1.5688,1.5675,1.5404,1.53,1.53,1.53,1.5324,1.5391,1.5311,1.5504,1.5788,1.5628,1.5458,1.53,1.2305,1.2799,0.0,0.0,0.0,0.0,0.0,0.0,0.0,0.0,0.0,0.0,0.0,0.0,0.0,0.0,0.0,1.5207,1.5715,0.0,1.3086,0.0,0.0,1.2786,0.0,0.0,0.0,0.0,0.0,0.0,0.0,0.0,0.0,0.0,0.0,1.2912,1.3166,1.3186,1.3186,1.316,1.2904,1.2603,1.2305,0.0,1.2305,1.2305,1.2305,0.0,0.0,1.296,1.3173,0.0,0.0,0.0,0.0,0.0,0.0,0.0,0.0,0.0,0.0,0.0,0.0,0.0,0.0,0.0,1.3988,0.0,0.0,0.0,0.0,0.0,0.0,0.0,0.0,0.0,0.0,0.0,0.0,0.0,0.0,0.0,0.0,0.0,0.0,0.0,1.4514,0.0,1.4527,1.5084,1.5398,1.5411,1.5655,1.5808,1.5808,1.5808,1.5808,1.5808,1.5808,1.5808,1.5795,1.5538,1.5411,1.5391,1.5126,1.4999,1.4999,1.4999,1.5166,1.5364,1.5106,1.5354,1.5735,1.522,1.5028,1.4999,0.0,0.0,0.0,0.0,0.0,0.0,0.0,1.5628,0.0,0.0,0.0,0.0,0.0,0.0,1.7589,0.0,0.0,1.6119,1.6119,1.5204,0.0,0.0,0.0,1.3848,0.0,0.0,0.0,0.0,0.0,0.0,0.0,0.0,0.0,0.0,0.0,1.2844,0.0,0.0,0.0,0.0,0.0,1.2632,1.2859,0.0,0.0,1.2305,1.2305,1.2305,0.0,1.2538,1.2879,1.3247,1.3447,1.45,1.5621,1.5283,1.6401,0.0,0.0,0.0,1.7965,1.6762,0.0,0.0,0.0,0.0,0.0,0.0,0.0,0.0,0.0,0.0,0.0,0.0,0.0,0.0,0.0,0.0,0.0,0.0,0.0,0.0,0.0,0.0,0.0,1.3647,1.3634,1.38,0.0,1.4422,1.471,1.512,1.5391,1.5545,1.5545,1.5708,1.5808,1.5801,1.5608,1.5545,1.5531,1.5267,1.5133,1.512,1.4796,1.4669,1.4669,1.4669,1.4843,1.5126,1.5048,1.5227,1.5498,1.5133,1.5008,1.4932,1.3584,0.0,0.0,0.0,0.0,0.0,0.0,0.0,0.0,0.0,1.7682,0.0,1.8998,0.0,1.8424,0.0,1.7842,1.7081,1.6491,1.6072,0.0,1.4859,1.4823,0.0,0.0,0.0,0.0,0.0,0.0,1.2565,0.0,0.0,0.0,0.0,0.0,0.0,0.0,0.0,1.3307,0.0,0.0,1.2713,0.0,0.0,1.2625,0.0,0.0,1.2477,1.2497,1.2585,1.2933,1.34,1.3826,1.5023,1.6296,1.6461,1.7671,1.8913,1.8702,1.9065,0.0,0.0,1.7762,0.0,0.0,0.0,0.0,0.0,0.0,0.0,0.0,0.0,0.0,0.0,0.0,0.0,0.0,0.0,0.0,0.0,0.0,0.0,0.0,0.0,1.3247,1.306,1.3066,1.326,0.0,0.0,1.433,1.4812,1.519,1.5398,1.5398,1.5661,1.5755,1.5648,1.5484,1.5344,1.526,1.4959,1.4825,1.479,1.4496,1.4362,1.4362,1.4362,1.4543,1.4819,1.4718,1.4919,1.5233,1.4939,1.4765,1.4618,0.0,0.0,0.0,0.0,1.3748,0.0,0.0,0.0,1.6941,0.0,1.817,1.8784,1.9421,1.9172,1.8985,1.907,1.8754,0.0,1.6948,1.6779,0.0,0.0,1.5144,1.4798,1.3427,0.0,0.0,0.0,0.0,0.0,0.0,0.0,0.0,0.0,1.2939,0.0,1.2863,1.3695,1.3714,1.3186,1.318,1.2879,1.2452,1.2999,0.0,1.3213,1.2924,1.2823,1.2851,1.3113,1.338,1.3804,1.4944,1.6223,1.7408,1.7925,1.9042,1.9968,1.9411,1.9471,1.9595,1.9298,0.0,0.0,0.0,0.0,1.6775,0.0,0.0,0.0,0.0,0.0,0.0,0.0,0.0,0.0,0.0,0.0,0.0,0.0,0.0,0.0,0.0,1.2951,1.2789,1.2763,1.2776,1.2904,0.0,0.0,0.0,1.4487,1.5077,1.5384,1.5398,1.5661,1.5668,1.5418,1.5391,1.5253,1.4995,1.4643,1.4474,1.4461,1.4208,1.4109,1.4109,1.4109,1.4255,1.4467,1.4215,1.4471,1.4932,1.4623,1.4335,1.4109,1.4021,1.3885,1.4001,0.0,1.4456,1.4603,0.0,0.0,0.0,0.0,1.8958,1.9773,2.0575,2.0177,2.0333,2.1472,1.9879,0.0,0.0,0.0,0.0,1.5889,1.5989,1.6096,1.617,1.5068,0.0,1.51,0.0,0.0,1.2803,0.0,0.0,0.0,0.0,0.0,1.283,1.326,1.3233,1.2924,1.312,1.338,0.0,0.0,1.348,1.3794,1.328,1.3093,1.3106,1.318,1.338,1.3804,1.4944,1.6223,1.7551,1.8824,2.0235,2.1444,2.1598,2.1895,2.1946,2.0976,2.0593,2.0153,0.0,0.0,0.0,0.0,0.0,0.0,0.0,0.0,0.0,0.0,0.0,0.0,0.0,0.0,0.0,0.0,0.0,0.0,1.2532,1.2684,1.2603,1.2167,1.231,1.2645,0.0,0.0,0.0,1.4474,1.4883,1.52,1.5391,1.5661,1.5768,1.5688,1.5284,1.5059,1.4988,1.4457,1.4202,1.4195,1.4122,1.4109,1.4109,1.4109,1.4255,1.4487,1.4414,1.4502,1.4623,1.4527,1.4335,1.4109,1.4887,0.0,0.0,1.512,0.0,0.0,1.7034,0.0,0.0,1.9554,2.052,0.0,2.1469,2.2125,2.2498,2.2304,2.1718,0.0,0.0,0.0,0.0,1.832,1.8202,1.8156,1.8121,1.6799,0.0,1.5902,0.0,0.0,1.3133,0.0,0.0,0.0,0.0,1.3113,0.0,1.3407,1.3514,1.3387,1.352,0.0,0.0,1.3621,1.3714,1.3868,1.3667,1.3507,1.338,1.338,1.3885,1.4686,1.5688,1.6937,1.8374,2.0103,2.1218,2.2042,2.2606,2.2937,2.2928,2.2262,2.1973,2.1649,2.077,2.0223,1.9826,0.0,0.0,0.0,0.0,0.0,0.0,0.0,0.0,0.0,0.0,0.0,0.0,0.0,0.0,0.0,1.1926,1.2209,1.2208,1.1728,1.2064,1.2452,0.0,0.0,0.0,0.0,1.4698,1.5066,1.5227,1.5618,1.5741,1.5608,1.52,1.4919,1.4778,1.4317,1.4109,1.4109,1.4109,1.4109,1.4109,1.4109,1.4182,1.4335,1.4335,1.4335,1.4335,1.4335,1.4229,1.4109,0.0,0.0,0.0,0.0,0.0,0.0,0.0,1.907,0.0,2.1551,0.0,2.2981,2.2581,2.4317,2.4735,2.2838,0.0,2.3361,2.0901,2.1958,2.2122,2.082,2.0666,2.027,1.9584,1.8624,0.0,0.0,0.0,0.0,1.3804,0.0,0.0,0.0,0.0,0.0,0.0,1.3814,1.4028,0.0,1.4075,1.3781,1.338,1.3895,1.3928,1.3693,1.3995,1.39,1.366,1.366,1.4571,1.5849,1.6688,1.7919,1.9452,2.1344,2.1944,2.2139,2.2908,2.3091,2.3091,2.3091,2.3091,2.3003,2.2654,2.1873,2.1175,2.1036,1.9796,0.0,0.0,0.0,0.0,0.0,0.0,0.0,0.0,0.0,0.0,0.0,0.0,0.0,0.0,0.0,1.1748,1.1379,1.1877,1.2225,0.0,0.0,0.0,0.0,1.4522,0.0,1.5046,0.0,1.5681,1.5451,1.514,1.4852,1.4547,1.4235,1.4109,1.4109,1.4109,1.4109,1.4109,1.4109,1.4109,1.4109,1.4109,1.4109,1.4109,1.4109,1.4109,1.4109,0.0,0.0,0.0,0.0,0.0,2.1437,2.2505,2.3127,2.3625,2.4067,2.4882,0.0,2.5304,2.5127,2.5352,2.6128,2.4805,0.0,0.0,0.0,0.0,2.0708,2.0618,2.0716,2.0944,1.8939,1.8389,0.0,1.653,1.5057,1.4997,0.0,0.0,0.0,0.0,0.0,1.3533,1.3633,0.0,1.37,1.3988,1.4049,1.3941,1.4069,1.4055,1.4015,1.4089,1.4055,1.4008,1.4008,1.4768,1.5874,1.6916,1.8264,1.98,2.1431,2.2129,2.2488,2.2976,2.3091,2.3091,2.3091,2.3091,2.3081,2.3003,2.2843,2.2703,2.2691,2.0904,1.9277,1.909,0.0,0.0,0.0,0.0,0.0,0.0,0.0,0.0,0.0,0.0,0.0,0.0,0.0,0.0,0.0,0.0,0.0,0.0,0.0,0.0,0.0,0.0,0.0,0.0,0.0,0.0,1.5721,1.524,1.4959,1.4892,1.435,1.4109,1.4109,1.4109,1.4109,1.4109,1.4109,1.4109,1.4109,1.4109,1.4109,1.4109,1.4109,1.4109,1.4109,0.0,0.0,0.0,0.0,0.0,0.0,0.0,2.6784,0.0,2.6311,2.651,2.6684,2.6493,2.716,2.7429,2.6946,2.6605,2.5983,2.4962,2.4925,2.4426,2.3299,2.3036,0.0,2.2911,2.0946,2.0012,2.0205,1.7883,1.6333,0.0,0.0,0.0,0.0,0.0,1.4441,0.0,0.0,0.0,1.4074,1.4088,1.4109,1.4109,1.4109,1.4109,1.4109,1.4109,1.4109,1.4109,1.4109,1.5186,1.6653,1.7413,1.8941,2.066,2.1866,2.2353,2.2586,2.2984,2.3091,2.3091,2.3091,2.3091,2.3091,2.3091,2.3091,2.3091,2.3091,2.2183,2.1082,2.0197,1.8302,0.0,0.0,0.0,0.0,0.0,0.0,0.0,0.0,0.0,0.0,0.0,0.0,0.0,0.0,0.0,0.0,0.0,0.0,0.0,0.0,0.0,0.0,0.0,0.0,0.0,1.5801,1.5391,1.5133,1.4972,1.4516,1.4229,1.4109,1.4109,1.4109,1.4109,1.4109,1.4109,1.4109,1.4109,1.4109,1.4109,1.4109,1.4109,1.4109,0.0,1.9844,0.0,0.0,2.303,0.0,0.0,2.9251,3.0248,2.847,2.8234,2.8048,2.7641,2.9078,2.9286,2.7345,2.8086,2.7722,2.5569,2.634,2.6518,2.5723,2.5215,2.475,2.4287,2.2705,2.1462,0.0,1.9149,0.0,0.0,0.0,0.0,0.0,0.0,0.0,0.0,0.0,1.4646,1.4858,1.4443,1.4202,1.4116,1.4155,1.4142,1.4109,1.4109,1.4109,1.4124,1.4349,1.5784,1.7507,1.7879,1.9608,2.162,2.2293,2.2557,2.2693,2.3003,2.3091,2.3091,2.3091,2.3091,2.3091,2.3091,2.3091,2.3091,2.3091,2.2906,2.2183,2.043,1.9264,0.0,0.0,0.0,0.0,0.0,0.0,0.0,0.0,0.0,0.0,0.0,0.0,0.0,0.0,0.0,0.0,1.1788,1.2625,0.0,0.0,0.0,0.0,1.5008,0.0,1.5808,0.0,1.5531,1.53,1.5066,1.4683,1.4374,1.4175,1.4115,1.4109,1.4109,1.4109,1.4109,1.4109,1.4109,1.4109,1.4109,1.4109,1.4109,1.4109,0.0,0.0,0.0,0.0,0.0,0.0,0.0,2.9251,3.083,3.0597,3.0587,3.0412,2.9946,2.9748,2.9406,2.8763,2.8143,2.7698,2.7451,2.6824,2.623,2.5713,2.4908,2.4277,2.3857,2.2559,2.1843,0.0,0.0,1.8841,0.0,0.0,0.0,0.0,0.0,0.0,0.0,1.5404,1.5124,1.6055,1.5249,1.4584,1.4136,1.4382,1.4315,1.4109,1.4109,1.4109,1.425,1.522,1.6607,1.7942,1.7983,2.0006,2.2381,2.249,2.2762,2.3042,2.3081,2.3091,2.3091,2.3091,2.3091,2.3091,2.3091,2.3091,2.3091,2.3091,2.224,2.0677,1.8018,1.9142,1.9216,0.0,0.0,0.0,0.0,0.0,0.0,0.0,0.0,0.0,0.0,0.0,0.0,0.0,0.0,0.0,1.1432,1.233,1.2958,1.318,0.0,1.5008,1.5008,1.5538,0.0,1.5801,1.5531,1.5384,1.5337,1.4754,1.4481,1.4447,1.4202,1.4109,1.4109,1.4109,1.4109,1.4109,1.4109,1.4109,1.4109,1.4109,1.4109,1.4109,0.0,0.0,0.0,0.0,0.0,0.0,0.0,3.0258,3.0889,3.0889,3.0889,3.0713,3.0244,2.9852,2.9422,2.8928,2.8144,2.7692,2.7692,2.6891,2.6309,2.6133,2.5283,2.46,2.418,2.3196,2.2423,0.0,0.0,0.0,1.9349,0.0,0.0,0.0,0.0,1.6233,1.5906,1.5901,1.574,1.5498,1.5133,1.4867,1.4651,1.4765,1.4738,1.4741,1.5453,1.572,1.5893,1.7047,1.7684,1.815,1.9033,2.0779,2.2547,2.2791,2.2964,2.3091,2.3091,2.3091,2.3091,2.3091,2.3091,2.3091,2.3091,2.3091,2.3091,2.3091,2.2151,2.1203,2.0798,2.0188,1.972,0.0,0.0,0.0,0.0,0.0,0.0,0.0,0.0,0.0,0.0,0.0,0.0,0.0,0.0,0.0,1.1688,1.2209,1.2725,1.32,0.0,1.5008,1.5008,1.5538,1.5808,1.5808,1.5688,1.5565,1.5384,1.497,1.4589,1.4262,1.4322,1.4249,1.4109,1.4109,1.4109,1.4109,1.4109,1.4109,1.4109,1.4109,1.4202,1.4349,2.6929,0.0,2.724,0.0,2.8332,2.8823,3.0626,3.0889,3.0889,3.0889,3.0889,3.0664,3.0078,2.9667,2.9209,2.8769,2.8112,2.7692,2.7692,2.6891,2.6387,2.6387,2.5434,0.0,2.4609,2.3652,2.2883,2.2287,2.2032,0.0,0.0,0.0,0.0,0.0,1.7836,1.7669,1.6886,1.7291,1.72,1.6714,1.6437,1.5991,1.5531,1.5621,1.56,1.5628,1.6485,1.7026,1.752,1.8686,1.8978,1.9028,2.0074,2.1457,2.2732,2.3013,2.3091,2.3091,2.3091,2.3091,2.3091,2.3091,2.3091,2.3091,2.3091,2.3091,2.3091,2.3091,2.2425,2.1987,2.247,2.1315,2.0642,0.0,0.0,0.0,0.0,0.0,0.0,0.0,0.0,0.0,0.0,0.0,0.0,0.0,0.0,0.0,0.0,1.2336,0.0,0.0,0.0,0.0,0.0,0.0,1.5808,1.5808,1.5808,1.5695,1.5518,1.5247,1.4839,1.437,1.4469,1.4381,1.4208,1.4122,1.4109,1.4109,1.4109,1.4109,1.4116,1.4182,1.4342,1.4501,2.9375,2.9541,2.9824,3.0723,3.0869,3.0869,3.0889,3.0889,3.0889,3.0889,3.0889,3.0557,2.9706,2.9189,2.876,2.834,2.7936,2.7692,2.7692,2.6891,2.6387,0.0,0.0,2.4619,2.5072,2.3776,2.3123,2.3188,0.0,0.0,2.115,0.0,0.0,2.0102,1.9063,2.0004,2.2256,2.0018,1.9746,2.0743,1.9827,1.838,1.6822,1.7071,1.7019,1.6785,1.6785,1.7563,1.8738,1.9816,2.0489,2.0871,2.088,2.1901,2.3091,2.3091,2.3091,2.3091,2.3091,2.3091,2.3091,2.3091,2.3091,2.3091,2.3091,2.3091,2.3091,2.3091,2.3101,2.2721,2.1547,2.2284,2.2196,1.9581,0.0,0.0,0.0,0.0,0.0,0.0,0.0,0.0,0.0,0.0,0.0,0.0,0.0,0.0,0.0,0.0,0.0,1.358,1.4502,0.0,1.5391,1.5655,1.5808,1.5808,1.5808,1.5801,1.5788,1.5524,1.5253,1.4959,1.4643,1.4494,1.4467,1.4208,1.4109,1.4109,1.4109,1.4109,1.4122,1.4409,1.4494,1.4501,2.9941,3.0282,3.0557,3.084,3.0889,3.0889,3.0889,3.0889,3.0889,3.0889,3.039,2.9911,2.9627,2.9471,2.91,0.0,2.7936,2.7692,0.0,2.6891,2.6387,2.6387,2.5434,2.4809,2.4629,2.3945,2.3301,2.2715,0.0,0.0,0.0,2.1734,2.1074,2.0235,2.0939,2.0863,2.0197,2.0488,2.0348,1.9917,1.9629,1.9152,1.8641,1.8731,1.8699,1.8738,1.958,2.0112,2.0615,2.178,2.2274,2.2411,2.2411,2.2734,2.3091,2.3091,2.3091,2.3091,2.3091,2.3091,2.3091,2.3091,2.3091,2.3091,2.3091,2.3091,2.3091,2.3091,2.2448,2.2009,2.2448,2.2164,2.1852,2.1829,0.0,0.0,0.0,0.0,0.0,0.0,0.0,0.0,0.0,0.0,0.0,0.0,0.0,0.0,0.0,0.0,0.0,0.0,1.4803,0.0,1.5398,1.5661,1.5808,1.5808,1.5808,1.5701,1.5538,1.5621,1.5424,1.4992,1.507,1.489,1.4487,1.4422,1.4262,1.4109,1.4109,1.4109,1.4116,1.4195,1.4349,1.4527,3.0459,3.0693,3.0889,3.0889,3.0889,3.0889,3.0889,3.0889,3.0889,3.0889,3.0254,2.9774,2.9618,2.9452,0.0,2.835,2.8083,0.0,2.7702,2.7037,2.6553,2.6421,2.5561,2.4965,2.4668,0.0,0.0,2.2998,2.2908,2.2752,2.2488,2.2488,2.207,2.1328,2.2286,2.1938,2.0651,2.1588,2.1534,2.0854,2.0854,2.0584,2.0192,2.0192,2.0192,2.0282,2.1025,2.1591,2.2098,2.284,2.3091,2.3091,2.3091,2.3091,2.3091,2.3091,2.3091,2.3091,2.3091,2.3091,2.3091,2.3091,2.3091,2.3091,2.3091,2.3091,2.3091,2.3091,2.2492,2.2217,2.296,2.2492,2.2161,2.2768,0.0,0.0,0.0,0.0,0.0,0.0,0.0,0.0,0.0,1.2605,0.0,0.0,0.0,0.0,0.0,0.0,0.0,1.4242,1.4997,0.0,1.5558,1.5715,1.5808,1.5808,1.5808,1.5708,1.5565,1.5721,1.5631,1.5291,1.5364,1.519,1.483,1.4587,1.4476,1.4417,1.4196,1.4155,1.4249,1.4249,1.4362,1.4521,3.0889,3.0889,0.0,0.0,3.0889,0.0,3.0889,3.0889,3.0889,3.0889,3.0459,3.0028,2.9637,2.916,2.8721,2.833,0.0,0.0,0.0,2.7236,2.6816,2.6367,2.5581,0.0,2.5053,2.4261,2.3809,2.374,2.2949,2.2537,2.2537,2.2537,2.2742,2.3091,2.3091,2.3091,2.3091,2.3091,2.3091,2.3091,2.3091,2.2425,2.1426,2.1426,2.1426,2.1426,2.1426,2.2142,2.3091,2.3091,2.3091,2.3091,2.3091,2.3091,2.3091,2.3091,2.3091,2.3091,2.3091,2.3091,2.3091,2.3091,2.3091,2.3091,2.3091,2.3091,2.3091,2.3091,2.3091,2.3091,2.3091,2.3091,2.2933,2.2471,2.1982,2.0675,1.788,0.0,0.0,0.0,0.0,0.0,0.0,1.3147,1.3493,0.0,0.0,0.0,0.0,0.0,0.0,1.4541,1.513,1.5558,1.5801,1.5808,1.5808,1.5808,1.5808,1.5808,1.5808,1.5808,1.5808,1.5788,1.5545,1.5404,1.5324,1.4776,1.4689,1.4872,1.4323,1.4255,1.4467,1.4467,1.4467,1.4467,0.0,0.0,3.0889,3.0889,3.0889,3.0889,3.0889,3.0889,3.0889,3.0889,3.0205,2.9706,2.9608,2.8924,2.8398,2.8301,2.8291,2.7978,2.7217,2.7045,2.6654,2.5903,2.5669,2.5264,2.459,2.4352,2.3923,2.3269,2.3064,2.2967,2.2967,2.2967,2.3003,2.3091,2.3091,2.3091,2.3091,2.3091,2.3091,2.3091,2.3091,2.2938,2.2677,2.2677,2.2677,2.2677,2.2677,2.2862,2.3091,2.3091,2.3091,2.3091,2.3091,2.3091,2.3091,2.3091,2.3091,2.3091,2.3091,2.3091,2.3091,2.3091,2.3091,2.3091,2.3091,2.3091,2.3091,2.3091,2.3091,2.3091,2.3091,2.3091,2.2705,2.1478,2.0033,1.8673,1.7502,0.0,0.0,0.0,1.3986,1.3627,1.3667,1.3634,1.3573,0.0,0.0,0.0,0.0,0.0,1.5044,1.5184,1.5515,1.5735,1.5808,1.5808,1.5808,1.5808,1.5808,1.5808,1.5808,1.5808,1.5808,1.5801,1.5735,1.5478,1.5079,1.4939,1.4658,1.4303,1.4163,1.4128,1.4188,1.4188,1.4188,1.4222,3.0889,3.0889,3.0889,3.0889,3.0889,3.0889,3.0889,3.0889,3.0889,3.0889,3.0283,2.9813,2.9618,2.9002,2.8506,2.831,2.8291,2.8096,2.7627,2.7226,2.6781,2.6313,2.5752,2.5107,2.441,2.4228,2.3786,2.3091,2.3091,2.3091,2.3091,2.3091,2.3091,2.3091,2.3091,2.3091,2.3091,2.3091,2.3091,2.3091,2.3091,2.3091,2.3091,2.3091,2.3091,2.3091,2.3091,2.3091,2.3091,2.3091,2.3091,2.3091,2.3091,2.3091,2.3091,2.3091,2.3091,2.3091,2.3091,2.3091,2.3091,2.3091,2.3091,2.3091,2.3091,2.3091,2.3091,2.3091,2.3091,2.3091,2.3091,2.3091,2.2713,2.1544,2.0531,1.9244,1.7378,1.6075,0.0,1.4488,1.4302,1.4202,1.4116,1.4302,1.4314,1.4019,0.0,0.0,1.4696,1.5264,1.5531,1.5398,1.5655,1.5808,1.5808,1.5808,1.5808,1.5808,1.5808,1.5808,1.5808,1.5808,1.5808,1.5808,1.5808,1.5578,1.5173,1.5039,1.4798,1.4484,1.4216,1.4168,1.4269,1.4156,1.4109,1.4129,3.1218,3.1054,3.0889,3.0889,3.0889,3.0889,3.0889,3.0889,3.0889,3.0889,3.043,2.9971,2.9637,2.9121,2.8682,2.832,2.8291,2.8262,2.8203,2.7461,2.6957,2.6898,2.5815,2.4932,2.4401,2.3945,2.3493,2.3091,2.3091,2.313,2.3188,2.312,2.313,2.322,2.322,2.322,2.322,2.322,2.322,2.3188,2.312,2.3091,2.3091,2.3091,2.3091,2.3091,2.3091,2.3091,2.3091,2.3091,2.3091,2.3091,2.3091,2.3091,2.3091,2.3091,2.314,2.3201,2.311,2.3091,2.311,2.3201,2.314,2.311,2.3201,2.314,2.311,2.3201,2.314,2.3091,2.3091,2.3091,2.2794,2.1902,2.1658,2.0506,1.7392,0.0,0.0,1.4228,1.4603,1.4872,1.4396,1.4943,1.5157,1.4727,1.5308,0.0,0.0,1.5675,1.5695,1.5471,1.5675,1.5808,1.5808,1.5808,1.5808,1.5808,1.5808,1.5808,1.5808,1.5808,1.5808,1.5808,1.5808,1.5615,1.5311,1.5086,1.4959,1.4865,1.437,1.4302,1.4474,1.4295,1.4195,1.4162,3.2747,3.1767,3.0889,3.0889,3.0889,3.0889,3.0889,3.0889,3.0889,3.0889,3.0204,2.9676,2.9608,2.8894,2.8359,2.8301,2.8291,2.8171,2.7809,2.7295,2.6855,2.6504,2.5913,2.523,2.441,2.362,2.3159,2.3091,2.3091,2.3308,2.3682,2.3288,2.3308,2.3691,2.3691,2.3691,2.3691,2.3691,2.3691,2.3652,2.3269,2.3091,2.3091,2.3091,2.3091,2.3091,2.3091,2.3091,2.3091,2.3091,2.3091,2.3091,2.3091,2.3091,2.3091,2.3091,2.3376,2.3603,2.322,2.3091,2.321,2.3594,2.3386,2.3188,2.3603,2.3386,2.3198,2.3613,2.3376,2.3091,2.3091,2.3091,2.2655,2.1278,2.0536,1.9453,0.0,0.0,1.5908,1.5581,1.5414,1.5391,1.5521,1.526,1.522,1.5575,1.5297,1.5291,1.5715,1.5781,1.5781,1.5741,1.5781,1.5808,1.5808,1.5808,1.5808,1.5808,1.5808,1.5808,1.5808,1.5808,1.5808,1.5808,1.5808,1.5524,1.5053,1.5028,1.4839,1.4583,1.4467,1.4461,1.4521,1.4772,1.4669,1.4489,3.3106,3.1901,3.0889,3.0889,3.0889,3.0889,3.0889,3.0889,3.0889,3.0889,3.0566,3.0126,2.9647,2.9246,2.8799,2.833,2.8291,2.8213,2.8044,2.7633,2.7275,2.7115,2.6196,2.5191,2.4102,2.3691,2.3357,2.3091,2.3357,2.3445,2.3415,2.3454,2.3445,2.3415,2.3415,2.3415,2.3415,2.3415,2.3574,2.375,2.3298,2.3259,2.3445,2.321,2.3091,2.3091,2.3091,2.3091,2.3091,2.3091,2.3091,2.314,2.3396,2.3308,2.3188,2.3669,2.3809,2.3799,2.3796,2.3806,2.3854,2.4082,2.3952,2.3854,2.4082,2.3799,2.3613,2.4043,2.3581,2.3191,2.3425,2.3279,2.2814,2.1907,2.1286,0.0,0.0,1.7807,1.6947,1.6646,1.6032,1.5655,1.5788,1.5585,1.5538,1.5781,1.5578,1.5545,1.5788,1.5808,1.5808,1.5808,1.5808,1.5808,1.5808,1.5808,1.5808,1.5808,1.5808,1.5808,1.5808,1.5808,1.5808,1.5795,1.5641,1.5444,1.5207,1.5053,1.4905,1.4763,1.4763,1.4763,1.4798,1.4932,1.4798,1.4514,3.4114,3.2946,3.1796,3.1469,3.1412,3.1305,3.0947,3.0889,3.0889,3.0889,3.0801,3.0469,2.9813,2.9569,2.9188,2.8496,2.835,2.8291,2.8291,2.8015,2.78,2.7692,2.6426,2.5191,2.4134,2.4007,2.3747,2.3393,2.3672,2.3721,2.3571,2.373,2.3721,2.3562,2.3562,2.3562,2.3562,2.3454,2.3669,2.4043,2.3484,2.3486,2.375,2.3396,2.3179,2.3091,2.3091,2.3091,2.3091,2.3091,2.3159,2.3308,2.3564,2.3523,2.3523,2.4079,2.4189,2.4183,2.4482,2.4469,2.4443,2.4541,2.4469,2.4443,2.4551,2.4238,2.4053,2.4482,2.3942,2.3484,2.375,2.3516,2.3132,2.2713,0.0,0.0,0.0,1.9036,1.7968,1.6913,1.6192,1.5808,1.5808,1.6062,1.6244,1.6244,1.6497,1.6544,1.6251,1.6244,1.6109,1.5808,1.5808,1.5808,1.5808,1.5808,1.5808,1.5808,1.5808,1.5808,1.5808,1.5808,1.5808,1.5795,1.5568,1.5458,1.5378,1.518,1.5086,1.5086,1.5086,1.5086,1.5086,1.5086,1.4923,1.4701,3.7186,3.5999,3.4542,3.3191,3.2936,3.2473,3.1112,3.0889,3.0889,3.0889,3.0518,3.0225,3.0156,2.9443,2.8918,2.885,2.8516,2.8291,2.8291,2.8262,2.8093,2.7712,2.6426,2.5474,2.5004,2.458,2.4332,2.4303,2.3965,2.4202,2.4936,2.4163,2.4222,2.4945,2.4945,2.4945,2.4916,2.4492,2.457,2.4926,2.4095,2.376,2.3811,2.375,2.3486,2.3091,2.3091,2.3091,2.3091,2.3091,2.3386,2.3682,2.3279,2.3688,2.4235,2.3935,2.4398,2.5004,2.5033,2.4727,2.4512,2.4945,2.4717,2.4498,2.4945,2.4687,2.4492,2.4955,2.4648,2.4196,2.3857,2.3769,2.3603,2.312,0.0,0.0,1.9492,1.8993,1.8023,1.5792,1.5698,1.5808,1.5808,1.6873,1.7552,1.7552,1.8611,1.8749,1.7614,1.7552,1.7014,1.5849,1.5808,1.5808,1.5808,1.5808,1.5808,1.5808,1.5808,1.5808,1.5808,1.5808,1.5808,1.5808,1.5781,1.5621,1.5398,1.5378,1.5364,1.5364,1.5364,1.5364,1.5364,1.5364,1.5351,1.5331,3.7492,3.6325,3.5123,3.457,3.4459,3.3968,3.2483,3.2254,3.193,3.1025,3.0732,3.0518,3.0225,2.9902,2.9502,2.8937,2.8769,2.8574,2.831,2.8291,2.7988,2.7295,2.6787,2.6074,2.5112,2.4936,2.4687,2.4391,2.4531,2.4633,2.4668,2.4633,2.4633,2.4668,2.4668,2.4668,2.4648,2.4492,2.4512,2.4619,2.4023,2.3789,2.376,2.3486,2.3435,2.3506,2.3188,2.3288,2.3496,2.321,2.3406,2.3809,2.3874,2.4128,2.4434,2.4574,2.501,2.5478,2.5478,2.5337,2.5249,2.5439,2.5337,2.5259,2.5425,2.5137,2.4965,2.5391,2.4889,2.4443,2.4584,2.4173,2.374,2.3574,0.0,2.239,2.0964,2.0041,1.8914,1.7263,1.6505,1.6337,1.6918,1.7412,1.8002,1.8749,1.9464,1.925,1.7792,1.6943,1.6292,1.5825,1.5808,1.5808,1.5808,1.5808,1.5808,1.5808,1.5808,1.5808,1.5808,1.5808,1.5808,1.5795,1.5615,1.5581,1.5628,1.5471,1.5504,1.5641,1.5641,1.5641,1.5641,1.5641,1.5551,1.5398,3.819,3.737,3.6526,3.6081,3.5999,3.5497,3.4013,3.3406,3.2747,3.171,3.1189,3.0771,3.0449,3.0194,2.9766,2.917,2.8877,2.8603,2.831,2.8291,2.791,2.7051,2.6986,2.6465,2.5303,2.5283,2.5127,2.481,2.499,2.5014,2.481,2.5014,2.5004,2.481,2.481,2.481,2.4801,2.4678,2.4619,2.458,2.416,2.3984,2.3935,2.3484,2.3613,2.3935,2.3474,2.3535,2.3769,2.3571,2.3718,2.4033,2.4303,2.4512,2.4707,2.517,2.5474,2.5693,2.5693,2.5693,2.5693,2.5693,2.5693,2.5693,2.5693,2.5498,2.5361,2.565,2.523,2.4883,2.5063,2.4613,2.4163,2.4004,2.3718,2.3162,2.2193,2.1296,2.0301,1.9097,1.8078,1.7739,1.838,1.8674,1.9225,2.0212,2.0888,2.0488,1.8715,1.693,1.5972,1.5972,1.5855,1.5808,1.5808,1.5808,1.5808,1.5808,1.5808,1.5808,1.5808,1.5808,1.5808,1.5795,1.5618,1.5621,1.5788,1.5588,1.5628,1.5808,1.5808,1.5808,1.5795,1.5708,1.5601,1.5518,3.9697,3.9697,3.9245,3.7769,3.7518,3.7026,3.5535,3.4069,3.3134,3.3134,3.1815,3.0918,3.0918,3.0126,2.9598,2.9598,2.8816,2.8301,2.8291,2.8291,2.791,2.7051,2.6986,2.6586,2.5728,2.5693,2.5693,2.5693,2.5293,2.5303,2.5698,2.5283,2.5312,2.5693,2.5693,2.5693,2.5664,2.5264,2.5092,2.5053,2.459,2.4401,2.4352,2.3955,2.4053,2.4342,2.3945,2.3799,2.3867,2.4254,2.4391,2.4401,2.4401,2.4727,2.519,2.5581,2.5693,2.5693,2.5693,2.5693,2.5693,2.5693,2.5693,2.5693,2.5693,2.5693,2.5693,2.5693,2.5693,2.5581,2.518,2.5092,2.4945,2.4469,2.4401,2.3965,2.2778,2.2614,2.2147,2.0962,2.039,2.0118,2.0118,2.0839,2.1496,2.1975,2.3102,2.2842,2.0697,1.7865,1.6297,1.6297,1.5961,1.5808,1.5808,1.5808,1.5808,1.5808,1.5808,1.5808,1.5808,1.5808,1.5808,1.5808,1.5808,1.5808,1.5808,1.5808,1.5808,1.5808,1.5808,1.5808,1.5768,1.5504,1.5578,1.5768,3.9697,3.9697,3.9555,3.9115,3.9051,3.8556,3.7064,3.6476,3.5825,3.4792,3.336,3.2454,3.2454,3.0979,2.9921,2.9627,2.9053,2.8603,2.831,2.8291,2.791,2.7051,2.6986,2.6586,2.5728,2.5693,2.5693,2.5693,2.5581,2.5581,2.5708,2.5571,2.5581,2.5693,2.5693,2.5693,2.5698,2.5571,2.5361,2.5082,2.4945,2.4687,2.4381,2.4277,2.4502,2.4809,2.4053,2.4202,2.4642,2.4131,2.4375,2.4955,2.522,2.5406,2.5542,2.5645,2.5693,2.5693,2.5693,2.5693,2.5693,2.5693,2.5693,2.5693,2.5693,2.5693,2.5693,2.5693,2.5693,2.5645,2.5542,2.5283,2.5053,2.4916,2.4896,2.4406,2.306,2.316,2.2808,2.1268,2.0964,2.1144,2.1799,2.1831,2.2327,2.3583,2.2368,2.0978,1.9692,1.7506,1.6297,1.6297,1.5961,1.5808,1.5808,1.5808,1.5808,1.5808,1.5808,1.5808,1.5808,1.5808,1.5808,1.5808,1.5808,1.5808,1.5808,1.5808,1.5808,1.5808,1.5808,1.5808,1.5795,1.5708,1.5728,1.5795,3.9697,3.9697,3.9697,3.9697,3.9697,3.9413,3.8518,3.7875,3.7186,3.6298,3.4902,3.3669,3.2899,3.1625,3.0418,2.9401,2.8916,2.8564,2.831,2.8291,2.7988,2.7305,2.7275,2.6787,2.5713,2.5693,2.5693,2.5693,2.5693,2.5693,2.5693,2.5693,2.5693,2.5693,2.5693,2.5693,2.5693,2.5693,2.5478,2.5092,2.5092,2.4936,2.4658,2.4459,2.4795,2.5244,2.4564,2.4652,2.5033,2.4678,2.4902,2.5381,2.563,2.5693,2.5693,2.5693,2.5693,2.5693,2.5693,2.5693,2.5693,2.5693,2.5693,2.5693,2.5693,2.5693,2.5693,2.5693,2.5693,2.5693,2.5693,2.5493,2.5332,2.5332,2.5332,2.5035,2.4186,2.4318,2.4113,2.3104,2.2828,2.2964,2.3541,2.3196,2.3191,2.3791,2.2092,2.0529,1.943,1.7634,1.667,1.667,1.6219,1.6005,1.6005,1.5861,1.5808,1.5808,1.5808,1.5808,1.5808,1.5808,1.5808,1.5808,1.5808,1.5808,1.5808,1.5808,1.5808,1.5808,1.5808,1.5808,1.5808,1.5808,1.5808,1.5808,3.9697,3.9697,3.9697,3.9697,3.9697,3.9697,3.9697,3.8556,3.769,3.769,3.6406,3.4797,3.2997,3.2293,3.12,2.9273,2.8616,2.8291,2.8291,2.8291,2.8132,2.7712,2.7692,2.71,2.5854,2.5786,2.5732,2.5693,2.5693,2.5693,2.5693,2.5693,2.5693,2.5693,2.5693,2.5693,2.5693,2.5693,2.5484,2.5151,2.5151,2.5151,2.5112,2.4687,2.5015,2.565,2.5225,2.5121,2.5219,2.5571,2.5693,2.5693,2.5693,2.5693,2.5693,2.5693,2.5693,2.5693,2.5693,2.5693,2.5693,2.5693,2.5693,2.5693,2.5693,2.5693,2.5693,2.5693,2.5693,2.5693,2.5693,2.5693,2.5693,2.5693,2.5693,2.5693,2.5693,2.5693,2.5693,2.5693,2.5371,2.5151,2.5151,2.4766,2.4097,2.3094,2.2194,2.1092,1.9679,1.8063,1.7199,1.7199,1.6749,1.6495,1.6468,1.6279,1.6059,1.5808,1.5808,1.5808,1.5808,1.5808,1.5849,1.5967,1.5849,1.5849,1.5967,1.5849,1.5808,1.5808,1.5808,1.5808,1.5808,1.5808,1.5808,1.5808,3.9697,3.9697,3.9697,3.9697,3.9697,3.9697,3.9697,3.9413,3.9219,3.9219,3.794,3.6692,3.5849,3.4339,3.259,3.0716,2.916,2.8291,2.8291,2.8291,2.8132,2.7712,2.7692,2.7399,2.6723,2.6416,2.6084,2.5693,2.5693,2.5693,2.5693,2.5693,2.5693,2.5693,2.5693,2.5693,2.5693,2.5693,2.5659,2.5571,2.5571,2.5571,2.5562,2.5464,2.5552,2.565,2.5225,2.5293,2.5581,2.5679,2.5693,2.5693,2.5693,2.5693,2.5693,2.5693,2.5693,2.5693,2.5693,2.5693,2.5693,2.5693,2.5693,2.5693,2.5693,2.5693,2.5693,2.5693,2.5693,2.5693,2.5693,2.5693,2.5693,2.5693,2.5693,2.5693,2.5693,2.5693,2.5693,2.5693,2.563,2.5571,2.5571,2.5484,2.4746,2.313,2.2194,2.1092,1.9679,1.8063,1.7199,1.7199,1.785,1.8043,1.7698,1.869,1.8026,1.5808,1.5808,1.5808,1.5808,1.5808,1.6339,1.7225,1.6228,1.6362,1.7201,1.6204,1.5808,1.5808,1.5808,1.5808,1.5808,1.5808,1.5808,1.5808,3.9697,3.9697,3.9697,3.9697,3.9697,3.9697,3.9697,3.9697,3.9697,3.9697,3.8803,3.781,3.6846,3.5388,3.37,3.1802,3.0756,2.9937,2.9303,2.925,2.8879,2.8022,2.7995,2.779,2.7334,2.7135,2.6787,2.6323,2.6323,2.6215,2.602,2.602,2.5913,2.5693,2.5693,2.5693,2.5693,2.5693,2.5693,2.5693,2.5693,2.5693,2.5693,2.5693,2.5693,2.5679,2.5469,2.5513,2.5693,2.5693,2.5693,2.5693,2.5693,2.5693,2.5693,2.5693,2.5693,2.5693,2.5693,2.5693,2.5693,2.5693,2.5693,2.5693,2.5693,2.5693,2.5693,2.5693,2.5693,2.5693,2.5693,2.5693,2.5693,2.5693,2.5693,2.5693,2.5693,2.5693,2.5693,2.5693,2.5693,2.5693,2.5693,2.5693,2.5032,2.3443,2.2322,2.1372,2.0641,1.9162,1.8646,1.9322,1.9712,1.9689,1.9303,1.9833,1.9238,1.7576,1.7576,1.7576,1.7576,1.7576,1.7925,1.8526,1.7848,1.763,1.7645,1.699,1.6339,1.5808,1.5808,1.5808,1.5808,1.5808,1.5808,1.5808,3.9697,3.9697,3.9697,3.9697,3.9697,3.9697,3.9697,3.9697,3.9697,3.9697,3.9321,3.8526,3.7155,3.5849,3.4404,3.2803,3.2443,3.1825,3.0721,3.0644,3.0146,2.9032,2.8751,2.8486,2.8156,2.7931,2.7545,2.6986,2.6986,2.6797,2.6387,2.6387,2.6162,2.5693,2.5693,2.5693,2.5693,2.5693,2.5693,2.5693,2.5693,2.5693,2.5693,2.5693,2.5693,2.5693,2.5693,2.5693,2.5693,2.5693,2.5693,2.5693,2.5693,2.5693,2.5693,2.5693,2.5693,2.5693,2.5693,2.5693,2.5693,2.5693,2.5693,2.5693,2.5693,2.5693,2.5693,2.5693,2.5767,2.5825,2.5825,2.5884,2.5903,2.5835,2.5825,2.5796,2.5703,2.5693,2.5693,2.5693,2.5693,2.5693,2.5693,2.5693,2.525,2.4122,2.2801,2.203,2.203,2.0717,2.0487,2.1651,2.1653,2.1391,2.0914,2.0863,2.0597,2.0133,2.0133,1.9906,1.9497,1.9497,1.9602,1.9807,1.9588,1.8925,1.7979,1.7785,1.7084,1.6109,1.5896,1.592,1.6109,1.5879,1.5808,1.5808,3.9697,3.9697,3.9697,3.9697,3.9697,3.9697,3.9697,3.9697,3.9697,3.9697,3.9634,3.9156,3.7967,3.5842,3.4408,3.4141,3.2994,3.223,3.2028,3.2028,3.1963,3.1774,3.0644,3.0011,2.9948,2.882,2.7822,2.6986,2.6986,2.6797,2.6387,2.6387,2.6162,2.5693,2.5693,2.5693,2.5693,2.5693,2.5693,2.5693,2.5693,2.5693,2.5693,2.5693,2.5693,2.5693,2.5693,2.5693,2.5693,2.5693,2.5693,2.5693,2.5693,2.5693,2.5693,2.5693,2.5693,2.5693,2.5693,2.5693,2.5693,2.5693,2.5693,2.5693,2.5693,2.5693,2.5693,2.5693,2.601,2.6299,2.6299,2.6592,2.6719,2.6357,2.6299,2.6172,2.5767,2.5693,2.5693,2.5693,2.5693,2.5693,2.5693,2.5693,2.5611,2.543,2.4196,2.3434,2.3434,2.2156,2.1499,2.1693,2.2774,2.2981,2.2156,2.3261,2.3408,2.2611,2.2611,2.1521,1.9497,1.9497,2.0079,2.1002,1.9943,1.9405,1.9177,1.8141,1.7598,1.7342,1.6228,1.648,1.7318,1.6204,1.5808,1.5808,3.9697,3.9697,3.9697,3.9697,3.9697,3.9697,3.9697,3.9697,3.9697,3.9697,3.9145,3.868,3.8529,3.6986,3.5842,3.5548,3.4957,3.4276,3.3514,3.3464,3.313,3.2331,3.1724,3.1071,3.0317,2.9713,2.8748,2.7399,2.7617,2.7393,2.6738,2.6738,2.6352,2.5693,2.5693,2.5693,2.5693,2.5693,2.5693,2.5693,2.5693,2.5693,2.5693,2.5693,2.5693,2.5693,2.5693,2.5693,2.5693,2.5693,2.5693,2.5693,2.5693,2.5693,2.5693,2.5693,2.5693,2.5693,2.5693,2.5693,2.5693,2.5693,2.5693,2.5693,2.5693,2.5903,2.6103,2.6103,2.625,2.6465,2.6699,2.6894,2.6953,2.6768,2.6543,2.6328,2.6133,2.6103,2.6103,2.6103,2.5864,2.5693,2.5693,2.5693,2.5693,2.5693,2.4461,2.4023,2.479,2.3558,2.3151,2.3924,2.451,2.4409,2.3523,2.4104,2.3962,2.3091,2.3091,2.2545,2.1521,2.1521,2.1787,2.2284,2.1743,2.1123,2.0463,1.992,1.9314,1.8657,1.8079,1.7809,1.7622,1.7061,1.641,1.5808]}]]